<?xml version="1.0" encoding="UTF-8" standalone="no" ?>
<gpx xmlns="http://www.topografix.com/GPX/1/1" xmlns:xsi="http://www.w3.org/2001/XMLSchema-instance" xsi:schemaLocation="http://www.topografix.com/GPX/1/1 http://www.topografix.com/GPX/1/1/gpx.xsd" version="1.1" creator="VisuGPX - https://www.visugpx.com">
  <metadata>
    <name>BelleIsleEnTerre_CoatAnNoz</name>
    <desc><![CDATA[gnerando idor: 9221581_9223892_9307726_9314161]]></desc>
  </metadata>
  <trk>
    <name><![CDATA[BIET_CoatAnNoz_14.8km-9221581]]></name>
    <extensions>
      <line xmlns="http://www.topografix.com/GPX/gpx_style/0/2">
        <color>0000FF</color>
        <width>4</width>
      </line>
    </extensions>
    <trkseg>
      <trkpt lat="48.54547" lon="-3.39556">
        <ele>92</ele>
        <time>2023-10-30T17:44:48Z</time>
      </trkpt>
      <trkpt lat="48.54522" lon="-3.39571">
        <ele>93</ele>
        <time>2023-10-30T17:45:24Z</time>
      </trkpt>
      <trkpt lat="48.54525" lon="-3.39588">
        <ele>93</ele>
        <time>2023-10-30T17:45:39Z</time>
      </trkpt>
      <trkpt lat="48.54471" lon="-3.39586">
        <ele>94</ele>
        <time>2023-10-30T17:46:52Z</time>
      </trkpt>
      <trkpt lat="48.54464" lon="-3.39604">
        <ele>94</ele>
        <time>2023-10-30T17:47:10Z</time>
      </trkpt>
      <trkpt lat="48.54416" lon="-3.39614">
        <ele>94</ele>
        <time>2023-10-30T17:48:15Z</time>
      </trkpt>
      <trkpt lat="48.54411" lon="-3.39727">
        <ele>94</ele>
        <time>2023-10-30T17:49:55Z</time>
      </trkpt>
      <trkpt lat="48.54412" lon="-3.39761">
        <ele>95</ele>
        <time>2023-10-30T17:50:25Z</time>
      </trkpt>
      <trkpt lat="48.54336" lon="-3.39767">
        <ele>97</ele>
        <time>2023-10-30T17:52:06Z</time>
      </trkpt>
      <trkpt lat="48.54322" lon="-3.39759">
        <ele>96</ele>
        <time>2023-10-30T17:52:26Z</time>
      </trkpt>
      <trkpt lat="48.54318" lon="-3.39774">
        <ele>98</ele>
        <time>2023-10-30T17:52:41Z</time>
      </trkpt>
      <trkpt lat="48.54255" lon="-3.39801">
        <ele>101</ele>
        <time>2023-10-30T17:54:08Z</time>
      </trkpt>
      <trkpt lat="48.54238" lon="-3.39786">
        <ele>100</ele>
        <time>2023-10-30T17:54:34Z</time>
      </trkpt>
      <trkpt lat="48.54216" lon="-3.39785">
        <ele>100</ele>
        <time>2023-10-30T17:55:04Z</time>
      </trkpt>
      <trkpt lat="48.54191" lon="-3.398">
        <ele>102</ele>
        <time>2023-10-30T17:55:40Z</time>
      </trkpt>
      <trkpt lat="48.5416" lon="-3.39802">
        <ele>104</ele>
        <time>2023-10-30T17:56:21Z</time>
      </trkpt>
      <trkpt lat="48.54107" lon="-3.39777">
        <ele>102</ele>
        <time>2023-10-30T17:57:35Z</time>
      </trkpt>
      <trkpt lat="48.54084" lon="-3.39778">
        <ele>102</ele>
        <time>2023-10-30T17:58:06Z</time>
      </trkpt>
      <trkpt lat="48.54054" lon="-3.3979">
        <ele>103</ele>
        <time>2023-10-30T17:58:47Z</time>
      </trkpt>
      <trkpt lat="48.54015" lon="-3.39781">
        <ele>102</ele>
        <time>2023-10-30T17:59:40Z</time>
      </trkpt>
      <trkpt lat="48.53995" lon="-3.39783">
        <ele>102</ele>
        <time>2023-10-30T18:00:07Z</time>
      </trkpt>
      <trkpt lat="48.53963" lon="-3.398">
        <ele>102</ele>
        <time>2023-10-30T18:00:52Z</time>
      </trkpt>
      <trkpt lat="48.53926" lon="-3.39842">
        <ele>102</ele>
        <time>2023-10-30T18:01:54Z</time>
      </trkpt>
      <trkpt lat="48.53867" lon="-3.39963">
        <ele>115</ele>
        <time>2023-10-30T18:04:06Z</time>
      </trkpt>
      <trkpt lat="48.53844" lon="-3.39973">
        <ele>117</ele>
        <time>2023-10-30T18:04:38Z</time>
      </trkpt>
      <trkpt lat="48.53812" lon="-3.39965">
        <ele>119</ele>
        <time>2023-10-30T18:05:22Z</time>
      </trkpt>
      <trkpt lat="48.53791" lon="-3.39977">
        <ele>122</ele>
        <time>2023-10-30T18:05:52Z</time>
      </trkpt>
      <trkpt lat="48.53793" lon="-3.40024">
        <ele>122</ele>
        <time>2023-10-30T18:06:33Z</time>
      </trkpt>
      <trkpt lat="48.53776" lon="-3.40105">
        <ele>127</ele>
        <time>2023-10-30T18:07:48Z</time>
      </trkpt>
      <trkpt lat="48.53766" lon="-3.40124">
        <ele>129</ele>
        <time>2023-10-30T18:08:10Z</time>
      </trkpt>
      <trkpt lat="48.5373" lon="-3.40086">
        <ele>134</ele>
        <time>2023-10-30T18:09:08Z</time>
      </trkpt>
      <trkpt lat="48.53718" lon="-3.40083">
        <ele>135</ele>
        <time>2023-10-30T18:09:24Z</time>
      </trkpt>
      <trkpt lat="48.53698" lon="-3.40101">
        <ele>137</ele>
        <time>2023-10-30T18:09:56Z</time>
      </trkpt>
      <trkpt lat="48.53661" lon="-3.40167">
        <ele>140</ele>
        <time>2023-10-30T18:11:12Z</time>
      </trkpt>
      <trkpt lat="48.53652" lon="-3.40171">
        <ele>141</ele>
        <time>2023-10-30T18:11:24Z</time>
      </trkpt>
      <trkpt lat="48.5362" lon="-3.40138">
        <ele>143</ele>
        <time>2023-10-30T18:12:16Z</time>
      </trkpt>
      <trkpt lat="48.53587" lon="-3.40089">
        <ele>144</ele>
        <time>2023-10-30T18:13:18Z</time>
      </trkpt>
      <trkpt lat="48.53533" lon="-3.4016">
        <ele>147</ele>
        <time>2023-10-30T18:14:54Z</time>
      </trkpt>
      <trkpt lat="48.53486" lon="-3.40235">
        <ele>150</ele>
        <time>2023-10-30T18:16:25Z</time>
      </trkpt>
      <trkpt lat="48.53496" lon="-3.40247">
        <ele>150</ele>
        <time>2023-10-30T18:16:42Z</time>
      </trkpt>
      <trkpt lat="48.53481" lon="-3.40275">
        <ele>151</ele>
        <time>2023-10-30T18:17:14Z</time>
      </trkpt>
      <trkpt lat="48.53453" lon="-3.40315">
        <ele>152</ele>
        <time>2023-10-30T18:18:05Z</time>
      </trkpt>
      <trkpt lat="48.53441" lon="-3.40336">
        <ele>153</ele>
        <time>2023-10-30T18:18:30Z</time>
      </trkpt>
      <trkpt lat="48.53415" lon="-3.40364">
        <ele>155</ele>
        <time>2023-10-30T18:19:12Z</time>
      </trkpt>
      <trkpt lat="48.534" lon="-3.40371">
        <ele>156</ele>
        <time>2023-10-30T18:19:33Z</time>
      </trkpt>
      <trkpt lat="48.5339" lon="-3.40389">
        <ele>156</ele>
        <time>2023-10-30T18:19:54Z</time>
      </trkpt>
      <trkpt lat="48.53384" lon="-3.40422">
        <ele>157</ele>
        <time>2023-10-30T18:20:24Z</time>
      </trkpt>
      <trkpt lat="48.5334" lon="-3.40501">
        <ele>161</ele>
        <time>2023-10-30T18:21:55Z</time>
      </trkpt>
      <trkpt lat="48.53324" lon="-3.4054">
        <ele>162</ele>
        <time>2023-10-30T18:22:36Z</time>
      </trkpt>
      <trkpt lat="48.53296" lon="-3.40601">
        <ele>164</ele>
        <time>2023-10-30T18:23:41Z</time>
      </trkpt>
      <trkpt lat="48.53289" lon="-3.40612">
        <ele>165</ele>
        <time>2023-10-30T18:23:55Z</time>
      </trkpt>
      <trkpt lat="48.53275" lon="-3.40615">
        <ele>165</ele>
        <time>2023-10-30T18:24:14Z</time>
      </trkpt>
      <trkpt lat="48.5324" lon="-3.40675">
        <ele>167</ele>
        <time>2023-10-30T18:25:24Z</time>
      </trkpt>
      <trkpt lat="48.5322" lon="-3.40722">
        <ele>169</ele>
        <time>2023-10-30T18:26:14Z</time>
      </trkpt>
      <trkpt lat="48.53198" lon="-3.40782">
        <ele>170</ele>
        <time>2023-10-30T18:27:14Z</time>
      </trkpt>
      <trkpt lat="48.53185" lon="-3.40834">
        <ele>171</ele>
        <time>2023-10-30T18:28:04Z</time>
      </trkpt>
      <trkpt lat="48.53135" lon="-3.40963">
        <ele>171</ele>
        <time>2023-10-30T18:30:16Z</time>
      </trkpt>
      <trkpt lat="48.53116" lon="-3.41024">
        <ele>171</ele>
        <time>2023-10-30T18:31:15Z</time>
      </trkpt>
      <trkpt lat="48.53101" lon="-3.41062">
        <ele>170</ele>
        <time>2023-10-30T18:31:54Z</time>
      </trkpt>
      <trkpt lat="48.5308" lon="-3.4115">
        <ele>170</ele>
        <time>2023-10-30T18:33:17Z</time>
      </trkpt>
      <trkpt lat="48.5305" lon="-3.41199">
        <ele>170</ele>
        <time>2023-10-30T18:34:16Z</time>
      </trkpt>
      <trkpt lat="48.53043" lon="-3.4121">
        <ele>170</ele>
        <time>2023-10-30T18:34:29Z</time>
      </trkpt>
      <trkpt lat="48.53051" lon="-3.41279">
        <ele>171</ele>
        <time>2023-10-30T18:35:31Z</time>
      </trkpt>
      <trkpt lat="48.5306" lon="-3.41318">
        <ele>171</ele>
        <time>2023-10-30T18:36:08Z</time>
      </trkpt>
      <trkpt lat="48.53053" lon="-3.4133">
        <ele>171</ele>
        <time>2023-10-30T18:36:22Z</time>
      </trkpt>
      <trkpt lat="48.53058" lon="-3.41348">
        <ele>171</ele>
        <time>2023-10-30T18:36:39Z</time>
      </trkpt>
      <trkpt lat="48.53046" lon="-3.41409">
        <ele>172</ele>
        <time>2023-10-30T18:37:35Z</time>
      </trkpt>
      <trkpt lat="48.53024" lon="-3.41475">
        <ele>172</ele>
        <time>2023-10-30T18:38:41Z</time>
      </trkpt>
      <trkpt lat="48.53009" lon="-3.41545">
        <ele>172</ele>
        <time>2023-10-30T18:39:46Z</time>
      </trkpt>
      <trkpt lat="48.53002" lon="-3.41669">
        <ele>173</ele>
        <time>2023-10-30T18:41:36Z</time>
      </trkpt>
      <trkpt lat="48.52957" lon="-3.41673">
        <ele>173</ele>
        <time>2023-10-30T18:42:36Z</time>
      </trkpt>
      <trkpt lat="48.52864" lon="-3.41611">
        <ele>172</ele>
        <time>2023-10-30T18:44:52Z</time>
      </trkpt>
      <trkpt lat="48.52837" lon="-3.41596">
        <ele>171</ele>
        <time>2023-10-30T18:45:30Z</time>
      </trkpt>
      <trkpt lat="48.527" lon="-3.41556">
        <ele>166</ele>
        <time>2023-10-30T18:48:36Z</time>
      </trkpt>
      <trkpt lat="48.52619" lon="-3.41533">
        <ele>162</ele>
        <time>2023-10-30T18:50:26Z</time>
      </trkpt>
      <trkpt lat="48.52563" lon="-3.41512">
        <ele>159</ele>
        <time>2023-10-30T18:51:43Z</time>
      </trkpt>
      <trkpt lat="48.52572" lon="-3.41419">
        <ele>159</ele>
        <time>2023-10-30T18:53:06Z</time>
      </trkpt>
      <trkpt lat="48.52603" lon="-3.41326">
        <ele>160</ele>
        <time>2023-10-30T18:54:38Z</time>
      </trkpt>
      <trkpt lat="48.52621" lon="-3.41189">
        <ele>164</ele>
        <time>2023-10-30T18:56:42Z</time>
      </trkpt>
      <trkpt lat="48.526" lon="-3.41109">
        <ele>164</ele>
        <time>2023-10-30T18:57:58Z</time>
      </trkpt>
      <trkpt lat="48.52529" lon="-3.41105">
        <ele>160</ele>
        <time>2023-10-30T18:59:33Z</time>
      </trkpt>
      <trkpt lat="48.52485" lon="-3.41091">
        <ele>159</ele>
        <time>2023-10-30T19:00:33Z</time>
      </trkpt>
      <trkpt lat="48.52382" lon="-3.41049">
        <ele>156</ele>
        <time>2023-10-30T19:02:55Z</time>
      </trkpt>
      <trkpt lat="48.52369" lon="-3.41057">
        <ele>155</ele>
        <time>2023-10-30T19:03:14Z</time>
      </trkpt>
      <trkpt lat="48.52319" lon="-3.41008">
        <ele>157</ele>
        <time>2023-10-30T19:04:33Z</time>
      </trkpt>
      <trkpt lat="48.5228" lon="-3.4095">
        <ele>160</ele>
        <time>2023-10-30T19:05:46Z</time>
      </trkpt>
      <trkpt lat="48.5225" lon="-3.40995">
        <ele>159</ele>
        <time>2023-10-30T19:06:43Z</time>
      </trkpt>
      <trkpt lat="48.52201" lon="-3.40972">
        <ele>154</ele>
        <time>2023-10-30T19:07:51Z</time>
      </trkpt>
      <trkpt lat="48.52189" lon="-3.40843">
        <ele>158</ele>
        <time>2023-10-30T19:09:46Z</time>
      </trkpt>
      <trkpt lat="48.52181" lon="-3.40803">
        <ele>158</ele>
        <time>2023-10-30T19:10:23Z</time>
      </trkpt>
      <trkpt lat="48.52185" lon="-3.40695">
        <ele>156</ele>
        <time>2023-10-30T19:11:59Z</time>
      </trkpt>
      <trkpt lat="48.52169" lon="-3.40576">
        <ele>149</ele>
        <time>2023-10-30T19:13:46Z</time>
      </trkpt>
      <trkpt lat="48.52163" lon="-3.4039">
        <ele>131</ele>
        <time>2023-10-30T19:16:31Z</time>
      </trkpt>
      <trkpt lat="48.52183" lon="-3.40388">
        <ele>132</ele>
        <time>2023-10-30T19:16:58Z</time>
      </trkpt>
      <trkpt lat="48.5221" lon="-3.40397">
        <ele>135</ele>
        <time>2023-10-30T19:17:34Z</time>
      </trkpt>
      <trkpt lat="48.52218" lon="-3.40359">
        <ele>133</ele>
        <time>2023-10-30T19:18:10Z</time>
      </trkpt>
      <trkpt lat="48.52187" lon="-3.4033">
        <ele>128</ele>
        <time>2023-10-30T19:18:58Z</time>
      </trkpt>
      <trkpt lat="48.52168" lon="-3.40297">
        <ele>124</ele>
        <time>2023-10-30T19:19:37Z</time>
      </trkpt>
      <trkpt lat="48.52164" lon="-3.40263">
        <ele>121</ele>
        <time>2023-10-30T19:20:07Z</time>
      </trkpt>
      <trkpt lat="48.52148" lon="-3.40222">
        <ele>118</ele>
        <time>2023-10-30T19:20:50Z</time>
      </trkpt>
      <trkpt lat="48.52136" lon="-3.40183">
        <ele>115</ele>
        <time>2023-10-30T19:21:28Z</time>
      </trkpt>
      <trkpt lat="48.52131" lon="-3.40146">
        <ele>111</ele>
        <time>2023-10-30T19:22:01Z</time>
      </trkpt>
      <trkpt lat="48.52083" lon="-3.40147">
        <ele>109</ele>
        <time>2023-10-30T19:23:05Z</time>
      </trkpt>
      <trkpt lat="48.51971" lon="-3.40241">
        <ele>110</ele>
        <time>2023-10-30T19:25:56Z</time>
      </trkpt>
      <trkpt lat="48.51918" lon="-3.40173">
        <ele>104</ele>
        <time>2023-10-30T19:27:29Z</time>
      </trkpt>
      <trkpt lat="48.51912" lon="-3.40132">
        <ele>111</ele>
        <time>2023-10-30T19:28:06Z</time>
      </trkpt>
      <trkpt lat="48.51919" lon="-3.40121">
        <ele>111</ele>
        <time>2023-10-30T19:28:19Z</time>
      </trkpt>
      <trkpt lat="48.51845" lon="-3.40004">
        <ele>140</ele>
        <time>2023-10-30T19:30:42Z</time>
      </trkpt>
      <trkpt lat="48.51794" lon="-3.39952">
        <ele>149</ele>
        <time>2023-10-30T19:32:05Z</time>
      </trkpt>
      <trkpt lat="48.51708" lon="-3.39866">
        <ele>158</ele>
        <time>2023-10-30T19:34:22Z</time>
      </trkpt>
      <trkpt lat="48.51693" lon="-3.3982">
        <ele>159</ele>
        <time>2023-10-30T19:35:08Z</time>
      </trkpt>
      <trkpt lat="48.51679" lon="-3.39699">
        <ele>165</ele>
        <time>2023-10-30T19:36:56Z</time>
      </trkpt>
      <trkpt lat="48.51597" lon="-3.39714">
        <ele>168</ele>
        <time>2023-10-30T19:38:46Z</time>
      </trkpt>
      <trkpt lat="48.51586" lon="-3.39624">
        <ele>169</ele>
        <time>2023-10-30T19:40:07Z</time>
      </trkpt>
      <trkpt lat="48.51587" lon="-3.39544">
        <ele>170</ele>
        <time>2023-10-30T19:41:18Z</time>
      </trkpt>
      <trkpt lat="48.5162" lon="-3.39437">
        <ele>175</ele>
        <time>2023-10-30T19:43:02Z</time>
      </trkpt>
      <trkpt lat="48.5163" lon="-3.39383">
        <ele>178</ele>
        <time>2023-10-30T19:43:52Z</time>
      </trkpt>
      <trkpt lat="48.51628" lon="-3.39337">
        <ele>180</ele>
        <time>2023-10-30T19:44:33Z</time>
      </trkpt>
      <trkpt lat="48.51617" lon="-3.39318">
        <ele>180</ele>
        <time>2023-10-30T19:44:55Z</time>
      </trkpt>
      <trkpt lat="48.516" lon="-3.39314">
        <ele>180</ele>
        <time>2023-10-30T19:45:18Z</time>
      </trkpt>
      <trkpt lat="48.51511" lon="-3.39368">
        <ele>178</ele>
        <time>2023-10-30T19:47:26Z</time>
      </trkpt>
      <trkpt lat="48.51453" lon="-3.39413">
        <ele>181</ele>
        <time>2023-10-30T19:48:53Z</time>
      </trkpt>
      <trkpt lat="48.51398" lon="-3.39427">
        <ele>187</ele>
        <time>2023-10-30T19:50:07Z</time>
      </trkpt>
      <trkpt lat="48.51345" lon="-3.39418">
        <ele>192</ele>
        <time>2023-10-30T19:51:18Z</time>
      </trkpt>
      <trkpt lat="48.51293" lon="-3.39383">
        <ele>196</ele>
        <time>2023-10-30T19:52:34Z</time>
      </trkpt>
      <trkpt lat="48.5124" lon="-3.3933">
        <ele>198</ele>
        <time>2023-10-30T19:53:59Z</time>
      </trkpt>
      <trkpt lat="48.51209" lon="-3.39295">
        <ele>199</ele>
        <time>2023-10-30T19:54:51Z</time>
      </trkpt>
      <trkpt lat="48.51176" lon="-3.39232">
        <ele>199</ele>
        <time>2023-10-30T19:56:02Z</time>
      </trkpt>
      <trkpt lat="48.51149" lon="-3.39165">
        <ele>200</ele>
        <time>2023-10-30T19:57:11Z</time>
      </trkpt>
      <trkpt lat="48.51155" lon="-3.39108">
        <ele>200</ele>
        <time>2023-10-30T19:58:02Z</time>
      </trkpt>
      <trkpt lat="48.51179" lon="-3.39059">
        <ele>199</ele>
        <time>2023-10-30T19:58:56Z</time>
      </trkpt>
      <trkpt lat="48.51196" lon="-3.39023">
        <ele>199</ele>
        <time>2023-10-30T19:59:35Z</time>
      </trkpt>
      <trkpt lat="48.51202" lon="-3.38978">
        <ele>200</ele>
        <time>2023-10-30T20:00:16Z</time>
      </trkpt>
      <trkpt lat="48.51206" lon="-3.38859">
        <ele>198</ele>
        <time>2023-10-30T20:02:01Z</time>
      </trkpt>
      <trkpt lat="48.51228" lon="-3.38659">
        <ele>204</ele>
        <time>2023-10-30T20:05:00Z</time>
      </trkpt>
      <trkpt lat="48.51248" lon="-3.38498">
        <ele>206</ele>
        <time>2023-10-30T20:07:25Z</time>
      </trkpt>
      <trkpt lat="48.51255" lon="-3.38398">
        <ele>205</ele>
        <time>2023-10-30T20:08:54Z</time>
      </trkpt>
      <trkpt lat="48.51251" lon="-3.38291">
        <ele>203</ele>
        <time>2023-10-30T20:10:29Z</time>
      </trkpt>
      <trkpt lat="48.51238" lon="-3.38202">
        <ele>203</ele>
        <time>2023-10-30T20:11:49Z</time>
      </trkpt>
      <trkpt lat="48.51214" lon="-3.38131">
        <ele>205</ele>
        <time>2023-10-30T20:13:00Z</time>
      </trkpt>
      <trkpt lat="48.51172" lon="-3.38062">
        <ele>208</ele>
        <time>2023-10-30T20:14:23Z</time>
      </trkpt>
      <trkpt lat="48.51121" lon="-3.37972">
        <ele>209</ele>
        <time>2023-10-30T20:16:07Z</time>
      </trkpt>
      <trkpt lat="48.51102" lon="-3.37939">
        <ele>208</ele>
        <time>2023-10-30T20:16:46Z</time>
      </trkpt>
      <trkpt lat="48.51064" lon="-3.37892">
        <ele>208</ele>
        <time>2023-10-30T20:17:52Z</time>
      </trkpt>
      <trkpt lat="48.51034" lon="-3.37846">
        <ele>207</ele>
        <time>2023-10-30T20:18:49Z</time>
      </trkpt>
      <trkpt lat="48.51017" lon="-3.378">
        <ele>206</ele>
        <time>2023-10-30T20:19:35Z</time>
      </trkpt>
      <trkpt lat="48.51016" lon="-3.3776">
        <ele>203</ele>
        <time>2023-10-30T20:20:11Z</time>
      </trkpt>
      <trkpt lat="48.5104" lon="-3.37679">
        <ele>199</ele>
        <time>2023-10-30T20:21:29Z</time>
      </trkpt>
      <trkpt lat="48.51072" lon="-3.37698">
        <ele>198</ele>
        <time>2023-10-30T20:22:15Z</time>
      </trkpt>
      <trkpt lat="48.5111" lon="-3.37706">
        <ele>197</ele>
        <time>2023-10-30T20:23:06Z</time>
      </trkpt>
      <trkpt lat="48.51196" lon="-3.37721">
        <ele>195</ele>
        <time>2023-10-30T20:25:02Z</time>
      </trkpt>
      <trkpt lat="48.51299" lon="-3.37746">
        <ele>190</ele>
        <time>2023-10-30T20:27:21Z</time>
      </trkpt>
      <trkpt lat="48.51381" lon="-3.37767">
        <ele>187</ele>
        <time>2023-10-30T20:29:12Z</time>
      </trkpt>
      <trkpt lat="48.51373" lon="-3.37845">
        <ele>184</ele>
        <time>2023-10-30T20:30:22Z</time>
      </trkpt>
      <trkpt lat="48.51428" lon="-3.37876">
        <ele>181</ele>
        <time>2023-10-30T20:31:40Z</time>
      </trkpt>
      <trkpt lat="48.51474" lon="-3.37944">
        <ele>178</ele>
        <time>2023-10-30T20:33:06Z</time>
      </trkpt>
      <trkpt lat="48.51504" lon="-3.37982">
        <ele>174</ele>
        <time>2023-10-30T20:33:58Z</time>
      </trkpt>
      <trkpt lat="48.51573" lon="-3.38355">
        <ele>162</ele>
        <time>2023-10-30T20:39:41Z</time>
      </trkpt>
      <trkpt lat="48.5164" lon="-3.38669">
        <ele>165</ele>
        <time>2023-10-30T20:44:32Z</time>
      </trkpt>
      <trkpt lat="48.5169" lon="-3.38694">
        <ele>165</ele>
        <time>2023-10-30T20:45:42Z</time>
      </trkpt>
      <trkpt lat="48.51749" lon="-3.38749">
        <ele>161</ele>
        <time>2023-10-30T20:47:15Z</time>
      </trkpt>
      <trkpt lat="48.51789" lon="-3.38766">
        <ele>162</ele>
        <time>2023-10-30T20:48:10Z</time>
      </trkpt>
      <trkpt lat="48.51827" lon="-3.38768">
        <ele>160</ele>
        <time>2023-10-30T20:49:01Z</time>
      </trkpt>
      <trkpt lat="48.51882" lon="-3.38777">
        <ele>157</ele>
        <time>2023-10-30T20:50:15Z</time>
      </trkpt>
      <trkpt lat="48.5192" lon="-3.38804">
        <ele>155</ele>
        <time>2023-10-30T20:51:11Z</time>
      </trkpt>
      <trkpt lat="48.51943" lon="-3.3882">
        <ele>154</ele>
        <time>2023-10-30T20:51:45Z</time>
      </trkpt>
      <trkpt lat="48.52092" lon="-3.39032">
        <ele>134</ele>
        <time>2023-10-30T20:56:18Z</time>
      </trkpt>
      <trkpt lat="48.52132" lon="-3.39208">
        <ele>130</ele>
        <time>2023-10-30T20:59:03Z</time>
      </trkpt>
      <trkpt lat="48.52165" lon="-3.39283">
        <ele>126</ele>
        <time>2023-10-30T21:00:22Z</time>
      </trkpt>
      <trkpt lat="48.52193" lon="-3.39375">
        <ele>127</ele>
        <time>2023-10-30T21:01:52Z</time>
      </trkpt>
      <trkpt lat="48.52249" lon="-3.39464">
        <ele>115</ele>
        <time>2023-10-30T21:03:40Z</time>
      </trkpt>
      <trkpt lat="48.5227" lon="-3.39446">
        <ele>114</ele>
        <time>2023-10-30T21:04:12Z</time>
      </trkpt>
      <trkpt lat="48.52308" lon="-3.39438">
        <ele>113</ele>
        <time>2023-10-30T21:05:04Z</time>
      </trkpt>
      <trkpt lat="48.52371" lon="-3.39548">
        <ele>110</ele>
        <time>2023-10-30T21:07:12Z</time>
      </trkpt>
      <trkpt lat="48.5241" lon="-3.3959">
        <ele>109</ele>
        <time>2023-10-30T21:08:16Z</time>
      </trkpt>
      <trkpt lat="48.52459" lon="-3.39578">
        <ele>109</ele>
        <time>2023-10-30T21:09:22Z</time>
      </trkpt>
      <trkpt lat="48.52643" lon="-3.39306">
        <ele>112</ele>
        <time>2023-10-30T21:15:06Z</time>
      </trkpt>
      <trkpt lat="48.52646" lon="-3.39277">
        <ele>115</ele>
        <time>2023-10-30T21:15:32Z</time>
      </trkpt>
      <trkpt lat="48.52685" lon="-3.39216">
        <ele>117</ele>
        <time>2023-10-30T21:16:47Z</time>
      </trkpt>
      <trkpt lat="48.52706" lon="-3.39088">
        <ele>123</ele>
        <time>2023-10-30T21:18:43Z</time>
      </trkpt>
      <trkpt lat="48.52725" lon="-3.39037">
        <ele>124</ele>
        <time>2023-10-30T21:19:35Z</time>
      </trkpt>
      <trkpt lat="48.52726" lon="-3.38928">
        <ele>131</ele>
        <time>2023-10-30T21:21:11Z</time>
      </trkpt>
      <trkpt lat="48.52746" lon="-3.389">
        <ele>130</ele>
        <time>2023-10-30T21:21:48Z</time>
      </trkpt>
      <trkpt lat="48.52773" lon="-3.38821">
        <ele>135</ele>
        <time>2023-10-30T21:23:06Z</time>
      </trkpt>
      <trkpt lat="48.52793" lon="-3.38809">
        <ele>137</ele>
        <time>2023-10-30T21:23:35Z</time>
      </trkpt>
      <trkpt lat="48.52824" lon="-3.38816">
        <ele>138</ele>
        <time>2023-10-30T21:24:17Z</time>
      </trkpt>
      <trkpt lat="48.52854" lon="-3.38773">
        <ele>144</ele>
        <time>2023-10-30T21:25:12Z</time>
      </trkpt>
      <trkpt lat="48.52896" lon="-3.38775">
        <ele>147</ele>
        <time>2023-10-30T21:26:08Z</time>
      </trkpt>
      <trkpt lat="48.52917" lon="-3.38746">
        <ele>150</ele>
        <time>2023-10-30T21:26:46Z</time>
      </trkpt>
      <trkpt lat="48.52958" lon="-3.3876">
        <ele>151</ele>
        <time>2023-10-30T21:27:42Z</time>
      </trkpt>
      <trkpt lat="48.5301" lon="-3.3876">
        <ele>153</ele>
        <time>2023-10-30T21:28:52Z</time>
      </trkpt>
      <trkpt lat="48.53017" lon="-3.38784">
        <ele>151</ele>
        <time>2023-10-30T21:29:15Z</time>
      </trkpt>
      <trkpt lat="48.53037" lon="-3.38794">
        <ele>151</ele>
        <time>2023-10-30T21:29:43Z</time>
      </trkpt>
      <trkpt lat="48.5309" lon="-3.38802">
        <ele>153</ele>
        <time>2023-10-30T21:30:54Z</time>
      </trkpt>
      <trkpt lat="48.53121" lon="-3.38826">
        <ele>153</ele>
        <time>2023-10-30T21:31:40Z</time>
      </trkpt>
      <trkpt lat="48.53158" lon="-3.38835">
        <ele>153</ele>
        <time>2023-10-30T21:32:30Z</time>
      </trkpt>
      <trkpt lat="48.53181" lon="-3.3867">
        <ele>163</ele>
        <time>2023-10-30T21:34:59Z</time>
      </trkpt>
      <trkpt lat="48.53214" lon="-3.38658">
        <ele>163</ele>
        <time>2023-10-30T21:35:45Z</time>
      </trkpt>
      <trkpt lat="48.53224" lon="-3.38639">
        <ele>164</ele>
        <time>2023-10-30T21:36:06Z</time>
      </trkpt>
      <trkpt lat="48.53143" lon="-3.38556">
        <ele>169</ele>
        <time>2023-10-30T21:38:17Z</time>
      </trkpt>
      <trkpt lat="48.52987" lon="-3.3845">
        <ele>168</ele>
        <time>2023-10-30T21:42:05Z</time>
      </trkpt>
      <trkpt lat="48.5299" lon="-3.38441">
        <ele>169</ele>
        <time>2023-10-30T21:42:14Z</time>
      </trkpt>
      <trkpt lat="48.5315" lon="-3.38553">
        <ele>169</ele>
        <time>2023-10-30T21:46:09Z</time>
      </trkpt>
      <trkpt lat="48.53224" lon="-3.3863">
        <ele>165</ele>
        <time>2023-10-30T21:48:09Z</time>
      </trkpt>
      <trkpt lat="48.5327" lon="-3.38669">
        <ele>161</ele>
        <time>2023-10-30T21:49:20Z</time>
      </trkpt>
      <trkpt lat="48.53323" lon="-3.38681">
        <ele>157</ele>
        <time>2023-10-30T21:50:31Z</time>
      </trkpt>
      <trkpt lat="48.53331" lon="-3.38634">
        <ele>159</ele>
        <time>2023-10-30T21:51:14Z</time>
      </trkpt>
      <trkpt lat="48.53347" lon="-3.38596">
        <ele>161</ele>
        <time>2023-10-30T21:51:54Z</time>
      </trkpt>
      <trkpt lat="48.53428" lon="-3.38556">
        <ele>156</ele>
        <time>2023-10-30T21:53:48Z</time>
      </trkpt>
      <trkpt lat="48.53518" lon="-3.38549">
        <ele>149</ele>
        <time>2023-10-30T21:55:48Z</time>
      </trkpt>
      <trkpt lat="48.53668" lon="-3.38517">
        <ele>146</ele>
        <time>2023-10-30T21:59:10Z</time>
      </trkpt>
      <trkpt lat="48.53743" lon="-3.38527">
        <ele>143</ele>
        <time>2023-10-30T22:00:50Z</time>
      </trkpt>
      <trkpt lat="48.53787" lon="-3.38523">
        <ele>139</ele>
        <time>2023-10-30T22:01:49Z</time>
      </trkpt>
      <trkpt lat="48.53828" lon="-3.38493">
        <ele>137</ele>
        <time>2023-10-30T22:02:50Z</time>
      </trkpt>
      <trkpt lat="48.53985" lon="-3.383">
        <ele>127</ele>
        <time>2023-10-30T22:07:20Z</time>
      </trkpt>
      <trkpt lat="48.54028" lon="-3.38332">
        <ele>121</ele>
        <time>2023-10-30T22:08:24Z</time>
      </trkpt>
      <trkpt lat="48.54083" lon="-3.38367">
        <ele>112</ele>
        <time>2023-10-30T22:09:44Z</time>
      </trkpt>
      <trkpt lat="48.541" lon="-3.38332">
        <ele>111</ele>
        <time>2023-10-30T22:10:22Z</time>
      </trkpt>
      <trkpt lat="48.5411" lon="-3.38273">
        <ele>110</ele>
        <time>2023-10-30T22:11:16Z</time>
      </trkpt>
      <trkpt lat="48.5413" lon="-3.38255">
        <ele>107</ele>
        <time>2023-10-30T22:11:47Z</time>
      </trkpt>
      <trkpt lat="48.54132" lon="-3.38309">
        <ele>106</ele>
        <time>2023-10-30T22:12:35Z</time>
      </trkpt>
      <trkpt lat="48.54119" lon="-3.38392">
        <ele>107</ele>
        <time>2023-10-30T22:13:50Z</time>
      </trkpt>
      <trkpt lat="48.54061" lon="-3.38691">
        <ele>106</ele>
        <time>2023-10-30T22:18:25Z</time>
      </trkpt>
      <trkpt lat="48.54073" lon="-3.38817">
        <ele>108</ele>
        <time>2023-10-30T22:20:18Z</time>
      </trkpt>
      <trkpt lat="48.54092" lon="-3.38929">
        <ele>114</ele>
        <time>2023-10-30T22:22:00Z</time>
      </trkpt>
      <trkpt lat="48.5414" lon="-3.39042">
        <ele>110</ele>
        <time>2023-10-30T22:23:59Z</time>
      </trkpt>
      <trkpt lat="48.54154" lon="-3.39149">
        <ele>108</ele>
        <time>2023-10-30T22:25:35Z</time>
      </trkpt>
      <trkpt lat="48.54156" lon="-3.39235">
        <ele>109</ele>
        <time>2023-10-30T22:26:51Z</time>
      </trkpt>
      <trkpt lat="48.54163" lon="-3.39281">
        <ele>108</ele>
        <time>2023-10-30T22:27:33Z</time>
      </trkpt>
      <trkpt lat="48.54178" lon="-3.39319">
        <ele>106</ele>
        <time>2023-10-30T22:28:12Z</time>
      </trkpt>
      <trkpt lat="48.54181" lon="-3.39391">
        <ele>108</ele>
        <time>2023-10-30T22:29:16Z</time>
      </trkpt>
      <trkpt lat="48.542" lon="-3.39448">
        <ele>107</ele>
        <time>2023-10-30T22:30:12Z</time>
      </trkpt>
      <trkpt lat="48.54265" lon="-3.39535">
        <ele>99</ele>
        <time>2023-10-30T22:32:08Z</time>
      </trkpt>
      <trkpt lat="48.54273" lon="-3.39577">
        <ele>99</ele>
        <time>2023-10-30T22:32:47Z</time>
      </trkpt>
      <trkpt lat="48.54375" lon="-3.39578">
        <ele>95</ele>
        <time>2023-10-30T22:35:03Z</time>
      </trkpt>
      <trkpt lat="48.54402" lon="-3.39519">
        <ele>94</ele>
        <time>2023-10-30T22:36:06Z</time>
      </trkpt>
      <trkpt lat="48.54426" lon="-3.39507">
        <ele>94</ele>
        <time>2023-10-30T22:36:40Z</time>
      </trkpt>
      <trkpt lat="48.54434" lon="-3.39489">
        <ele>94</ele>
        <time>2023-10-30T22:36:59Z</time>
      </trkpt>
      <trkpt lat="48.54455" lon="-3.39492">
        <ele>94</ele>
        <time>2023-10-30T22:37:27Z</time>
      </trkpt>
      <trkpt lat="48.54477" lon="-3.39503">
        <ele>94</ele>
        <time>2023-10-30T22:37:58Z</time>
      </trkpt>
      <trkpt lat="48.54493" lon="-3.39447">
        <ele>95</ele>
        <time>2023-10-30T22:38:52Z</time>
      </trkpt>
      <trkpt lat="48.5452" lon="-3.39559">
        <ele>93</ele>
        <time>2023-10-30T22:40:37Z</time>
      </trkpt>
      <trkpt lat="48.54529" lon="-3.39555">
        <ele>93</ele>
        <time>2023-10-30T22:40:50Z</time>
      </trkpt>
    </trkseg>
  </trk>
  <trk>
    <name><![CDATA[BIET_CoatAnNoz_18.4km-9223892]]></name>
    <extensions>
      <line xmlns="http://www.topografix.com/GPX/gpx_style/0/2">
        <color>00FF00</color>
        <width>4</width>
      </line>
    </extensions>
    <trkseg>
      <trkpt lat="48.54411" lon="-3.39635">
        <ele>93</ele>
        <time>2023-10-30T17:44:30Z</time>
      </trkpt>
      <trkpt lat="48.54417" lon="-3.39772">
        <ele>96</ele>
        <time>2023-10-30T17:46:31Z</time>
      </trkpt>
      <trkpt lat="48.54252" lon="-3.39798">
        <ele>101</ele>
        <time>2023-10-30T17:50:13Z</time>
      </trkpt>
      <trkpt lat="48.54142" lon="-3.39794">
        <ele>103</ele>
        <time>2023-10-30T17:52:40Z</time>
      </trkpt>
      <trkpt lat="48.5398" lon="-3.39815">
        <ele>104</ele>
        <time>2023-10-30T17:56:16Z</time>
      </trkpt>
      <trkpt lat="48.53874" lon="-3.39933">
        <ele>114</ele>
        <time>2023-10-30T17:59:12Z</time>
      </trkpt>
      <trkpt lat="48.53798" lon="-3.39978">
        <ele>121</ele>
        <time>2023-10-30T18:01:01Z</time>
      </trkpt>
      <trkpt lat="48.53764" lon="-3.40124">
        <ele>129</ele>
        <time>2023-10-30T18:03:18Z</time>
      </trkpt>
      <trkpt lat="48.53712" lon="-3.4009">
        <ele>135</ele>
        <time>2023-10-30T18:04:34Z</time>
      </trkpt>
      <trkpt lat="48.53667" lon="-3.40188">
        <ele>140</ele>
        <time>2023-10-30T18:06:19Z</time>
      </trkpt>
      <trkpt lat="48.53585" lon="-3.40091">
        <ele>144</ele>
        <time>2023-10-30T18:08:38Z</time>
      </trkpt>
      <trkpt lat="48.53403" lon="-3.40392">
        <ele>156</ele>
        <time>2023-10-30T18:14:38Z</time>
      </trkpt>
      <trkpt lat="48.53278" lon="-3.40632">
        <ele>165</ele>
        <time>2023-10-30T18:19:08Z</time>
      </trkpt>
      <trkpt lat="48.53051" lon="-3.41214">
        <ele>170</ele>
        <time>2023-10-30T18:29:05Z</time>
      </trkpt>
      <trkpt lat="48.5305" lon="-3.41373">
        <ele>171</ele>
        <time>2023-10-30T18:31:25Z</time>
      </trkpt>
      <trkpt lat="48.5303" lon="-3.41522">
        <ele>172</ele>
        <time>2023-10-30T18:33:40Z</time>
      </trkpt>
      <trkpt lat="48.52947" lon="-3.41559">
        <ele>173</ele>
        <time>2023-10-30T18:35:35Z</time>
      </trkpt>
      <trkpt lat="48.52945" lon="-3.41581">
        <ele>174</ele>
        <time>2023-10-30T18:35:55Z</time>
      </trkpt>
      <trkpt lat="48.52948" lon="-3.4167">
        <ele>174</ele>
        <time>2023-10-30T18:37:14Z</time>
      </trkpt>
      <trkpt lat="48.52558" lon="-3.41525">
        <ele>159</ele>
        <time>2023-10-30T18:46:09Z</time>
      </trkpt>
      <trkpt lat="48.52568" lon="-3.41388">
        <ele>158</ele>
        <time>2023-10-30T18:48:11Z</time>
      </trkpt>
      <trkpt lat="48.52625" lon="-3.41273">
        <ele>163</ele>
        <time>2023-10-30T18:50:18Z</time>
      </trkpt>
      <trkpt lat="48.52595" lon="-3.41138">
        <ele>163</ele>
        <time>2023-10-30T18:52:24Z</time>
      </trkpt>
      <trkpt lat="48.52382" lon="-3.41076">
        <ele>154</ele>
        <time>2023-10-30T18:57:14Z</time>
      </trkpt>
      <trkpt lat="48.52284" lon="-3.40959">
        <ele>160</ele>
        <time>2023-10-30T19:00:00Z</time>
      </trkpt>
      <trkpt lat="48.52247" lon="-3.41">
        <ele>159</ele>
        <time>2023-10-30T19:01:02Z</time>
      </trkpt>
      <trkpt lat="48.52183" lon="-3.40964">
        <ele>153</ele>
        <time>2023-10-30T19:02:33Z</time>
      </trkpt>
      <trkpt lat="48.52152" lon="-3.40387">
        <ele>130</ele>
        <time>2023-10-30T19:11:04Z</time>
      </trkpt>
      <trkpt lat="48.52217" lon="-3.40377">
        <ele>134</ele>
        <time>2023-10-30T19:12:32Z</time>
      </trkpt>
      <trkpt lat="48.52122" lon="-3.40153">
        <ele>112</ele>
        <time>2023-10-30T19:16:27Z</time>
      </trkpt>
      <trkpt lat="48.5196" lon="-3.40239">
        <ele>109</ele>
        <time>2023-10-30T19:20:16Z</time>
      </trkpt>
      <trkpt lat="48.51902" lon="-3.40132">
        <ele>115</ele>
        <time>2023-10-30T19:22:18Z</time>
      </trkpt>
      <trkpt lat="48.51696" lon="-3.39851">
        <ele>158</ele>
        <time>2023-10-30T19:28:28Z</time>
      </trkpt>
      <trkpt lat="48.51672" lon="-3.39714">
        <ele>164</ele>
        <time>2023-10-30T19:30:34Z</time>
      </trkpt>
      <trkpt lat="48.51601" lon="-3.39719">
        <ele>168</ele>
        <time>2023-10-30T19:32:09Z</time>
      </trkpt>
      <trkpt lat="48.51595" lon="-3.3955">
        <ele>170</ele>
        <time>2023-10-30T19:34:38Z</time>
      </trkpt>
      <trkpt lat="48.51639" lon="-3.39336">
        <ele>180</ele>
        <time>2023-10-30T19:37:56Z</time>
      </trkpt>
      <trkpt lat="48.5173" lon="-3.39316">
        <ele>180</ele>
        <time>2023-10-30T19:39:59Z</time>
      </trkpt>
      <trkpt lat="48.51754" lon="-3.39203">
        <ele>183</ele>
        <time>2023-10-30T19:41:44Z</time>
      </trkpt>
      <trkpt lat="48.51875" lon="-3.39193">
        <ele>183</ele>
        <time>2023-10-30T19:44:26Z</time>
      </trkpt>
      <trkpt lat="48.52041" lon="-3.39324">
        <ele>157</ele>
        <time>2023-10-30T19:48:36Z</time>
      </trkpt>
      <trkpt lat="48.52217" lon="-3.39566">
        <ele>125</ele>
        <time>2023-10-30T19:53:53Z</time>
      </trkpt>
      <trkpt lat="48.52247" lon="-3.39453">
        <ele>116</ele>
        <time>2023-10-30T19:55:41Z</time>
      </trkpt>
      <trkpt lat="48.52129" lon="-3.39265">
        <ele>134</ele>
        <time>2023-10-30T19:59:30Z</time>
      </trkpt>
      <trkpt lat="48.52092" lon="-3.3904">
        <ele>134</ele>
        <time>2023-10-30T20:02:55Z</time>
      </trkpt>
      <trkpt lat="48.51916" lon="-3.38785">
        <ele>154</ele>
        <time>2023-10-30T20:08:20Z</time>
      </trkpt>
      <trkpt lat="48.51649" lon="-3.38678">
        <ele>166</ele>
        <time>2023-10-30T20:14:29Z</time>
      </trkpt>
      <trkpt lat="48.51514" lon="-3.37989">
        <ele>172</ele>
        <time>2023-10-30T20:25:04Z</time>
      </trkpt>
      <trkpt lat="48.51375" lon="-3.37846">
        <ele>184</ele>
        <time>2023-10-30T20:28:48Z</time>
      </trkpt>
      <trkpt lat="48.51439" lon="-3.37529">
        <ele>203</ele>
        <time>2023-10-30T20:33:41Z</time>
      </trkpt>
      <trkpt lat="48.51192" lon="-3.37412">
        <ele>220</ele>
        <time>2023-10-30T20:39:27Z</time>
      </trkpt>
      <trkpt lat="48.51162" lon="-3.37519">
        <ele>213</ele>
        <time>2023-10-30T20:41:10Z</time>
      </trkpt>
      <trkpt lat="48.51081" lon="-3.37463">
        <ele>218</ele>
        <time>2023-10-30T20:43:08Z</time>
      </trkpt>
      <trkpt lat="48.51057" lon="-3.37213">
        <ele>229</ele>
        <time>2023-10-30T20:46:52Z</time>
      </trkpt>
      <trkpt lat="48.51246" lon="-3.36468">
        <ele>261</ele>
        <time>2023-10-30T20:58:37Z</time>
      </trkpt>
      <trkpt lat="48.51257" lon="-3.35764">
        <ele>185</ele>
        <time>2023-10-30T21:09:00Z</time>
      </trkpt>
      <trkpt lat="48.51267" lon="-3.35268">
        <ele>148</ele>
        <time>2023-10-30T21:16:18Z</time>
      </trkpt>
      <trkpt lat="48.51645" lon="-3.35381">
        <ele>142</ele>
        <time>2023-10-30T21:24:52Z</time>
      </trkpt>
      <trkpt lat="48.51929" lon="-3.35457">
        <ele>137</ele>
        <time>2023-10-30T21:31:17Z</time>
      </trkpt>
      <trkpt lat="48.51906" lon="-3.35595">
        <ele>141</ele>
        <time>2023-10-30T21:33:23Z</time>
      </trkpt>
      <trkpt lat="48.51936" lon="-3.35692">
        <ele>145</ele>
        <time>2023-10-30T21:34:58Z</time>
      </trkpt>
      <trkpt lat="48.51967" lon="-3.35891">
        <ele>150</ele>
        <time>2023-10-30T21:37:58Z</time>
      </trkpt>
      <trkpt lat="48.52085" lon="-3.35968">
        <ele>145</ele>
        <time>2023-10-30T21:40:50Z</time>
      </trkpt>
      <trkpt lat="48.52078" lon="-3.35718">
        <ele>139</ele>
        <time>2023-10-30T21:44:31Z</time>
      </trkpt>
      <trkpt lat="48.52108" lon="-3.356">
        <ele>136</ele>
        <time>2023-10-30T21:46:23Z</time>
      </trkpt>
      <trkpt lat="48.52204" lon="-3.35738">
        <ele>135</ele>
        <time>2023-10-30T21:49:20Z</time>
      </trkpt>
      <trkpt lat="48.52195" lon="-3.35873">
        <ele>137</ele>
        <time>2023-10-30T21:51:20Z</time>
      </trkpt>
      <trkpt lat="48.52267" lon="-3.35995">
        <ele>139</ele>
        <time>2023-10-30T21:53:44Z</time>
      </trkpt>
      <trkpt lat="48.52503" lon="-3.35931">
        <ele>138</ele>
        <time>2023-10-30T21:59:04Z</time>
      </trkpt>
      <trkpt lat="48.52583" lon="-3.35941">
        <ele>136</ele>
        <time>2023-10-30T22:00:51Z</time>
      </trkpt>
      <trkpt lat="48.52591" lon="-3.36092">
        <ele>138</ele>
        <time>2023-10-30T22:03:05Z</time>
      </trkpt>
      <trkpt lat="48.52565" lon="-3.3624">
        <ele>145</ele>
        <time>2023-10-30T22:05:20Z</time>
      </trkpt>
      <trkpt lat="48.52614" lon="-3.36324">
        <ele>135</ele>
        <time>2023-10-30T22:06:59Z</time>
      </trkpt>
      <trkpt lat="48.52638" lon="-3.36428">
        <ele>133</ele>
        <time>2023-10-30T22:08:37Z</time>
      </trkpt>
      <trkpt lat="48.52553" lon="-3.36613">
        <ele>143</ele>
        <time>2023-10-30T22:11:56Z</time>
      </trkpt>
      <trkpt lat="48.52564" lon="-3.36826">
        <ele>156</ele>
        <time>2023-10-30T22:15:05Z</time>
      </trkpt>
      <trkpt lat="48.52512" lon="-3.36966">
        <ele>172</ele>
        <time>2023-10-30T22:17:26Z</time>
      </trkpt>
      <trkpt lat="48.52523" lon="-3.37067">
        <ele>180</ele>
        <time>2023-10-30T22:18:57Z</time>
      </trkpt>
      <trkpt lat="48.52499" lon="-3.37151">
        <ele>187</ele>
        <time>2023-10-30T22:20:18Z</time>
      </trkpt>
      <trkpt lat="48.52556" lon="-3.37259">
        <ele>186</ele>
        <time>2023-10-30T22:22:20Z</time>
      </trkpt>
      <trkpt lat="48.5259" lon="-3.37437">
        <ele>190</ele>
        <time>2023-10-30T22:25:03Z</time>
      </trkpt>
      <trkpt lat="48.52701" lon="-3.37478">
        <ele>177</ele>
        <time>2023-10-30T22:27:36Z</time>
      </trkpt>
      <trkpt lat="48.52698" lon="-3.37677">
        <ele>185</ele>
        <time>2023-10-30T22:30:32Z</time>
      </trkpt>
      <trkpt lat="48.52823" lon="-3.37825">
        <ele>181</ele>
        <time>2023-10-30T22:34:04Z</time>
      </trkpt>
      <trkpt lat="48.53036" lon="-3.38055">
        <ele>176</ele>
        <time>2023-10-30T22:39:53Z</time>
      </trkpt>
      <trkpt lat="48.53218" lon="-3.38172">
        <ele>181</ele>
        <time>2023-10-30T22:44:17Z</time>
      </trkpt>
      <trkpt lat="48.53293" lon="-3.38065">
        <ele>174</ele>
        <time>2023-10-30T22:46:35Z</time>
      </trkpt>
      <trkpt lat="48.53326" lon="-3.3804">
        <ele>172</ele>
        <time>2023-10-30T22:47:24Z</time>
      </trkpt>
      <trkpt lat="48.53414" lon="-3.38096">
        <ele>166</ele>
        <time>2023-10-30T22:49:32Z</time>
      </trkpt>
      <trkpt lat="48.53424" lon="-3.38198">
        <ele>165</ele>
        <time>2023-10-30T22:51:03Z</time>
      </trkpt>
      <trkpt lat="48.53485" lon="-3.38264">
        <ele>154</ele>
        <time>2023-10-30T22:52:43Z</time>
      </trkpt>
      <trkpt lat="48.53485" lon="-3.38387">
        <ele>152</ele>
        <time>2023-10-30T22:54:32Z</time>
      </trkpt>
      <trkpt lat="48.5362" lon="-3.38453">
        <ele>145</ele>
        <time>2023-10-30T22:57:41Z</time>
      </trkpt>
      <trkpt lat="48.53664" lon="-3.3853">
        <ele>146</ele>
        <time>2023-10-30T22:59:11Z</time>
      </trkpt>
      <trkpt lat="48.5338" lon="-3.3857">
        <ele>159</ele>
        <time>2023-10-30T23:05:31Z</time>
      </trkpt>
      <trkpt lat="48.53333" lon="-3.38673">
        <ele>157</ele>
        <time>2023-10-30T23:07:22Z</time>
      </trkpt>
      <trkpt lat="48.53228" lon="-3.38652">
        <ele>163</ele>
        <time>2023-10-30T23:09:43Z</time>
      </trkpt>
      <trkpt lat="48.53178" lon="-3.38693">
        <ele>161</ele>
        <time>2023-10-30T23:10:59Z</time>
      </trkpt>
      <trkpt lat="48.53157" lon="-3.38831">
        <ele>153</ele>
        <time>2023-10-30T23:13:04Z</time>
      </trkpt>
      <trkpt lat="48.53178" lon="-3.38938">
        <ele>146</ele>
        <time>2023-10-30T23:14:43Z</time>
      </trkpt>
      <trkpt lat="48.53164" lon="-3.39157">
        <ele>135</ele>
        <time>2023-10-30T23:17:57Z</time>
      </trkpt>
      <trkpt lat="48.53435" lon="-3.38994">
        <ele>131</ele>
        <time>2023-10-30T23:24:27Z</time>
      </trkpt>
      <trkpt lat="48.53816" lon="-3.39127">
        <ele>131</ele>
        <time>2023-10-30T23:33:09Z</time>
      </trkpt>
      <trkpt lat="48.53906" lon="-3.39252">
        <ele>129</ele>
        <time>2023-10-30T23:35:52Z</time>
      </trkpt>
      <trkpt lat="48.5403" lon="-3.39381">
        <ele>122</ele>
        <time>2023-10-30T23:39:13Z</time>
      </trkpt>
      <trkpt lat="48.54251" lon="-3.39563">
        <ele>100</ele>
        <time>2023-10-30T23:44:49Z</time>
      </trkpt>
      <trkpt lat="48.54377" lon="-3.39581">
        <ele>95</ele>
        <time>2023-10-30T23:47:37Z</time>
      </trkpt>
      <trkpt lat="48.54415" lon="-3.3962">
        <ele>94</ele>
        <time>2023-10-30T23:48:39Z</time>
      </trkpt>
    </trkseg>
  </trk>
  <trk>
    <name><![CDATA[BIET_CoatAnNoz_22.3km-9307726]]></name>
    <extensions>
      <line xmlns="http://www.topografix.com/GPX/gpx_style/0/2">
        <color>FF0000</color>
        <width>4</width>
      </line>
    </extensions>
    <trkseg>
      <trkpt lat="48.54586" lon="-3.39624">
        <ele>91</ele>
        <time>2023-10-30T17:44:07Z</time>
      </trkpt>
      <trkpt lat="48.54583" lon="-3.39628">
        <ele>91</ele>
        <time>2023-10-30T17:44:12Z</time>
      </trkpt>
      <trkpt lat="48.54565" lon="-3.39626">
        <ele>91</ele>
        <time>2023-10-30T17:44:36Z</time>
      </trkpt>
      <trkpt lat="48.54547" lon="-3.39622">
        <ele>92</ele>
        <time>2023-10-30T17:45:01Z</time>
      </trkpt>
      <trkpt lat="48.54536" lon="-3.39617">
        <ele>92</ele>
        <time>2023-10-30T17:45:16Z</time>
      </trkpt>
      <trkpt lat="48.54517" lon="-3.39587">
        <ele>93</ele>
        <time>2023-10-30T17:45:53Z</time>
      </trkpt>
      <trkpt lat="48.54496" lon="-3.39593">
        <ele>94</ele>
        <time>2023-10-30T17:46:21Z</time>
      </trkpt>
      <trkpt lat="48.54481" lon="-3.39585">
        <ele>94</ele>
        <time>2023-10-30T17:46:42Z</time>
      </trkpt>
      <trkpt lat="48.54476" lon="-3.39586">
        <ele>94</ele>
        <time>2023-10-30T17:46:49Z</time>
      </trkpt>
      <trkpt lat="48.54468" lon="-3.39599">
        <ele>94</ele>
        <time>2023-10-30T17:47:05Z</time>
      </trkpt>
      <trkpt lat="48.54461" lon="-3.39603">
        <ele>94</ele>
        <time>2023-10-30T17:47:15Z</time>
      </trkpt>
      <trkpt lat="48.54443" lon="-3.39609">
        <ele>94</ele>
        <time>2023-10-30T17:47:39Z</time>
      </trkpt>
      <trkpt lat="48.54429" lon="-3.39609">
        <ele>94</ele>
        <time>2023-10-30T17:47:58Z</time>
      </trkpt>
      <trkpt lat="48.54424" lon="-3.39612">
        <ele>94</ele>
        <time>2023-10-30T17:48:05Z</time>
      </trkpt>
      <trkpt lat="48.54418" lon="-3.39631">
        <ele>93</ele>
        <time>2023-10-30T17:48:24Z</time>
      </trkpt>
      <trkpt lat="48.54418" lon="-3.39684">
        <ele>92</ele>
        <time>2023-10-30T17:49:11Z</time>
      </trkpt>
      <trkpt lat="48.54413" lon="-3.39724">
        <ele>93</ele>
        <time>2023-10-30T17:49:47Z</time>
      </trkpt>
      <trkpt lat="48.54416" lon="-3.39744">
        <ele>94</ele>
        <time>2023-10-30T17:50:05Z</time>
      </trkpt>
      <trkpt lat="48.54412" lon="-3.39749">
        <ele>94</ele>
        <time>2023-10-30T17:50:12Z</time>
      </trkpt>
      <trkpt lat="48.54392" lon="-3.39754">
        <ele>95</ele>
        <time>2023-10-30T17:50:39Z</time>
      </trkpt>
      <trkpt lat="48.54371" lon="-3.39764">
        <ele>96</ele>
        <time>2023-10-30T17:51:08Z</time>
      </trkpt>
      <trkpt lat="48.54357" lon="-3.39763">
        <ele>96</ele>
        <time>2023-10-30T17:51:27Z</time>
      </trkpt>
      <trkpt lat="48.54352" lon="-3.39767">
        <ele>97</ele>
        <time>2023-10-30T17:51:34Z</time>
      </trkpt>
      <trkpt lat="48.54346" lon="-3.39768">
        <ele>97</ele>
        <time>2023-10-30T17:51:42Z</time>
      </trkpt>
      <trkpt lat="48.54321" lon="-3.39788">
        <ele>100</ele>
        <time>2023-10-30T17:52:20Z</time>
      </trkpt>
      <trkpt lat="48.54307" lon="-3.39787">
        <ele>100</ele>
        <time>2023-10-30T17:52:39Z</time>
      </trkpt>
      <trkpt lat="48.54297" lon="-3.39794">
        <ele>101</ele>
        <time>2023-10-30T17:52:54Z</time>
      </trkpt>
      <trkpt lat="48.54273" lon="-3.39802">
        <ele>101</ele>
        <time>2023-10-30T17:53:26Z</time>
      </trkpt>
      <trkpt lat="48.54259" lon="-3.39798">
        <ele>101</ele>
        <time>2023-10-30T17:53:45Z</time>
      </trkpt>
      <trkpt lat="48.54251" lon="-3.3979">
        <ele>100</ele>
        <time>2023-10-30T17:53:58Z</time>
      </trkpt>
      <trkpt lat="48.54238" lon="-3.39792">
        <ele>100</ele>
        <time>2023-10-30T17:54:16Z</time>
      </trkpt>
      <trkpt lat="48.54181" lon="-3.39812">
        <ele>104</ele>
        <time>2023-10-30T17:55:34Z</time>
      </trkpt>
      <trkpt lat="48.54127" lon="-3.39794">
        <ele>103</ele>
        <time>2023-10-30T17:56:48Z</time>
      </trkpt>
      <trkpt lat="48.54019" lon="-3.39793">
        <ele>103</ele>
        <time>2023-10-30T17:59:12Z</time>
      </trkpt>
      <trkpt lat="48.53995" lon="-3.39802">
        <ele>104</ele>
        <time>2023-10-30T17:59:45Z</time>
      </trkpt>
      <trkpt lat="48.53974" lon="-3.39805">
        <ele>103</ele>
        <time>2023-10-30T18:00:13Z</time>
      </trkpt>
      <trkpt lat="48.53953" lon="-3.39816">
        <ele>102</ele>
        <time>2023-10-30T18:00:43Z</time>
      </trkpt>
      <trkpt lat="48.53931" lon="-3.39838">
        <ele>102</ele>
        <time>2023-10-30T18:01:18Z</time>
      </trkpt>
      <trkpt lat="48.53882" lon="-3.39911">
        <ele>112</ele>
        <time>2023-10-30T18:02:50Z</time>
      </trkpt>
      <trkpt lat="48.53868" lon="-3.39925">
        <ele>114</ele>
        <time>2023-10-30T18:03:12Z</time>
      </trkpt>
      <trkpt lat="48.53864" lon="-3.39941">
        <ele>115</ele>
        <time>2023-10-30T18:03:27Z</time>
      </trkpt>
      <trkpt lat="48.53856" lon="-3.39952">
        <ele>116</ele>
        <time>2023-10-30T18:03:42Z</time>
      </trkpt>
      <trkpt lat="48.53829" lon="-3.39966">
        <ele>117</ele>
        <time>2023-10-30T18:04:20Z</time>
      </trkpt>
      <trkpt lat="48.53815" lon="-3.39968">
        <ele>119</ele>
        <time>2023-10-30T18:04:38Z</time>
      </trkpt>
      <trkpt lat="48.53792" lon="-3.39981">
        <ele>122</ele>
        <time>2023-10-30T18:05:11Z</time>
      </trkpt>
      <trkpt lat="48.53791" lon="-3.40004">
        <ele>122</ele>
        <time>2023-10-30T18:05:32Z</time>
      </trkpt>
      <trkpt lat="48.53794" lon="-3.40032">
        <ele>122</ele>
        <time>2023-10-30T18:05:57Z</time>
      </trkpt>
      <trkpt lat="48.5379" lon="-3.40061">
        <ele>123</ele>
        <time>2023-10-30T18:06:23Z</time>
      </trkpt>
      <trkpt lat="48.53772" lon="-3.40114">
        <ele>127</ele>
        <time>2023-10-30T18:07:15Z</time>
      </trkpt>
      <trkpt lat="48.53763" lon="-3.40115">
        <ele>129</ele>
        <time>2023-10-30T18:07:27Z</time>
      </trkpt>
      <trkpt lat="48.53737" lon="-3.40092">
        <ele>133</ele>
        <time>2023-10-30T18:08:08Z</time>
      </trkpt>
      <trkpt lat="48.53726" lon="-3.40088">
        <ele>134</ele>
        <time>2023-10-30T18:08:23Z</time>
      </trkpt>
      <trkpt lat="48.53694" lon="-3.40114">
        <ele>137</ele>
        <time>2023-10-30T18:09:11Z</time>
      </trkpt>
      <trkpt lat="48.53673" lon="-3.40155">
        <ele>139</ele>
        <time>2023-10-30T18:09:57Z</time>
      </trkpt>
      <trkpt lat="48.53662" lon="-3.40169">
        <ele>140</ele>
        <time>2023-10-30T18:10:16Z</time>
      </trkpt>
      <trkpt lat="48.53648" lon="-3.40162">
        <ele>141</ele>
        <time>2023-10-30T18:10:36Z</time>
      </trkpt>
      <trkpt lat="48.53631" lon="-3.40145">
        <ele>142</ele>
        <time>2023-10-30T18:11:03Z</time>
      </trkpt>
      <trkpt lat="48.53611" lon="-3.40122">
        <ele>143</ele>
        <time>2023-10-30T18:11:37Z</time>
      </trkpt>
      <trkpt lat="48.53597" lon="-3.40096">
        <ele>143</ele>
        <time>2023-10-30T18:12:06Z</time>
      </trkpt>
      <trkpt lat="48.53587" lon="-3.40092">
        <ele>144</ele>
        <time>2023-10-30T18:12:20Z</time>
      </trkpt>
      <trkpt lat="48.53582" lon="-3.40097">
        <ele>144</ele>
        <time>2023-10-30T18:12:28Z</time>
      </trkpt>
      <trkpt lat="48.53584" lon="-3.40097">
        <ele>144</ele>
        <time>2023-10-30T18:12:31Z</time>
      </trkpt>
      <trkpt lat="48.53514" lon="-3.4019">
        <ele>148</ele>
        <time>2023-10-30T18:14:35Z</time>
      </trkpt>
      <trkpt lat="48.53494" lon="-3.40229">
        <ele>150</ele>
        <time>2023-10-30T18:15:19Z</time>
      </trkpt>
      <trkpt lat="48.53493" lon="-3.40252">
        <ele>150</ele>
        <time>2023-10-30T18:15:39Z</time>
      </trkpt>
      <trkpt lat="48.53448" lon="-3.40331">
        <ele>153</ele>
        <time>2023-10-30T18:17:11Z</time>
      </trkpt>
      <trkpt lat="48.53426" lon="-3.40354">
        <ele>154</ele>
        <time>2023-10-30T18:17:47Z</time>
      </trkpt>
      <trkpt lat="48.53413" lon="-3.40363">
        <ele>155</ele>
        <time>2023-10-30T18:18:06Z</time>
      </trkpt>
      <trkpt lat="48.53397" lon="-3.40386">
        <ele>156</ele>
        <time>2023-10-30T18:18:35Z</time>
      </trkpt>
      <trkpt lat="48.53332" lon="-3.4052">
        <ele>162</ele>
        <time>2023-10-30T18:21:02Z</time>
      </trkpt>
      <trkpt lat="48.5331" lon="-3.40573">
        <ele>163</ele>
        <time>2023-10-30T18:21:58Z</time>
      </trkpt>
      <trkpt lat="48.53296" lon="-3.40597">
        <ele>164</ele>
        <time>2023-10-30T18:22:26Z</time>
      </trkpt>
      <trkpt lat="48.53264" lon="-3.40642">
        <ele>166</ele>
        <time>2023-10-30T18:23:24Z</time>
      </trkpt>
      <trkpt lat="48.53223" lon="-3.40734">
        <ele>169</ele>
        <time>2023-10-30T18:25:02Z</time>
      </trkpt>
      <trkpt lat="48.53206" lon="-3.40791">
        <ele>170</ele>
        <time>2023-10-30T18:25:57Z</time>
      </trkpt>
      <trkpt lat="48.532" lon="-3.4083">
        <ele>171</ele>
        <time>2023-10-30T18:26:33Z</time>
      </trkpt>
      <trkpt lat="48.53155" lon="-3.40953">
        <ele>172</ele>
        <time>2023-10-30T18:28:37Z</time>
      </trkpt>
      <trkpt lat="48.53139" lon="-3.41016">
        <ele>171</ele>
        <time>2023-10-30T18:29:37Z</time>
      </trkpt>
      <trkpt lat="48.5312" lon="-3.41062">
        <ele>171</ele>
        <time>2023-10-30T18:30:24Z</time>
      </trkpt>
      <trkpt lat="48.531" lon="-3.41131">
        <ele>171</ele>
        <time>2023-10-30T18:31:31Z</time>
      </trkpt>
      <trkpt lat="48.53088" lon="-3.41156">
        <ele>170</ele>
        <time>2023-10-30T18:31:58Z</time>
      </trkpt>
      <trkpt lat="48.53066" lon="-3.41184">
        <ele>170</ele>
        <time>2023-10-30T18:32:37Z</time>
      </trkpt>
      <trkpt lat="48.5306" lon="-3.41199">
        <ele>170</ele>
        <time>2023-10-30T18:32:52Z</time>
      </trkpt>
      <trkpt lat="48.53055" lon="-3.41254">
        <ele>171</ele>
        <time>2023-10-30T18:33:41Z</time>
      </trkpt>
      <trkpt lat="48.53062" lon="-3.41305">
        <ele>171</ele>
        <time>2023-10-30T18:34:27Z</time>
      </trkpt>
      <trkpt lat="48.5306" lon="-3.41355">
        <ele>171</ele>
        <time>2023-10-30T18:35:12Z</time>
      </trkpt>
      <trkpt lat="48.53051" lon="-3.41417">
        <ele>172</ele>
        <time>2023-10-30T18:36:08Z</time>
      </trkpt>
      <trkpt lat="48.53034" lon="-3.41481">
        <ele>172</ele>
        <time>2023-10-30T18:37:09Z</time>
      </trkpt>
      <trkpt lat="48.53033" lon="-3.41508">
        <ele>172</ele>
        <time>2023-10-30T18:37:33Z</time>
      </trkpt>
      <trkpt lat="48.5303" lon="-3.41524">
        <ele>172</ele>
        <time>2023-10-30T18:37:47Z</time>
      </trkpt>
      <trkpt lat="48.53008" lon="-3.41528">
        <ele>172</ele>
        <time>2023-10-30T18:38:17Z</time>
      </trkpt>
      <trkpt lat="48.52993" lon="-3.41534">
        <ele>172</ele>
        <time>2023-10-30T18:38:37Z</time>
      </trkpt>
      <trkpt lat="48.52974" lon="-3.41551">
        <ele>173</ele>
        <time>2023-10-30T18:39:07Z</time>
      </trkpt>
      <trkpt lat="48.52947" lon="-3.41553">
        <ele>173</ele>
        <time>2023-10-30T18:39:43Z</time>
      </trkpt>
      <trkpt lat="48.52943" lon="-3.41558">
        <ele>173</ele>
        <time>2023-10-30T18:39:50Z</time>
      </trkpt>
      <trkpt lat="48.52941" lon="-3.41563">
        <ele>173</ele>
        <time>2023-10-30T18:39:55Z</time>
      </trkpt>
      <trkpt lat="48.52944" lon="-3.41577">
        <ele>174</ele>
        <time>2023-10-30T18:40:08Z</time>
      </trkpt>
      <trkpt lat="48.52943" lon="-3.41585">
        <ele>174</ele>
        <time>2023-10-30T18:40:15Z</time>
      </trkpt>
      <trkpt lat="48.52948" lon="-3.41586">
        <ele>174</ele>
        <time>2023-10-30T18:40:22Z</time>
      </trkpt>
      <trkpt lat="48.52946" lon="-3.41592">
        <ele>174</ele>
        <time>2023-10-30T18:40:28Z</time>
      </trkpt>
      <trkpt lat="48.52949" lon="-3.41593">
        <ele>174</ele>
        <time>2023-10-30T18:40:32Z</time>
      </trkpt>
      <trkpt lat="48.52946" lon="-3.41596">
        <ele>174</ele>
        <time>2023-10-30T18:40:37Z</time>
      </trkpt>
      <trkpt lat="48.52954" lon="-3.41586">
        <ele>174</ele>
        <time>2023-10-30T18:40:51Z</time>
      </trkpt>
      <trkpt lat="48.52949" lon="-3.41591">
        <ele>174</ele>
        <time>2023-10-30T18:40:59Z</time>
      </trkpt>
      <trkpt lat="48.5295" lon="-3.41618">
        <ele>174</ele>
        <time>2023-10-30T18:41:23Z</time>
      </trkpt>
      <trkpt lat="48.52947" lon="-3.41663">
        <ele>174</ele>
        <time>2023-10-30T18:42:03Z</time>
      </trkpt>
      <trkpt lat="48.5294" lon="-3.41666">
        <ele>174</ele>
        <time>2023-10-30T18:42:12Z</time>
      </trkpt>
      <trkpt lat="48.52933" lon="-3.41665">
        <ele>174</ele>
        <time>2023-10-30T18:42:22Z</time>
      </trkpt>
      <trkpt lat="48.52932" lon="-3.41662">
        <ele>174</ele>
        <time>2023-10-30T18:42:25Z</time>
      </trkpt>
      <trkpt lat="48.52884" lon="-3.41622">
        <ele>173</ele>
        <time>2023-10-30T18:43:38Z</time>
      </trkpt>
      <trkpt lat="48.52852" lon="-3.41603">
        <ele>172</ele>
        <time>2023-10-30T18:44:24Z</time>
      </trkpt>
      <trkpt lat="48.52806" lon="-3.41586">
        <ele>170</ele>
        <time>2023-10-30T18:45:27Z</time>
      </trkpt>
      <trkpt lat="48.52729" lon="-3.41562">
        <ele>168</ele>
        <time>2023-10-30T18:47:12Z</time>
      </trkpt>
      <trkpt lat="48.52607" lon="-3.41529">
        <ele>161</ele>
        <time>2023-10-30T18:49:57Z</time>
      </trkpt>
      <trkpt lat="48.5257" lon="-3.41514">
        <ele>159</ele>
        <time>2023-10-30T18:50:48Z</time>
      </trkpt>
      <trkpt lat="48.52567" lon="-3.41505">
        <ele>159</ele>
        <time>2023-10-30T18:50:57Z</time>
      </trkpt>
      <trkpt lat="48.52569" lon="-3.4149">
        <ele>159</ele>
        <time>2023-10-30T18:51:11Z</time>
      </trkpt>
      <trkpt lat="48.52568" lon="-3.41463">
        <ele>159</ele>
        <time>2023-10-30T18:51:35Z</time>
      </trkpt>
      <trkpt lat="48.52579" lon="-3.41406">
        <ele>159</ele>
        <time>2023-10-30T18:52:27Z</time>
      </trkpt>
      <trkpt lat="48.52605" lon="-3.41332">
        <ele>160</ele>
        <time>2023-10-30T18:53:41Z</time>
      </trkpt>
      <trkpt lat="48.5262" lon="-3.41223">
        <ele>163</ele>
        <time>2023-10-30T18:55:20Z</time>
      </trkpt>
      <trkpt lat="48.52621" lon="-3.41199">
        <ele>164</ele>
        <time>2023-10-30T18:55:41Z</time>
      </trkpt>
      <trkpt lat="48.52618" lon="-3.41179">
        <ele>164</ele>
        <time>2023-10-30T18:55:59Z</time>
      </trkpt>
      <trkpt lat="48.526" lon="-3.4111">
        <ele>164</ele>
        <time>2023-10-30T18:57:04Z</time>
      </trkpt>
      <trkpt lat="48.52577" lon="-3.41105">
        <ele>162</ele>
        <time>2023-10-30T18:57:36Z</time>
      </trkpt>
      <trkpt lat="48.52572" lon="-3.41107">
        <ele>162</ele>
        <time>2023-10-30T18:57:42Z</time>
      </trkpt>
      <trkpt lat="48.52531" lon="-3.41103">
        <ele>161</ele>
        <time>2023-10-30T18:58:37Z</time>
      </trkpt>
      <trkpt lat="48.52496" lon="-3.41093">
        <ele>159</ele>
        <time>2023-10-30T18:59:25Z</time>
      </trkpt>
      <trkpt lat="48.52411" lon="-3.41056">
        <ele>156</ele>
        <time>2023-10-30T19:01:23Z</time>
      </trkpt>
      <trkpt lat="48.52393" lon="-3.4105">
        <ele>156</ele>
        <time>2023-10-30T19:01:47Z</time>
      </trkpt>
      <trkpt lat="48.52371" lon="-3.41048">
        <ele>155</ele>
        <time>2023-10-30T19:02:17Z</time>
      </trkpt>
      <trkpt lat="48.52356" lon="-3.41041">
        <ele>155</ele>
        <time>2023-10-30T19:02:38Z</time>
      </trkpt>
      <trkpt lat="48.52321" lon="-3.41014">
        <ele>156</ele>
        <time>2023-10-30T19:03:30Z</time>
      </trkpt>
      <trkpt lat="48.52298" lon="-3.41001">
        <ele>158</ele>
        <time>2023-10-30T19:04:03Z</time>
      </trkpt>
      <trkpt lat="48.52278" lon="-3.40986">
        <ele>159</ele>
        <time>2023-10-30T19:04:33Z</time>
      </trkpt>
      <trkpt lat="48.52261" lon="-3.40983">
        <ele>159</ele>
        <time>2023-10-30T19:04:56Z</time>
      </trkpt>
      <trkpt lat="48.52233" lon="-3.40986">
        <ele>158</ele>
        <time>2023-10-30T19:05:33Z</time>
      </trkpt>
      <trkpt lat="48.5222" lon="-3.40984">
        <ele>156</ele>
        <time>2023-10-30T19:05:51Z</time>
      </trkpt>
      <trkpt lat="48.5221" lon="-3.40979">
        <ele>155</ele>
        <time>2023-10-30T19:06:05Z</time>
      </trkpt>
      <trkpt lat="48.52201" lon="-3.40955">
        <ele>155</ele>
        <time>2023-10-30T19:06:29Z</time>
      </trkpt>
      <trkpt lat="48.52195" lon="-3.40869">
        <ele>158</ele>
        <time>2023-10-30T19:07:45Z</time>
      </trkpt>
      <trkpt lat="48.52187" lon="-3.4081">
        <ele>159</ele>
        <time>2023-10-30T19:08:39Z</time>
      </trkpt>
      <trkpt lat="48.52189" lon="-3.40732">
        <ele>158</ele>
        <time>2023-10-30T19:09:48Z</time>
      </trkpt>
      <trkpt lat="48.52187" lon="-3.40672">
        <ele>155</ele>
        <time>2023-10-30T19:10:41Z</time>
      </trkpt>
      <trkpt lat="48.52183" lon="-3.40655">
        <ele>154</ele>
        <time>2023-10-30T19:10:57Z</time>
      </trkpt>
      <trkpt lat="48.52176" lon="-3.40585">
        <ele>150</ele>
        <time>2023-10-30T19:11:59Z</time>
      </trkpt>
      <trkpt lat="48.52169" lon="-3.40542">
        <ele>146</ele>
        <time>2023-10-30T19:12:38Z</time>
      </trkpt>
      <trkpt lat="48.5217" lon="-3.40534">
        <ele>145</ele>
        <time>2023-10-30T19:12:46Z</time>
      </trkpt>
      <trkpt lat="48.52162" lon="-3.40435">
        <ele>135</ele>
        <time>2023-10-30T19:14:14Z</time>
      </trkpt>
      <trkpt lat="48.52163" lon="-3.40416">
        <ele>133</ele>
        <time>2023-10-30T19:14:31Z</time>
      </trkpt>
      <trkpt lat="48.52159" lon="-3.40402">
        <ele>132</ele>
        <time>2023-10-30T19:14:44Z</time>
      </trkpt>
      <trkpt lat="48.52146" lon="-3.40388">
        <ele>130</ele>
        <time>2023-10-30T19:15:05Z</time>
      </trkpt>
      <trkpt lat="48.52116" lon="-3.40366">
        <ele>128</ele>
        <time>2023-10-30T19:15:50Z</time>
      </trkpt>
      <trkpt lat="48.52091" lon="-3.40354">
        <ele>127</ele>
        <time>2023-10-30T19:16:25Z</time>
      </trkpt>
      <trkpt lat="48.52074" lon="-3.4035">
        <ele>126</ele>
        <time>2023-10-30T19:16:48Z</time>
      </trkpt>
      <trkpt lat="48.52054" lon="-3.40341">
        <ele>124</ele>
        <time>2023-10-30T19:17:16Z</time>
      </trkpt>
      <trkpt lat="48.52029" lon="-3.40336">
        <ele>122</ele>
        <time>2023-10-30T19:17:49Z</time>
      </trkpt>
      <trkpt lat="48.52014" lon="-3.4034">
        <ele>121</ele>
        <time>2023-10-30T19:18:10Z</time>
      </trkpt>
      <trkpt lat="48.51985" lon="-3.40357">
        <ele>120</ele>
        <time>2023-10-30T19:18:51Z</time>
      </trkpt>
      <trkpt lat="48.51973" lon="-3.4036">
        <ele>119</ele>
        <time>2023-10-30T19:19:07Z</time>
      </trkpt>
      <trkpt lat="48.51945" lon="-3.40352">
        <ele>115</ele>
        <time>2023-10-30T19:19:45Z</time>
      </trkpt>
      <trkpt lat="48.51927" lon="-3.40351">
        <ele>113</ele>
        <time>2023-10-30T19:20:09Z</time>
      </trkpt>
      <trkpt lat="48.519" lon="-3.40365">
        <ele>113</ele>
        <time>2023-10-30T19:20:48Z</time>
      </trkpt>
      <trkpt lat="48.51892" lon="-3.40374">
        <ele>114</ele>
        <time>2023-10-30T19:21:01Z</time>
      </trkpt>
      <trkpt lat="48.51867" lon="-3.40423">
        <ele>114</ele>
        <time>2023-10-30T19:21:56Z</time>
      </trkpt>
      <trkpt lat="48.51865" lon="-3.40474">
        <ele>113</ele>
        <time>2023-10-30T19:22:41Z</time>
      </trkpt>
      <trkpt lat="48.51868" lon="-3.40494">
        <ele>112</ele>
        <time>2023-10-30T19:22:59Z</time>
      </trkpt>
      <trkpt lat="48.51883" lon="-3.40536">
        <ele>113</ele>
        <time>2023-10-30T19:23:41Z</time>
      </trkpt>
      <trkpt lat="48.5189" lon="-3.40544">
        <ele>113</ele>
        <time>2023-10-30T19:23:53Z</time>
      </trkpt>
      <trkpt lat="48.51903" lon="-3.40572">
        <ele>113</ele>
        <time>2023-10-30T19:24:23Z</time>
      </trkpt>
      <trkpt lat="48.51922" lon="-3.40588">
        <ele>115</ele>
        <time>2023-10-30T19:24:52Z</time>
      </trkpt>
      <trkpt lat="48.51945" lon="-3.40631">
        <ele>119</ele>
        <time>2023-10-30T19:25:41Z</time>
      </trkpt>
      <trkpt lat="48.51953" lon="-3.40651">
        <ele>121</ele>
        <time>2023-10-30T19:26:01Z</time>
      </trkpt>
      <trkpt lat="48.51961" lon="-3.40658">
        <ele>122</ele>
        <time>2023-10-30T19:26:14Z</time>
      </trkpt>
      <trkpt lat="48.51969" lon="-3.40686">
        <ele>122</ele>
        <time>2023-10-30T19:26:41Z</time>
      </trkpt>
      <trkpt lat="48.5198" lon="-3.40698">
        <ele>123</ele>
        <time>2023-10-30T19:26:59Z</time>
      </trkpt>
      <trkpt lat="48.51982" lon="-3.40728">
        <ele>120</ele>
        <time>2023-10-30T19:27:26Z</time>
      </trkpt>
      <trkpt lat="48.5199" lon="-3.40747">
        <ele>119</ele>
        <time>2023-10-30T19:27:45Z</time>
      </trkpt>
      <trkpt lat="48.52007" lon="-3.40763">
        <ele>122</ele>
        <time>2023-10-30T19:28:12Z</time>
      </trkpt>
      <trkpt lat="48.52014" lon="-3.40779">
        <ele>123</ele>
        <time>2023-10-30T19:28:29Z</time>
      </trkpt>
      <trkpt lat="48.52025" lon="-3.4084">
        <ele>122</ele>
        <time>2023-10-30T19:29:25Z</time>
      </trkpt>
      <trkpt lat="48.52024" lon="-3.40868">
        <ele>120</ele>
        <time>2023-10-30T19:29:50Z</time>
      </trkpt>
      <trkpt lat="48.52032" lon="-3.40907">
        <ele>119</ele>
        <time>2023-10-30T19:30:26Z</time>
      </trkpt>
      <trkpt lat="48.52036" lon="-3.41132">
        <ele>114</ele>
        <time>2023-10-30T19:33:45Z</time>
      </trkpt>
      <trkpt lat="48.52053" lon="-3.41232">
        <ele>115</ele>
        <time>2023-10-30T19:35:16Z</time>
      </trkpt>
      <trkpt lat="48.52135" lon="-3.4127">
        <ele>127</ele>
        <time>2023-10-30T19:37:11Z</time>
      </trkpt>
      <trkpt lat="48.52127" lon="-3.4129">
        <ele>127</ele>
        <time>2023-10-30T19:37:31Z</time>
      </trkpt>
      <trkpt lat="48.52112" lon="-3.41302">
        <ele>125</ele>
        <time>2023-10-30T19:37:54Z</time>
      </trkpt>
      <trkpt lat="48.52097" lon="-3.4131">
        <ele>122</ele>
        <time>2023-10-30T19:38:15Z</time>
      </trkpt>
      <trkpt lat="48.52071" lon="-3.41338">
        <ele>119</ele>
        <time>2023-10-30T19:38:58Z</time>
      </trkpt>
      <trkpt lat="48.52068" lon="-3.41352">
        <ele>119</ele>
        <time>2023-10-30T19:39:11Z</time>
      </trkpt>
      <trkpt lat="48.52069" lon="-3.41378">
        <ele>120</ele>
        <time>2023-10-30T19:39:34Z</time>
      </trkpt>
      <trkpt lat="48.52053" lon="-3.41513">
        <ele>123</ele>
        <time>2023-10-30T19:41:35Z</time>
      </trkpt>
      <trkpt lat="48.52041" lon="-3.41576">
        <ele>124</ele>
        <time>2023-10-30T19:42:33Z</time>
      </trkpt>
      <trkpt lat="48.5203" lon="-3.41614">
        <ele>124</ele>
        <time>2023-10-30T19:43:10Z</time>
      </trkpt>
      <trkpt lat="48.52028" lon="-3.41663">
        <ele>129</ele>
        <time>2023-10-30T19:43:53Z</time>
      </trkpt>
      <trkpt lat="48.52023" lon="-3.41691">
        <ele>131</ele>
        <time>2023-10-30T19:44:19Z</time>
      </trkpt>
      <trkpt lat="48.51997" lon="-3.41791">
        <ele>136</ele>
        <time>2023-10-30T19:45:54Z</time>
      </trkpt>
      <trkpt lat="48.51978" lon="-3.41822">
        <ele>136</ele>
        <time>2023-10-30T19:46:31Z</time>
      </trkpt>
      <trkpt lat="48.51942" lon="-3.41828">
        <ele>128</ele>
        <time>2023-10-30T19:47:19Z</time>
      </trkpt>
      <trkpt lat="48.5192" lon="-3.41843">
        <ele>125</ele>
        <time>2023-10-30T19:47:51Z</time>
      </trkpt>
      <trkpt lat="48.51889" lon="-3.41869">
        <ele>124</ele>
        <time>2023-10-30T19:48:39Z</time>
      </trkpt>
      <trkpt lat="48.51857" lon="-3.4189">
        <ele>123</ele>
        <time>2023-10-30T19:49:25Z</time>
      </trkpt>
      <trkpt lat="48.51842" lon="-3.41896">
        <ele>121</ele>
        <time>2023-10-30T19:49:46Z</time>
      </trkpt>
      <trkpt lat="48.51824" lon="-3.41897">
        <ele>119</ele>
        <time>2023-10-30T19:50:10Z</time>
      </trkpt>
      <trkpt lat="48.518" lon="-3.41903">
        <ele>117</ele>
        <time>2023-10-30T19:50:42Z</time>
      </trkpt>
      <trkpt lat="48.51784" lon="-3.41898">
        <ele>115</ele>
        <time>2023-10-30T19:51:04Z</time>
      </trkpt>
      <trkpt lat="48.51782" lon="-3.41895">
        <ele>114</ele>
        <time>2023-10-30T19:51:08Z</time>
      </trkpt>
      <trkpt lat="48.5177" lon="-3.41893">
        <ele>113</ele>
        <time>2023-10-30T19:51:24Z</time>
      </trkpt>
      <trkpt lat="48.51674" lon="-3.4181">
        <ele>109</ele>
        <time>2023-10-30T19:53:52Z</time>
      </trkpt>
      <trkpt lat="48.51656" lon="-3.41791">
        <ele>111</ele>
        <time>2023-10-30T19:54:21Z</time>
      </trkpt>
      <trkpt lat="48.51639" lon="-3.41766">
        <ele>115</ele>
        <time>2023-10-30T19:54:53Z</time>
      </trkpt>
      <trkpt lat="48.51626" lon="-3.41733">
        <ele>118</ele>
        <time>2023-10-30T19:55:27Z</time>
      </trkpt>
      <trkpt lat="48.51612" lon="-3.41706">
        <ele>119</ele>
        <time>2023-10-30T19:55:57Z</time>
      </trkpt>
      <trkpt lat="48.51599" lon="-3.41697">
        <ele>121</ele>
        <time>2023-10-30T19:56:16Z</time>
      </trkpt>
      <trkpt lat="48.51596" lon="-3.41692">
        <ele>121</ele>
        <time>2023-10-30T19:56:22Z</time>
      </trkpt>
      <trkpt lat="48.51576" lon="-3.41681">
        <ele>121</ele>
        <time>2023-10-30T19:56:50Z</time>
      </trkpt>
      <trkpt lat="48.51548" lon="-3.41659">
        <ele>121</ele>
        <time>2023-10-30T19:57:33Z</time>
      </trkpt>
      <trkpt lat="48.5154" lon="-3.41654">
        <ele>121</ele>
        <time>2023-10-30T19:57:44Z</time>
      </trkpt>
      <trkpt lat="48.51531" lon="-3.41652">
        <ele>121</ele>
        <time>2023-10-30T19:57:56Z</time>
      </trkpt>
      <trkpt lat="48.51522" lon="-3.41657">
        <ele>122</ele>
        <time>2023-10-30T19:58:09Z</time>
      </trkpt>
      <trkpt lat="48.51517" lon="-3.41663">
        <ele>123</ele>
        <time>2023-10-30T19:58:18Z</time>
      </trkpt>
      <trkpt lat="48.51488" lon="-3.41741">
        <ele>130</ele>
        <time>2023-10-30T19:59:37Z</time>
      </trkpt>
      <trkpt lat="48.51461" lon="-3.41781">
        <ele>129</ele>
        <time>2023-10-30T20:00:27Z</time>
      </trkpt>
      <trkpt lat="48.5143" lon="-3.41814">
        <ele>128</ele>
        <time>2023-10-30T20:01:18Z</time>
      </trkpt>
      <trkpt lat="48.51421" lon="-3.41819">
        <ele>128</ele>
        <time>2023-10-30T20:01:31Z</time>
      </trkpt>
      <trkpt lat="48.51405" lon="-3.41823">
        <ele>128</ele>
        <time>2023-10-30T20:01:52Z</time>
      </trkpt>
      <trkpt lat="48.51381" lon="-3.41825">
        <ele>127</ele>
        <time>2023-10-30T20:02:24Z</time>
      </trkpt>
      <trkpt lat="48.51358" lon="-3.41819">
        <ele>126</ele>
        <time>2023-10-30T20:02:55Z</time>
      </trkpt>
      <trkpt lat="48.51324" lon="-3.41803">
        <ele>124</ele>
        <time>2023-10-30T20:03:43Z</time>
      </trkpt>
      <trkpt lat="48.51314" lon="-3.4179">
        <ele>124</ele>
        <time>2023-10-30T20:04:01Z</time>
      </trkpt>
      <trkpt lat="48.51313" lon="-3.4177">
        <ele>123</ele>
        <time>2023-10-30T20:04:18Z</time>
      </trkpt>
      <trkpt lat="48.51316" lon="-3.4173">
        <ele>122</ele>
        <time>2023-10-30T20:04:54Z</time>
      </trkpt>
      <trkpt lat="48.51312" lon="-3.4172">
        <ele>123</ele>
        <time>2023-10-30T20:05:04Z</time>
      </trkpt>
      <trkpt lat="48.51309" lon="-3.41728">
        <ele>123</ele>
        <time>2023-10-30T20:05:12Z</time>
      </trkpt>
      <trkpt lat="48.51331" lon="-3.417">
        <ele>124</ele>
        <time>2023-10-30T20:05:51Z</time>
      </trkpt>
      <trkpt lat="48.51337" lon="-3.41679">
        <ele>126</ele>
        <time>2023-10-30T20:06:11Z</time>
      </trkpt>
      <trkpt lat="48.51347" lon="-3.41663">
        <ele>126</ele>
        <time>2023-10-30T20:06:30Z</time>
      </trkpt>
      <trkpt lat="48.51361" lon="-3.41627">
        <ele>127</ele>
        <time>2023-10-30T20:07:07Z</time>
      </trkpt>
      <trkpt lat="48.51381" lon="-3.41558">
        <ele>131</ele>
        <time>2023-10-30T20:08:14Z</time>
      </trkpt>
      <trkpt lat="48.51389" lon="-3.4154">
        <ele>131</ele>
        <time>2023-10-30T20:08:33Z</time>
      </trkpt>
      <trkpt lat="48.51399" lon="-3.41506">
        <ele>133</ele>
        <time>2023-10-30T20:09:06Z</time>
      </trkpt>
      <trkpt lat="48.51406" lon="-3.41463">
        <ele>134</ele>
        <time>2023-10-30T20:09:45Z</time>
      </trkpt>
      <trkpt lat="48.51424" lon="-3.41403">
        <ele>135</ele>
        <time>2023-10-30T20:10:43Z</time>
      </trkpt>
      <trkpt lat="48.51433" lon="-3.4135">
        <ele>137</ele>
        <time>2023-10-30T20:11:32Z</time>
      </trkpt>
      <trkpt lat="48.5144" lon="-3.41323">
        <ele>137</ele>
        <time>2023-10-30T20:11:57Z</time>
      </trkpt>
      <trkpt lat="48.51442" lon="-3.41308">
        <ele>138</ele>
        <time>2023-10-30T20:12:11Z</time>
      </trkpt>
      <trkpt lat="48.51439" lon="-3.4129">
        <ele>140</ele>
        <time>2023-10-30T20:12:27Z</time>
      </trkpt>
      <trkpt lat="48.51418" lon="-3.41261">
        <ele>142</ele>
        <time>2023-10-30T20:13:05Z</time>
      </trkpt>
      <trkpt lat="48.51417" lon="-3.41254">
        <ele>143</ele>
        <time>2023-10-30T20:13:12Z</time>
      </trkpt>
      <trkpt lat="48.51423" lon="-3.41234">
        <ele>143</ele>
        <time>2023-10-30T20:13:31Z</time>
      </trkpt>
      <trkpt lat="48.51437" lon="-3.41202">
        <ele>144</ele>
        <time>2023-10-30T20:14:05Z</time>
      </trkpt>
      <trkpt lat="48.51464" lon="-3.41152">
        <ele>145</ele>
        <time>2023-10-30T20:15:02Z</time>
      </trkpt>
      <trkpt lat="48.51481" lon="-3.4113">
        <ele>145</ele>
        <time>2023-10-30T20:15:32Z</time>
      </trkpt>
      <trkpt lat="48.51491" lon="-3.411">
        <ele>145</ele>
        <time>2023-10-30T20:16:01Z</time>
      </trkpt>
      <trkpt lat="48.5151" lon="-3.41069">
        <ele>145</ele>
        <time>2023-10-30T20:16:39Z</time>
      </trkpt>
      <trkpt lat="48.51534" lon="-3.41009">
        <ele>145</ele>
        <time>2023-10-30T20:17:41Z</time>
      </trkpt>
      <trkpt lat="48.51581" lon="-3.40932">
        <ele>145</ele>
        <time>2023-10-30T20:19:13Z</time>
      </trkpt>
      <trkpt lat="48.51598" lon="-3.40916">
        <ele>144</ele>
        <time>2023-10-30T20:19:40Z</time>
      </trkpt>
      <trkpt lat="48.5164" lon="-3.40951">
        <ele>139</ele>
        <time>2023-10-30T20:20:44Z</time>
      </trkpt>
      <trkpt lat="48.51645" lon="-3.40949">
        <ele>138</ele>
        <time>2023-10-30T20:20:51Z</time>
      </trkpt>
      <trkpt lat="48.51657" lon="-3.40924">
        <ele>138</ele>
        <time>2023-10-30T20:21:18Z</time>
      </trkpt>
      <trkpt lat="48.51661" lon="-3.40909">
        <ele>138</ele>
        <time>2023-10-30T20:21:33Z</time>
      </trkpt>
      <trkpt lat="48.51649" lon="-3.40883">
        <ele>139</ele>
        <time>2023-10-30T20:22:01Z</time>
      </trkpt>
      <trkpt lat="48.51644" lon="-3.40844">
        <ele>140</ele>
        <time>2023-10-30T20:22:36Z</time>
      </trkpt>
      <trkpt lat="48.51649" lon="-3.40825">
        <ele>140</ele>
        <time>2023-10-30T20:22:54Z</time>
      </trkpt>
      <trkpt lat="48.51659" lon="-3.40826">
        <ele>138</ele>
        <time>2023-10-30T20:23:07Z</time>
      </trkpt>
      <trkpt lat="48.51661" lon="-3.4083">
        <ele>138</ele>
        <time>2023-10-30T20:23:12Z</time>
      </trkpt>
      <trkpt lat="48.51658" lon="-3.40834">
        <ele>138</ele>
        <time>2023-10-30T20:23:17Z</time>
      </trkpt>
      <trkpt lat="48.51665" lon="-3.40846">
        <ele>137</ele>
        <time>2023-10-30T20:23:31Z</time>
      </trkpt>
      <trkpt lat="48.5166" lon="-3.40847">
        <ele>138</ele>
        <time>2023-10-30T20:23:38Z</time>
      </trkpt>
      <trkpt lat="48.5166" lon="-3.40856">
        <ele>138</ele>
        <time>2023-10-30T20:23:46Z</time>
      </trkpt>
      <trkpt lat="48.51666" lon="-3.40866">
        <ele>137</ele>
        <time>2023-10-30T20:23:58Z</time>
      </trkpt>
      <trkpt lat="48.51677" lon="-3.40863">
        <ele>135</ele>
        <time>2023-10-30T20:24:13Z</time>
      </trkpt>
      <trkpt lat="48.51668" lon="-3.40853">
        <ele>137</ele>
        <time>2023-10-30T20:24:27Z</time>
      </trkpt>
      <trkpt lat="48.51664" lon="-3.40838">
        <ele>137</ele>
        <time>2023-10-30T20:24:42Z</time>
      </trkpt>
      <trkpt lat="48.51659" lon="-3.40776">
        <ele>141</ele>
        <time>2023-10-30T20:25:37Z</time>
      </trkpt>
      <trkpt lat="48.51654" lon="-3.40764">
        <ele>142</ele>
        <time>2023-10-30T20:25:50Z</time>
      </trkpt>
      <trkpt lat="48.51645" lon="-3.40719">
        <ele>146</ele>
        <time>2023-10-30T20:26:31Z</time>
      </trkpt>
      <trkpt lat="48.51667" lon="-3.40681">
        <ele>147</ele>
        <time>2023-10-30T20:27:16Z</time>
      </trkpt>
      <trkpt lat="48.51685" lon="-3.4064">
        <ele>146</ele>
        <time>2023-10-30T20:27:59Z</time>
      </trkpt>
      <trkpt lat="48.51698" lon="-3.40626">
        <ele>145</ele>
        <time>2023-10-30T20:28:20Z</time>
      </trkpt>
      <trkpt lat="48.51719" lon="-3.40591">
        <ele>143</ele>
        <time>2023-10-30T20:29:02Z</time>
      </trkpt>
      <trkpt lat="48.51724" lon="-3.40573">
        <ele>143</ele>
        <time>2023-10-30T20:29:19Z</time>
      </trkpt>
      <trkpt lat="48.51725" lon="-3.40557">
        <ele>144</ele>
        <time>2023-10-30T20:29:34Z</time>
      </trkpt>
      <trkpt lat="48.51735" lon="-3.40525">
        <ele>144</ele>
        <time>2023-10-30T20:30:05Z</time>
      </trkpt>
      <trkpt lat="48.51748" lon="-3.40363">
        <ele>148</ele>
        <time>2023-10-30T20:32:29Z</time>
      </trkpt>
      <trkpt lat="48.51779" lon="-3.40287">
        <ele>142</ele>
        <time>2023-10-30T20:33:48Z</time>
      </trkpt>
      <trkpt lat="48.51787" lon="-3.4025">
        <ele>143</ele>
        <time>2023-10-30T20:34:22Z</time>
      </trkpt>
      <trkpt lat="48.51813" lon="-3.40172">
        <ele>143</ele>
        <time>2023-10-30T20:35:40Z</time>
      </trkpt>
      <trkpt lat="48.51817" lon="-3.40153">
        <ele>143</ele>
        <time>2023-10-30T20:35:57Z</time>
      </trkpt>
      <trkpt lat="48.51805" lon="-3.40126">
        <ele>145</ele>
        <time>2023-10-30T20:36:26Z</time>
      </trkpt>
      <trkpt lat="48.51772" lon="-3.40086">
        <ele>152</ele>
        <time>2023-10-30T20:37:23Z</time>
      </trkpt>
      <trkpt lat="48.51746" lon="-3.40034">
        <ele>153</ele>
        <time>2023-10-30T20:38:20Z</time>
      </trkpt>
      <trkpt lat="48.51742" lon="-3.40021">
        <ele>152</ele>
        <time>2023-10-30T20:38:33Z</time>
      </trkpt>
      <trkpt lat="48.51719" lon="-3.39984">
        <ele>155</ele>
        <time>2023-10-30T20:39:18Z</time>
      </trkpt>
      <trkpt lat="48.51677" lon="-3.39943">
        <ele>159</ele>
        <time>2023-10-30T20:40:24Z</time>
      </trkpt>
      <trkpt lat="48.51636" lon="-3.3993">
        <ele>162</ele>
        <time>2023-10-30T20:41:20Z</time>
      </trkpt>
      <trkpt lat="48.51607" lon="-3.39928">
        <ele>163</ele>
        <time>2023-10-30T20:41:59Z</time>
      </trkpt>
      <trkpt lat="48.51593" lon="-3.39923">
        <ele>164</ele>
        <time>2023-10-30T20:42:18Z</time>
      </trkpt>
      <trkpt lat="48.51588" lon="-3.39918">
        <ele>164</ele>
        <time>2023-10-30T20:42:26Z</time>
      </trkpt>
      <trkpt lat="48.51591" lon="-3.39855">
        <ele>164</ele>
        <time>2023-10-30T20:43:22Z</time>
      </trkpt>
      <trkpt lat="48.51603" lon="-3.39819">
        <ele>164</ele>
        <time>2023-10-30T20:43:58Z</time>
      </trkpt>
      <trkpt lat="48.51602" lon="-3.39814">
        <ele>164</ele>
        <time>2023-10-30T20:44:02Z</time>
      </trkpt>
      <trkpt lat="48.51613" lon="-3.39787">
        <ele>164</ele>
        <time>2023-10-30T20:44:30Z</time>
      </trkpt>
      <trkpt lat="48.51617" lon="-3.39766">
        <ele>165</ele>
        <time>2023-10-30T20:44:50Z</time>
      </trkpt>
      <trkpt lat="48.51591" lon="-3.39632">
        <ele>169</ele>
        <time>2023-10-30T20:46:53Z</time>
      </trkpt>
      <trkpt lat="48.51597" lon="-3.39593">
        <ele>169</ele>
        <time>2023-10-30T20:47:28Z</time>
      </trkpt>
      <trkpt lat="48.51593" lon="-3.39571">
        <ele>169</ele>
        <time>2023-10-30T20:47:49Z</time>
      </trkpt>
      <trkpt lat="48.51594" lon="-3.39549">
        <ele>170</ele>
        <time>2023-10-30T20:48:08Z</time>
      </trkpt>
      <trkpt lat="48.51604" lon="-3.39504">
        <ele>173</ele>
        <time>2023-10-30T20:48:50Z</time>
      </trkpt>
      <trkpt lat="48.51616" lon="-3.39479">
        <ele>174</ele>
        <time>2023-10-30T20:49:17Z</time>
      </trkpt>
      <trkpt lat="48.51632" lon="-3.394">
        <ele>177</ele>
        <time>2023-10-30T20:50:30Z</time>
      </trkpt>
      <trkpt lat="48.51635" lon="-3.3938">
        <ele>178</ele>
        <time>2023-10-30T20:50:48Z</time>
      </trkpt>
      <trkpt lat="48.5163" lon="-3.39359">
        <ele>179</ele>
        <time>2023-10-30T20:51:08Z</time>
      </trkpt>
      <trkpt lat="48.51631" lon="-3.39346">
        <ele>180</ele>
        <time>2023-10-30T20:51:20Z</time>
      </trkpt>
      <trkpt lat="48.51635" lon="-3.39357">
        <ele>179</ele>
        <time>2023-10-30T20:51:31Z</time>
      </trkpt>
      <trkpt lat="48.51632" lon="-3.3937">
        <ele>179</ele>
        <time>2023-10-30T20:51:43Z</time>
      </trkpt>
      <trkpt lat="48.51637" lon="-3.39354">
        <ele>179</ele>
        <time>2023-10-30T20:51:59Z</time>
      </trkpt>
      <trkpt lat="48.51664" lon="-3.39347">
        <ele>181</ele>
        <time>2023-10-30T20:52:35Z</time>
      </trkpt>
      <trkpt lat="48.5168" lon="-3.39334">
        <ele>181</ele>
        <time>2023-10-30T20:52:59Z</time>
      </trkpt>
      <trkpt lat="48.51717" lon="-3.39288">
        <ele>181</ele>
        <time>2023-10-30T20:54:03Z</time>
      </trkpt>
      <trkpt lat="48.51739" lon="-3.39243">
        <ele>183</ele>
        <time>2023-10-30T20:54:53Z</time>
      </trkpt>
      <trkpt lat="48.51731" lon="-3.3924">
        <ele>182</ele>
        <time>2023-10-30T20:55:04Z</time>
      </trkpt>
      <trkpt lat="48.51736" lon="-3.39234">
        <ele>183</ele>
        <time>2023-10-30T20:55:12Z</time>
      </trkpt>
      <trkpt lat="48.51756" lon="-3.39224">
        <ele>183</ele>
        <time>2023-10-30T20:55:41Z</time>
      </trkpt>
      <trkpt lat="48.51777" lon="-3.39224">
        <ele>183</ele>
        <time>2023-10-30T20:56:09Z</time>
      </trkpt>
      <trkpt lat="48.51788" lon="-3.39226">
        <ele>183</ele>
        <time>2023-10-30T20:56:23Z</time>
      </trkpt>
      <trkpt lat="48.51804" lon="-3.39233">
        <ele>182</ele>
        <time>2023-10-30T20:56:46Z</time>
      </trkpt>
      <trkpt lat="48.51832" lon="-3.39234">
        <ele>182</ele>
        <time>2023-10-30T20:57:23Z</time>
      </trkpt>
      <trkpt lat="48.5184" lon="-3.39243">
        <ele>181</ele>
        <time>2023-10-30T20:57:36Z</time>
      </trkpt>
      <trkpt lat="48.51853" lon="-3.39248">
        <ele>180</ele>
        <time>2023-10-30T20:57:54Z</time>
      </trkpt>
      <trkpt lat="48.51887" lon="-3.39249">
        <ele>178</ele>
        <time>2023-10-30T20:58:40Z</time>
      </trkpt>
      <trkpt lat="48.51953" lon="-3.39266">
        <ele>172</ele>
        <time>2023-10-30T21:00:09Z</time>
      </trkpt>
      <trkpt lat="48.51968" lon="-3.39273">
        <ele>170</ele>
        <time>2023-10-30T21:00:30Z</time>
      </trkpt>
      <trkpt lat="48.51987" lon="-3.39288">
        <ele>167</ele>
        <time>2023-10-30T21:00:58Z</time>
      </trkpt>
      <trkpt lat="48.52003" lon="-3.39303">
        <ele>164</ele>
        <time>2023-10-30T21:01:24Z</time>
      </trkpt>
      <trkpt lat="48.52022" lon="-3.39326">
        <ele>160</ele>
        <time>2023-10-30T21:01:56Z</time>
      </trkpt>
      <trkpt lat="48.52053" lon="-3.39374">
        <ele>155</ele>
        <time>2023-10-30T21:02:55Z</time>
      </trkpt>
      <trkpt lat="48.52075" lon="-3.39394">
        <ele>152</ele>
        <time>2023-10-30T21:03:30Z</time>
      </trkpt>
      <trkpt lat="48.5211" lon="-3.39434">
        <ele>146</ele>
        <time>2023-10-30T21:04:28Z</time>
      </trkpt>
      <trkpt lat="48.52114" lon="-3.3945">
        <ele>145</ele>
        <time>2023-10-30T21:04:43Z</time>
      </trkpt>
      <trkpt lat="48.52136" lon="-3.39483">
        <ele>142</ele>
        <time>2023-10-30T21:05:25Z</time>
      </trkpt>
      <trkpt lat="48.52137" lon="-3.39495">
        <ele>142</ele>
        <time>2023-10-30T21:05:35Z</time>
      </trkpt>
      <trkpt lat="48.52175" lon="-3.3953">
        <ele>135</ele>
        <time>2023-10-30T21:06:35Z</time>
      </trkpt>
      <trkpt lat="48.52183" lon="-3.39546">
        <ele>133</ele>
        <time>2023-10-30T21:06:53Z</time>
      </trkpt>
      <trkpt lat="48.52195" lon="-3.39555">
        <ele>130</ele>
        <time>2023-10-30T21:07:10Z</time>
      </trkpt>
      <trkpt lat="48.52198" lon="-3.39563">
        <ele>129</ele>
        <time>2023-10-30T21:07:19Z</time>
      </trkpt>
      <trkpt lat="48.52208" lon="-3.39565">
        <ele>127</ele>
        <time>2023-10-30T21:07:32Z</time>
      </trkpt>
      <trkpt lat="48.5222" lon="-3.39538">
        <ele>123</ele>
        <time>2023-10-30T21:08:01Z</time>
      </trkpt>
      <trkpt lat="48.52224" lon="-3.39522">
        <ele>122</ele>
        <time>2023-10-30T21:08:16Z</time>
      </trkpt>
      <trkpt lat="48.52227" lon="-3.39485">
        <ele>121</ele>
        <time>2023-10-30T21:08:49Z</time>
      </trkpt>
      <trkpt lat="48.52222" lon="-3.39462">
        <ele>122</ele>
        <time>2023-10-30T21:09:10Z</time>
      </trkpt>
      <trkpt lat="48.52227" lon="-3.39457">
        <ele>121</ele>
        <time>2023-10-30T21:09:18Z</time>
      </trkpt>
      <trkpt lat="48.52213" lon="-3.3943">
        <ele>124</ele>
        <time>2023-10-30T21:09:48Z</time>
      </trkpt>
      <trkpt lat="48.52178" lon="-3.39393">
        <ele>131</ele>
        <time>2023-10-30T21:10:45Z</time>
      </trkpt>
      <trkpt lat="48.52155" lon="-3.39352">
        <ele>134</ele>
        <time>2023-10-30T21:11:33Z</time>
      </trkpt>
      <trkpt lat="48.52148" lon="-3.39332">
        <ele>134</ele>
        <time>2023-10-30T21:11:53Z</time>
      </trkpt>
      <trkpt lat="48.52143" lon="-3.39306">
        <ele>134</ele>
        <time>2023-10-30T21:12:17Z</time>
      </trkpt>
      <trkpt lat="48.52133" lon="-3.39294">
        <ele>135</ele>
        <time>2023-10-30T21:12:34Z</time>
      </trkpt>
      <trkpt lat="48.52105" lon="-3.39209">
        <ele>137</ele>
        <time>2023-10-30T21:13:58Z</time>
      </trkpt>
      <trkpt lat="48.52081" lon="-3.3916">
        <ele>140</ele>
        <time>2023-10-30T21:14:52Z</time>
      </trkpt>
      <trkpt lat="48.52079" lon="-3.39121">
        <ele>138</ele>
        <time>2023-10-30T21:15:26Z</time>
      </trkpt>
      <trkpt lat="48.52074" lon="-3.39095">
        <ele>137</ele>
        <time>2023-10-30T21:15:50Z</time>
      </trkpt>
      <trkpt lat="48.52074" lon="-3.3907">
        <ele>137</ele>
        <time>2023-10-30T21:16:12Z</time>
      </trkpt>
      <trkpt lat="48.52059" lon="-3.3901">
        <ele>140</ele>
        <time>2023-10-30T21:17:09Z</time>
      </trkpt>
      <trkpt lat="48.52028" lon="-3.38946">
        <ele>148</ele>
        <time>2023-10-30T21:18:19Z</time>
      </trkpt>
      <trkpt lat="48.52013" lon="-3.38939">
        <ele>149</ele>
        <time>2023-10-30T21:18:40Z</time>
      </trkpt>
      <trkpt lat="48.51953" lon="-3.38839">
        <ele>154</ele>
        <time>2023-10-30T21:20:39Z</time>
      </trkpt>
      <trkpt lat="48.51946" lon="-3.38819">
        <ele>154</ele>
        <time>2023-10-30T21:20:59Z</time>
      </trkpt>
      <trkpt lat="48.51904" lon="-3.38798">
        <ele>156</ele>
        <time>2023-10-30T21:21:58Z</time>
      </trkpt>
      <trkpt lat="48.51885" lon="-3.38793">
        <ele>158</ele>
        <time>2023-10-30T21:22:24Z</time>
      </trkpt>
      <trkpt lat="48.51857" lon="-3.38792">
        <ele>160</ele>
        <time>2023-10-30T21:23:01Z</time>
      </trkpt>
      <trkpt lat="48.51836" lon="-3.38787">
        <ele>162</ele>
        <time>2023-10-30T21:23:30Z</time>
      </trkpt>
      <trkpt lat="48.51815" lon="-3.38791">
        <ele>164</ele>
        <time>2023-10-30T21:23:58Z</time>
      </trkpt>
      <trkpt lat="48.51806" lon="-3.3879">
        <ele>165</ele>
        <time>2023-10-30T21:24:10Z</time>
      </trkpt>
      <trkpt lat="48.51806" lon="-3.38786">
        <ele>164</ele>
        <time>2023-10-30T21:24:14Z</time>
      </trkpt>
      <trkpt lat="48.518" lon="-3.38785">
        <ele>164</ele>
        <time>2023-10-30T21:24:22Z</time>
      </trkpt>
      <trkpt lat="48.51769" lon="-3.38789">
        <ele>168</ele>
        <time>2023-10-30T21:25:03Z</time>
      </trkpt>
      <trkpt lat="48.51758" lon="-3.38785">
        <ele>168</ele>
        <time>2023-10-30T21:25:18Z</time>
      </trkpt>
      <trkpt lat="48.51756" lon="-3.38787">
        <ele>168</ele>
        <time>2023-10-30T21:25:22Z</time>
      </trkpt>
      <trkpt lat="48.5173" lon="-3.38771">
        <ele>168</ele>
        <time>2023-10-30T21:25:59Z</time>
      </trkpt>
      <trkpt lat="48.51723" lon="-3.38769">
        <ele>169</ele>
        <time>2023-10-30T21:26:09Z</time>
      </trkpt>
      <trkpt lat="48.51685" lon="-3.3873">
        <ele>170</ele>
        <time>2023-10-30T21:27:10Z</time>
      </trkpt>
      <trkpt lat="48.51668" lon="-3.38708">
        <ele>169</ele>
        <time>2023-10-30T21:27:40Z</time>
      </trkpt>
      <trkpt lat="48.51638" lon="-3.38686">
        <ele>167</ele>
        <time>2023-10-30T21:28:24Z</time>
      </trkpt>
      <trkpt lat="48.51617" lon="-3.38684">
        <ele>168</ele>
        <time>2023-10-30T21:28:52Z</time>
      </trkpt>
      <trkpt lat="48.51617" lon="-3.38669">
        <ele>166</ele>
        <time>2023-10-30T21:29:06Z</time>
      </trkpt>
      <trkpt lat="48.51605" lon="-3.38597">
        <ele>163</ele>
        <time>2023-10-30T21:30:11Z</time>
      </trkpt>
      <trkpt lat="48.51602" lon="-3.38558">
        <ele>162</ele>
        <time>2023-10-30T21:30:46Z</time>
      </trkpt>
      <trkpt lat="48.51597" lon="-3.3854">
        <ele>161</ele>
        <time>2023-10-30T21:31:03Z</time>
      </trkpt>
      <trkpt lat="48.51577" lon="-3.3841">
        <ele>160</ele>
        <time>2023-10-30T21:33:01Z</time>
      </trkpt>
      <trkpt lat="48.51565" lon="-3.38299">
        <ele>162</ele>
        <time>2023-10-30T21:34:41Z</time>
      </trkpt>
      <trkpt lat="48.51554" lon="-3.38243">
        <ele>163</ele>
        <time>2023-10-30T21:35:32Z</time>
      </trkpt>
      <trkpt lat="48.51543" lon="-3.38159">
        <ele>166</ele>
        <time>2023-10-30T21:36:48Z</time>
      </trkpt>
      <trkpt lat="48.51527" lon="-3.38094">
        <ele>169</ele>
        <time>2023-10-30T21:37:49Z</time>
      </trkpt>
      <trkpt lat="48.51521" lon="-3.38026">
        <ele>170</ele>
        <time>2023-10-30T21:38:50Z</time>
      </trkpt>
      <trkpt lat="48.51489" lon="-3.37978">
        <ele>175</ele>
        <time>2023-10-30T21:39:50Z</time>
      </trkpt>
      <trkpt lat="48.51485" lon="-3.37965">
        <ele>176</ele>
        <time>2023-10-30T21:40:03Z</time>
      </trkpt>
      <trkpt lat="48.51459" lon="-3.37924">
        <ele>179</ele>
        <time>2023-10-30T21:40:53Z</time>
      </trkpt>
      <trkpt lat="48.51454" lon="-3.37906">
        <ele>179</ele>
        <time>2023-10-30T21:41:10Z</time>
      </trkpt>
      <trkpt lat="48.51443" lon="-3.37887">
        <ele>180</ele>
        <time>2023-10-30T21:41:32Z</time>
      </trkpt>
      <trkpt lat="48.51424" lon="-3.37871">
        <ele>181</ele>
        <time>2023-10-30T21:42:01Z</time>
      </trkpt>
      <trkpt lat="48.51403" lon="-3.37845">
        <ele>183</ele>
        <time>2023-10-30T21:42:38Z</time>
      </trkpt>
      <trkpt lat="48.51393" lon="-3.37836">
        <ele>184</ele>
        <time>2023-10-30T21:42:53Z</time>
      </trkpt>
      <trkpt lat="48.51388" lon="-3.37822">
        <ele>185</ele>
        <time>2023-10-30T21:43:07Z</time>
      </trkpt>
      <trkpt lat="48.51385" lon="-3.37788">
        <ele>186</ele>
        <time>2023-10-30T21:43:38Z</time>
      </trkpt>
      <trkpt lat="48.5138" lon="-3.37768">
        <ele>187</ele>
        <time>2023-10-30T21:43:56Z</time>
      </trkpt>
      <trkpt lat="48.51328" lon="-3.37743">
        <ele>190</ele>
        <time>2023-10-30T21:45:09Z</time>
      </trkpt>
      <trkpt lat="48.51283" lon="-3.37735">
        <ele>192</ele>
        <time>2023-10-30T21:46:10Z</time>
      </trkpt>
      <trkpt lat="48.51263" lon="-3.37726">
        <ele>193</ele>
        <time>2023-10-30T21:46:38Z</time>
      </trkpt>
      <trkpt lat="48.5121" lon="-3.37721">
        <ele>195</ele>
        <time>2023-10-30T21:47:48Z</time>
      </trkpt>
      <trkpt lat="48.51178" lon="-3.37712">
        <ele>196</ele>
        <time>2023-10-30T21:48:32Z</time>
      </trkpt>
      <trkpt lat="48.51168" lon="-3.37717">
        <ele>196</ele>
        <time>2023-10-30T21:48:46Z</time>
      </trkpt>
      <trkpt lat="48.51161" lon="-3.37713">
        <ele>196</ele>
        <time>2023-10-30T21:48:56Z</time>
      </trkpt>
      <trkpt lat="48.51103" lon="-3.37708">
        <ele>197</ele>
        <time>2023-10-30T21:50:14Z</time>
      </trkpt>
      <trkpt lat="48.51083" lon="-3.37703">
        <ele>197</ele>
        <time>2023-10-30T21:50:41Z</time>
      </trkpt>
      <trkpt lat="48.51063" lon="-3.37694">
        <ele>198</ele>
        <time>2023-10-30T21:51:08Z</time>
      </trkpt>
      <trkpt lat="48.51054" lon="-3.37685">
        <ele>199</ele>
        <time>2023-10-30T21:51:23Z</time>
      </trkpt>
      <trkpt lat="48.51051" lon="-3.37677">
        <ele>199</ele>
        <time>2023-10-30T21:51:31Z</time>
      </trkpt>
      <trkpt lat="48.51058" lon="-3.37669">
        <ele>199</ele>
        <time>2023-10-30T21:51:43Z</time>
      </trkpt>
      <trkpt lat="48.51049" lon="-3.377">
        <ele>199</ele>
        <time>2023-10-30T21:52:13Z</time>
      </trkpt>
      <trkpt lat="48.51057" lon="-3.37678">
        <ele>199</ele>
        <time>2023-10-30T21:52:35Z</time>
      </trkpt>
      <trkpt lat="48.51053" lon="-3.37682">
        <ele>199</ele>
        <time>2023-10-30T21:52:41Z</time>
      </trkpt>
      <trkpt lat="48.51048" lon="-3.3768">
        <ele>199</ele>
        <time>2023-10-30T21:52:48Z</time>
      </trkpt>
      <trkpt lat="48.51069" lon="-3.3769">
        <ele>198</ele>
        <time>2023-10-30T21:53:17Z</time>
      </trkpt>
      <trkpt lat="48.51101" lon="-3.377">
        <ele>197</ele>
        <time>2023-10-30T21:54:01Z</time>
      </trkpt>
      <trkpt lat="48.51115" lon="-3.37702">
        <ele>197</ele>
        <time>2023-10-30T21:54:20Z</time>
      </trkpt>
      <trkpt lat="48.51127" lon="-3.37654">
        <ele>200</ele>
        <time>2023-10-30T21:55:05Z</time>
      </trkpt>
      <trkpt lat="48.51141" lon="-3.37615">
        <ele>205</ele>
        <time>2023-10-30T21:55:44Z</time>
      </trkpt>
      <trkpt lat="48.51149" lon="-3.37575">
        <ele>210</ele>
        <time>2023-10-30T21:56:21Z</time>
      </trkpt>
      <trkpt lat="48.51138" lon="-3.37551">
        <ele>211</ele>
        <time>2023-10-30T21:56:47Z</time>
      </trkpt>
      <trkpt lat="48.5112" lon="-3.37541">
        <ele>212</ele>
        <time>2023-10-30T21:57:13Z</time>
      </trkpt>
      <trkpt lat="48.51102" lon="-3.37537">
        <ele>212</ele>
        <time>2023-10-30T21:57:37Z</time>
      </trkpt>
      <trkpt lat="48.51085" lon="-3.3753">
        <ele>213</ele>
        <time>2023-10-30T21:58:01Z</time>
      </trkpt>
      <trkpt lat="48.51071" lon="-3.3746">
        <ele>217</ele>
        <time>2023-10-30T21:59:05Z</time>
      </trkpt>
      <trkpt lat="48.51066" lon="-3.37404">
        <ele>220</ele>
        <time>2023-10-30T21:59:55Z</time>
      </trkpt>
      <trkpt lat="48.51063" lon="-3.37314">
        <ele>223</ele>
        <time>2023-10-30T22:01:15Z</time>
      </trkpt>
      <trkpt lat="48.51057" lon="-3.37275">
        <ele>224</ele>
        <time>2023-10-30T22:01:50Z</time>
      </trkpt>
      <trkpt lat="48.51054" lon="-3.37207">
        <ele>230</ele>
        <time>2023-10-30T22:02:50Z</time>
      </trkpt>
      <trkpt lat="48.51065" lon="-3.37152">
        <ele>236</ele>
        <time>2023-10-30T22:03:41Z</time>
      </trkpt>
      <trkpt lat="48.51122" lon="-3.36948">
        <ele>248</ele>
        <time>2023-10-30T22:06:57Z</time>
      </trkpt>
      <trkpt lat="48.51131" lon="-3.36897">
        <ele>250</ele>
        <time>2023-10-30T22:07:44Z</time>
      </trkpt>
      <trkpt lat="48.51147" lon="-3.36852">
        <ele>252</ele>
        <time>2023-10-30T22:08:29Z</time>
      </trkpt>
      <trkpt lat="48.51185" lon="-3.36711">
        <ele>261</ele>
        <time>2023-10-30T22:10:43Z</time>
      </trkpt>
      <trkpt lat="48.51194" lon="-3.36658">
        <ele>264</ele>
        <time>2023-10-30T22:11:32Z</time>
      </trkpt>
      <trkpt lat="48.51212" lon="-3.36598">
        <ele>265</ele>
        <time>2023-10-30T22:12:30Z</time>
      </trkpt>
      <trkpt lat="48.51215" lon="-3.36575">
        <ele>265</ele>
        <time>2023-10-30T22:12:51Z</time>
      </trkpt>
      <trkpt lat="48.51212" lon="-3.36391">
        <ele>254</ele>
        <time>2023-10-30T22:15:33Z</time>
      </trkpt>
      <trkpt lat="48.51217" lon="-3.36358">
        <ele>251</ele>
        <time>2023-10-30T22:16:03Z</time>
      </trkpt>
      <trkpt lat="48.51212" lon="-3.36292">
        <ele>245</ele>
        <time>2023-10-30T22:17:02Z</time>
      </trkpt>
      <trkpt lat="48.51214" lon="-3.36114">
        <ele>228</ele>
        <time>2023-10-30T22:19:39Z</time>
      </trkpt>
      <trkpt lat="48.51211" lon="-3.36069">
        <ele>222</ele>
        <time>2023-10-30T22:20:19Z</time>
      </trkpt>
      <trkpt lat="48.51213" lon="-3.36041">
        <ele>219</ele>
        <time>2023-10-30T22:20:44Z</time>
      </trkpt>
      <trkpt lat="48.51211" lon="-3.36004">
        <ele>215</ele>
        <time>2023-10-30T22:21:17Z</time>
      </trkpt>
      <trkpt lat="48.5122" lon="-3.35951">
        <ele>207</ele>
        <time>2023-10-30T22:22:05Z</time>
      </trkpt>
      <trkpt lat="48.5123" lon="-3.35925">
        <ele>203</ele>
        <time>2023-10-30T22:22:32Z</time>
      </trkpt>
      <trkpt lat="48.51231" lon="-3.35904">
        <ele>200</ele>
        <time>2023-10-30T22:22:51Z</time>
      </trkpt>
      <trkpt lat="48.51228" lon="-3.3588">
        <ele>198</ele>
        <time>2023-10-30T22:23:12Z</time>
      </trkpt>
      <trkpt lat="48.51242" lon="-3.35858">
        <ele>194</ele>
        <time>2023-10-30T22:23:39Z</time>
      </trkpt>
      <trkpt lat="48.51249" lon="-3.35825">
        <ele>190</ele>
        <time>2023-10-30T22:24:10Z</time>
      </trkpt>
      <trkpt lat="48.51248" lon="-3.35777">
        <ele>186</ele>
        <time>2023-10-30T22:24:52Z</time>
      </trkpt>
      <trkpt lat="48.5125" lon="-3.35759">
        <ele>185</ele>
        <time>2023-10-30T22:25:08Z</time>
      </trkpt>
      <trkpt lat="48.51247" lon="-3.35714">
        <ele>182</ele>
        <time>2023-10-30T22:25:48Z</time>
      </trkpt>
      <trkpt lat="48.51264" lon="-3.35646">
        <ele>177</ele>
        <time>2023-10-30T22:26:53Z</time>
      </trkpt>
      <trkpt lat="48.51263" lon="-3.35615">
        <ele>176</ele>
        <time>2023-10-30T22:27:20Z</time>
      </trkpt>
      <trkpt lat="48.51258" lon="-3.35597">
        <ele>176</ele>
        <time>2023-10-30T22:27:37Z</time>
      </trkpt>
      <trkpt lat="48.51237" lon="-3.35544">
        <ele>171</ele>
        <time>2023-10-30T22:28:32Z</time>
      </trkpt>
      <trkpt lat="48.51231" lon="-3.35518">
        <ele>169</ele>
        <time>2023-10-30T22:28:56Z</time>
      </trkpt>
      <trkpt lat="48.51222" lon="-3.35493">
        <ele>166</ele>
        <time>2023-10-30T22:29:21Z</time>
      </trkpt>
      <trkpt lat="48.51215" lon="-3.35486">
        <ele>165</ele>
        <time>2023-10-30T22:29:33Z</time>
      </trkpt>
      <trkpt lat="48.51207" lon="-3.3547">
        <ele>163</ele>
        <time>2023-10-30T22:29:50Z</time>
      </trkpt>
      <trkpt lat="48.51208" lon="-3.35445">
        <ele>160</ele>
        <time>2023-10-30T22:30:13Z</time>
      </trkpt>
      <trkpt lat="48.51212" lon="-3.35432">
        <ele>159</ele>
        <time>2023-10-30T22:30:25Z</time>
      </trkpt>
      <trkpt lat="48.5123" lon="-3.35429">
        <ele>158</ele>
        <time>2023-10-30T22:30:49Z</time>
      </trkpt>
      <trkpt lat="48.51232" lon="-3.35419">
        <ele>157</ele>
        <time>2023-10-30T22:30:59Z</time>
      </trkpt>
      <trkpt lat="48.51234" lon="-3.35366">
        <ele>152</ele>
        <time>2023-10-30T22:31:46Z</time>
      </trkpt>
      <trkpt lat="48.51226" lon="-3.35348">
        <ele>151</ele>
        <time>2023-10-30T22:32:05Z</time>
      </trkpt>
      <trkpt lat="48.51225" lon="-3.35306">
        <ele>149</ele>
        <time>2023-10-30T22:32:42Z</time>
      </trkpt>
      <trkpt lat="48.5123" lon="-3.35289">
        <ele>149</ele>
        <time>2023-10-30T22:32:58Z</time>
      </trkpt>
      <trkpt lat="48.51237" lon="-3.35279">
        <ele>149</ele>
        <time>2023-10-30T22:33:11Z</time>
      </trkpt>
      <trkpt lat="48.51249" lon="-3.35276">
        <ele>148</ele>
        <time>2023-10-30T22:33:27Z</time>
      </trkpt>
      <trkpt lat="48.51302" lon="-3.35283">
        <ele>147</ele>
        <time>2023-10-30T22:34:38Z</time>
      </trkpt>
      <trkpt lat="48.51423" lon="-3.35309">
        <ele>145</ele>
        <time>2023-10-30T22:37:21Z</time>
      </trkpt>
      <trkpt lat="48.51481" lon="-3.35325">
        <ele>143</ele>
        <time>2023-10-30T22:38:40Z</time>
      </trkpt>
      <trkpt lat="48.51573" lon="-3.35361">
        <ele>142</ele>
        <time>2023-10-30T22:40:47Z</time>
      </trkpt>
      <trkpt lat="48.51702" lon="-3.35397">
        <ele>142</ele>
        <time>2023-10-30T22:43:42Z</time>
      </trkpt>
      <trkpt lat="48.5175" lon="-3.35415">
        <ele>141</ele>
        <time>2023-10-30T22:44:48Z</time>
      </trkpt>
      <trkpt lat="48.51788" lon="-3.35423">
        <ele>139</ele>
        <time>2023-10-30T22:45:39Z</time>
      </trkpt>
      <trkpt lat="48.51826" lon="-3.35437">
        <ele>138</ele>
        <time>2023-10-30T22:46:31Z</time>
      </trkpt>
      <trkpt lat="48.51883" lon="-3.3545">
        <ele>138</ele>
        <time>2023-10-30T22:47:48Z</time>
      </trkpt>
      <trkpt lat="48.51905" lon="-3.35462">
        <ele>138</ele>
        <time>2023-10-30T22:48:20Z</time>
      </trkpt>
      <trkpt lat="48.51914" lon="-3.3548">
        <ele>138</ele>
        <time>2023-10-30T22:48:40Z</time>
      </trkpt>
      <trkpt lat="48.51915" lon="-3.35515">
        <ele>138</ele>
        <time>2023-10-30T22:49:10Z</time>
      </trkpt>
      <trkpt lat="48.51914" lon="-3.35541">
        <ele>139</ele>
        <time>2023-10-30T22:49:33Z</time>
      </trkpt>
      <trkpt lat="48.51907" lon="-3.35575">
        <ele>140</ele>
        <time>2023-10-30T22:50:05Z</time>
      </trkpt>
      <trkpt lat="48.51903" lon="-3.35622">
        <ele>143</ele>
        <time>2023-10-30T22:50:47Z</time>
      </trkpt>
      <trkpt lat="48.51912" lon="-3.3564">
        <ele>144</ele>
        <time>2023-10-30T22:51:07Z</time>
      </trkpt>
      <trkpt lat="48.51912" lon="-3.35658">
        <ele>145</ele>
        <time>2023-10-30T22:51:23Z</time>
      </trkpt>
      <trkpt lat="48.51926" lon="-3.35727">
        <ele>146</ele>
        <time>2023-10-30T22:52:26Z</time>
      </trkpt>
      <trkpt lat="48.5196" lon="-3.35786">
        <ele>146</ele>
        <time>2023-10-30T22:53:36Z</time>
      </trkpt>
      <trkpt lat="48.5197" lon="-3.35817">
        <ele>147</ele>
        <time>2023-10-30T22:54:06Z</time>
      </trkpt>
      <trkpt lat="48.51976" lon="-3.35845">
        <ele>148</ele>
        <time>2023-10-30T22:54:32Z</time>
      </trkpt>
      <trkpt lat="48.51977" lon="-3.35863">
        <ele>149</ele>
        <time>2023-10-30T22:54:48Z</time>
      </trkpt>
      <trkpt lat="48.51973" lon="-3.35884">
        <ele>150</ele>
        <time>2023-10-30T22:55:07Z</time>
      </trkpt>
      <trkpt lat="48.51977" lon="-3.35898">
        <ele>150</ele>
        <time>2023-10-30T22:55:21Z</time>
      </trkpt>
      <trkpt lat="48.5199" lon="-3.3592">
        <ele>151</ele>
        <time>2023-10-30T22:55:47Z</time>
      </trkpt>
      <trkpt lat="48.52074" lon="-3.35964">
        <ele>145</ele>
        <time>2023-10-30T22:57:46Z</time>
      </trkpt>
      <trkpt lat="48.52081" lon="-3.35967">
        <ele>145</ele>
        <time>2023-10-30T22:57:55Z</time>
      </trkpt>
      <trkpt lat="48.52088" lon="-3.35966">
        <ele>144</ele>
        <time>2023-10-30T22:58:05Z</time>
      </trkpt>
      <trkpt lat="48.52094" lon="-3.3596">
        <ele>144</ele>
        <time>2023-10-30T22:58:14Z</time>
      </trkpt>
      <trkpt lat="48.52087" lon="-3.3595">
        <ele>144</ele>
        <time>2023-10-30T22:58:27Z</time>
      </trkpt>
      <trkpt lat="48.52079" lon="-3.35873">
        <ele>143</ele>
        <time>2023-10-30T22:59:36Z</time>
      </trkpt>
      <trkpt lat="48.5208" lon="-3.35832">
        <ele>142</ele>
        <time>2023-10-30T23:00:12Z</time>
      </trkpt>
      <trkpt lat="48.52075" lon="-3.35782">
        <ele>141</ele>
        <time>2023-10-30T23:00:57Z</time>
      </trkpt>
      <trkpt lat="48.5208" lon="-3.35723">
        <ele>139</ele>
        <time>2023-10-30T23:01:50Z</time>
      </trkpt>
      <trkpt lat="48.52088" lon="-3.35692">
        <ele>138</ele>
        <time>2023-10-30T23:02:19Z</time>
      </trkpt>
      <trkpt lat="48.52095" lon="-3.35684">
        <ele>138</ele>
        <time>2023-10-30T23:02:31Z</time>
      </trkpt>
      <trkpt lat="48.52117" lon="-3.35677">
        <ele>137</ele>
        <time>2023-10-30T23:03:01Z</time>
      </trkpt>
      <trkpt lat="48.5213" lon="-3.35677">
        <ele>137</ele>
        <time>2023-10-30T23:03:18Z</time>
      </trkpt>
      <trkpt lat="48.52199" lon="-3.35748">
        <ele>135</ele>
        <time>2023-10-30T23:05:09Z</time>
      </trkpt>
      <trkpt lat="48.52204" lon="-3.35766">
        <ele>135</ele>
        <time>2023-10-30T23:05:27Z</time>
      </trkpt>
      <trkpt lat="48.52202" lon="-3.35795">
        <ele>135</ele>
        <time>2023-10-30T23:05:52Z</time>
      </trkpt>
      <trkpt lat="48.52196" lon="-3.35817">
        <ele>136</ele>
        <time>2023-10-30T23:06:13Z</time>
      </trkpt>
      <trkpt lat="48.5219" lon="-3.35873">
        <ele>137</ele>
        <time>2023-10-30T23:07:04Z</time>
      </trkpt>
      <trkpt lat="48.52196" lon="-3.359">
        <ele>138</ele>
        <time>2023-10-30T23:07:29Z</time>
      </trkpt>
      <trkpt lat="48.52245" lon="-3.35966">
        <ele>139</ele>
        <time>2023-10-30T23:08:56Z</time>
      </trkpt>
      <trkpt lat="48.52267" lon="-3.3599">
        <ele>139</ele>
        <time>2023-10-30T23:09:33Z</time>
      </trkpt>
      <trkpt lat="48.52316" lon="-3.35989">
        <ele>140</ele>
        <time>2023-10-30T23:10:38Z</time>
      </trkpt>
      <trkpt lat="48.52375" lon="-3.35967">
        <ele>140</ele>
        <time>2023-10-30T23:11:59Z</time>
      </trkpt>
      <trkpt lat="48.52398" lon="-3.35954">
        <ele>138</ele>
        <time>2023-10-30T23:12:32Z</time>
      </trkpt>
      <trkpt lat="48.52421" lon="-3.35948">
        <ele>138</ele>
        <time>2023-10-30T23:13:03Z</time>
      </trkpt>
      <trkpt lat="48.52431" lon="-3.35942">
        <ele>137</ele>
        <time>2023-10-30T23:13:17Z</time>
      </trkpt>
      <trkpt lat="48.5244" lon="-3.35942">
        <ele>138</ele>
        <time>2023-10-30T23:13:29Z</time>
      </trkpt>
      <trkpt lat="48.52452" lon="-3.35946">
        <ele>139</ele>
        <time>2023-10-30T23:13:46Z</time>
      </trkpt>
      <trkpt lat="48.52465" lon="-3.35939">
        <ele>138</ele>
        <time>2023-10-30T23:14:04Z</time>
      </trkpt>
      <trkpt lat="48.52496" lon="-3.35935">
        <ele>139</ele>
        <time>2023-10-30T23:14:46Z</time>
      </trkpt>
      <trkpt lat="48.52536" lon="-3.35925">
        <ele>136</ele>
        <time>2023-10-30T23:15:40Z</time>
      </trkpt>
      <trkpt lat="48.52567" lon="-3.3593">
        <ele>136</ele>
        <time>2023-10-30T23:16:21Z</time>
      </trkpt>
      <trkpt lat="48.52596" lon="-3.35963">
        <ele>137</ele>
        <time>2023-10-30T23:17:10Z</time>
      </trkpt>
      <trkpt lat="48.52601" lon="-3.35981">
        <ele>138</ele>
        <time>2023-10-30T23:17:27Z</time>
      </trkpt>
      <trkpt lat="48.52595" lon="-3.36059">
        <ele>138</ele>
        <time>2023-10-30T23:18:37Z</time>
      </trkpt>
      <trkpt lat="48.52596" lon="-3.36094">
        <ele>138</ele>
        <time>2023-10-30T23:19:08Z</time>
      </trkpt>
      <trkpt lat="48.52592" lon="-3.36113">
        <ele>138</ele>
        <time>2023-10-30T23:19:25Z</time>
      </trkpt>
      <trkpt lat="48.52584" lon="-3.36129">
        <ele>139</ele>
        <time>2023-10-30T23:19:43Z</time>
      </trkpt>
      <trkpt lat="48.52569" lon="-3.36187">
        <ele>143</ele>
        <time>2023-10-30T23:20:38Z</time>
      </trkpt>
      <trkpt lat="48.52566" lon="-3.36213">
        <ele>144</ele>
        <time>2023-10-30T23:21:01Z</time>
      </trkpt>
      <trkpt lat="48.52568" lon="-3.36252">
        <ele>144</ele>
        <time>2023-10-30T23:21:36Z</time>
      </trkpt>
      <trkpt lat="48.52575" lon="-3.36277">
        <ele>142</ele>
        <time>2023-10-30T23:22:00Z</time>
      </trkpt>
      <trkpt lat="48.52585" lon="-3.36293">
        <ele>139</ele>
        <time>2023-10-30T23:22:19Z</time>
      </trkpt>
      <trkpt lat="48.52611" lon="-3.36325">
        <ele>135</ele>
        <time>2023-10-30T23:23:04Z</time>
      </trkpt>
      <trkpt lat="48.52622" lon="-3.36349">
        <ele>134</ele>
        <time>2023-10-30T23:23:30Z</time>
      </trkpt>
      <trkpt lat="48.52642" lon="-3.36413">
        <ele>133</ele>
        <time>2023-10-30T23:24:32Z</time>
      </trkpt>
      <trkpt lat="48.52642" lon="-3.36444">
        <ele>133</ele>
        <time>2023-10-30T23:25:00Z</time>
      </trkpt>
      <trkpt lat="48.52628" lon="-3.36469">
        <ele>133</ele>
        <time>2023-10-30T23:25:29Z</time>
      </trkpt>
      <trkpt lat="48.52605" lon="-3.365">
        <ele>135</ele>
        <time>2023-10-30T23:26:10Z</time>
      </trkpt>
      <trkpt lat="48.52585" lon="-3.36521">
        <ele>137</ele>
        <time>2023-10-30T23:26:42Z</time>
      </trkpt>
      <trkpt lat="48.52579" lon="-3.36532">
        <ele>138</ele>
        <time>2023-10-30T23:26:55Z</time>
      </trkpt>
      <trkpt lat="48.52551" lon="-3.36611">
        <ele>144</ele>
        <time>2023-10-30T23:28:14Z</time>
      </trkpt>
      <trkpt lat="48.52549" lon="-3.36682">
        <ele>147</ele>
        <time>2023-10-30T23:29:17Z</time>
      </trkpt>
      <trkpt lat="48.52561" lon="-3.36736">
        <ele>150</ele>
        <time>2023-10-30T23:30:07Z</time>
      </trkpt>
      <trkpt lat="48.52566" lon="-3.36797">
        <ele>154</ele>
        <time>2023-10-30T23:31:02Z</time>
      </trkpt>
      <trkpt lat="48.52566" lon="-3.36836">
        <ele>157</ele>
        <time>2023-10-30T23:31:36Z</time>
      </trkpt>
      <trkpt lat="48.52556" lon="-3.36871">
        <ele>160</ele>
        <time>2023-10-30T23:32:10Z</time>
      </trkpt>
      <trkpt lat="48.52541" lon="-3.36911">
        <ele>165</ele>
        <time>2023-10-30T23:32:50Z</time>
      </trkpt>
      <trkpt lat="48.52515" lon="-3.36966">
        <ele>172</ele>
        <time>2023-10-30T23:33:50Z</time>
      </trkpt>
      <trkpt lat="48.52511" lon="-3.37008">
        <ele>176</ele>
        <time>2023-10-30T23:34:28Z</time>
      </trkpt>
      <trkpt lat="48.52518" lon="-3.37052">
        <ele>179</ele>
        <time>2023-10-30T23:35:08Z</time>
      </trkpt>
      <trkpt lat="48.52496" lon="-3.3714">
        <ele>186</ele>
        <time>2023-10-30T23:36:31Z</time>
      </trkpt>
      <trkpt lat="48.52492" lon="-3.37165">
        <ele>188</ele>
        <time>2023-10-30T23:36:53Z</time>
      </trkpt>
      <trkpt lat="48.52505" lon="-3.37194">
        <ele>189</ele>
        <time>2023-10-30T23:37:24Z</time>
      </trkpt>
      <trkpt lat="48.52527" lon="-3.37233">
        <ele>188</ele>
        <time>2023-10-30T23:38:10Z</time>
      </trkpt>
      <trkpt lat="48.52549" lon="-3.37289">
        <ele>188</ele>
        <time>2023-10-30T23:39:07Z</time>
      </trkpt>
      <trkpt lat="48.52569" lon="-3.3741">
        <ele>191</ele>
        <time>2023-10-30T23:40:57Z</time>
      </trkpt>
      <trkpt lat="48.52585" lon="-3.37436">
        <ele>190</ele>
        <time>2023-10-30T23:41:29Z</time>
      </trkpt>
      <trkpt lat="48.52591" lon="-3.37441">
        <ele>190</ele>
        <time>2023-10-30T23:41:38Z</time>
      </trkpt>
      <trkpt lat="48.52609" lon="-3.37449">
        <ele>188</ele>
        <time>2023-10-30T23:42:03Z</time>
      </trkpt>
      <trkpt lat="48.52651" lon="-3.37462">
        <ele>182</ele>
        <time>2023-10-30T23:43:00Z</time>
      </trkpt>
      <trkpt lat="48.5269" lon="-3.37491">
        <ele>178</ele>
        <time>2023-10-30T23:43:58Z</time>
      </trkpt>
      <trkpt lat="48.527" lon="-3.37514">
        <ele>178</ele>
        <time>2023-10-30T23:44:23Z</time>
      </trkpt>
      <trkpt lat="48.52694" lon="-3.37635">
        <ele>184</ele>
        <time>2023-10-30T23:46:10Z</time>
      </trkpt>
      <trkpt lat="48.52705" lon="-3.37683">
        <ele>185</ele>
        <time>2023-10-30T23:46:55Z</time>
      </trkpt>
      <trkpt lat="48.52772" lon="-3.37768">
        <ele>183</ele>
        <time>2023-10-30T23:48:51Z</time>
      </trkpt>
      <trkpt lat="48.52789" lon="-3.37794">
        <ele>182</ele>
        <time>2023-10-30T23:49:24Z</time>
      </trkpt>
      <trkpt lat="48.52838" lon="-3.37851">
        <ele>180</ele>
        <time>2023-10-30T23:50:46Z</time>
      </trkpt>
      <trkpt lat="48.52857" lon="-3.37887">
        <ele>179</ele>
        <time>2023-10-30T23:51:27Z</time>
      </trkpt>
      <trkpt lat="48.52873" lon="-3.37907">
        <ele>178</ele>
        <time>2023-10-30T23:51:55Z</time>
      </trkpt>
      <trkpt lat="48.52884" lon="-3.37917">
        <ele>178</ele>
        <time>2023-10-30T23:52:12Z</time>
      </trkpt>
      <trkpt lat="48.52898" lon="-3.37918">
        <ele>178</ele>
        <time>2023-10-30T23:52:31Z</time>
      </trkpt>
      <trkpt lat="48.52952" lon="-3.37949">
        <ele>176</ele>
        <time>2023-10-30T23:53:48Z</time>
      </trkpt>
      <trkpt lat="48.52961" lon="-3.37955">
        <ele>176</ele>
        <time>2023-10-30T23:54:01Z</time>
      </trkpt>
      <trkpt lat="48.52973" lon="-3.37967">
        <ele>176</ele>
        <time>2023-10-30T23:54:20Z</time>
      </trkpt>
      <trkpt lat="48.52978" lon="-3.37976">
        <ele>176</ele>
        <time>2023-10-30T23:54:30Z</time>
      </trkpt>
      <trkpt lat="48.52984" lon="-3.3798">
        <ele>176</ele>
        <time>2023-10-30T23:54:39Z</time>
      </trkpt>
      <trkpt lat="48.52992" lon="-3.37976">
        <ele>175</ele>
        <time>2023-10-30T23:54:50Z</time>
      </trkpt>
      <trkpt lat="48.52991" lon="-3.37982">
        <ele>176</ele>
        <time>2023-10-30T23:54:56Z</time>
      </trkpt>
      <trkpt lat="48.52996" lon="-3.37992">
        <ele>176</ele>
        <time>2023-10-30T23:55:07Z</time>
      </trkpt>
      <trkpt lat="48.53008" lon="-3.38003">
        <ele>176</ele>
        <time>2023-10-30T23:55:26Z</time>
      </trkpt>
      <trkpt lat="48.53028" lon="-3.38033">
        <ele>176</ele>
        <time>2023-10-30T23:56:03Z</time>
      </trkpt>
      <trkpt lat="48.53045" lon="-3.38045">
        <ele>176</ele>
        <time>2023-10-30T23:56:28Z</time>
      </trkpt>
      <trkpt lat="48.53068" lon="-3.38069">
        <ele>176</ele>
        <time>2023-10-30T23:57:06Z</time>
      </trkpt>
      <trkpt lat="48.53088" lon="-3.3808">
        <ele>176</ele>
        <time>2023-10-30T23:57:34Z</time>
      </trkpt>
      <trkpt lat="48.53104" lon="-3.38086">
        <ele>176</ele>
        <time>2023-10-30T23:57:56Z</time>
      </trkpt>
      <trkpt lat="48.53118" lon="-3.38088">
        <ele>176</ele>
        <time>2023-10-30T23:58:15Z</time>
      </trkpt>
      <trkpt lat="48.5316" lon="-3.38114">
        <ele>177</ele>
        <time>2023-10-30T23:59:15Z</time>
      </trkpt>
      <trkpt lat="48.53188" lon="-3.38134">
        <ele>179</ele>
        <time>2023-10-30T23:59:57Z</time>
      </trkpt>
      <trkpt lat="48.53215" lon="-3.38166">
        <ele>181</ele>
        <time>2023-10-31T00:00:42Z</time>
      </trkpt>
      <trkpt lat="48.53217" lon="-3.38174">
        <ele>181</ele>
        <time>2023-10-31T00:00:50Z</time>
      </trkpt>
      <trkpt lat="48.53223" lon="-3.38172">
        <ele>182</ele>
        <time>2023-10-31T00:00:58Z</time>
      </trkpt>
      <trkpt lat="48.53226" lon="-3.38162">
        <ele>181</ele>
        <time>2023-10-31T00:01:08Z</time>
      </trkpt>
      <trkpt lat="48.53236" lon="-3.38159">
        <ele>181</ele>
        <time>2023-10-31T00:01:22Z</time>
      </trkpt>
      <trkpt lat="48.53236" lon="-3.38162">
        <ele>181</ele>
        <time>2023-10-31T00:01:24Z</time>
      </trkpt>
      <trkpt lat="48.53292" lon="-3.38075">
        <ele>174</ele>
        <time>2023-10-31T00:03:11Z</time>
      </trkpt>
      <trkpt lat="48.53304" lon="-3.38062">
        <ele>173</ele>
        <time>2023-10-31T00:03:31Z</time>
      </trkpt>
      <trkpt lat="48.53309" lon="-3.38062">
        <ele>173</ele>
        <time>2023-10-31T00:03:38Z</time>
      </trkpt>
      <trkpt lat="48.53332" lon="-3.38073">
        <ele>174</ele>
        <time>2023-10-31T00:04:10Z</time>
      </trkpt>
      <trkpt lat="48.53351" lon="-3.38087">
        <ele>172</ele>
        <time>2023-10-31T00:04:38Z</time>
      </trkpt>
      <trkpt lat="48.53361" lon="-3.38099">
        <ele>172</ele>
        <time>2023-10-31T00:04:55Z</time>
      </trkpt>
      <trkpt lat="48.53398" lon="-3.38122">
        <ele>168</ele>
        <time>2023-10-31T00:05:49Z</time>
      </trkpt>
      <trkpt lat="48.53409" lon="-3.38137">
        <ele>167</ele>
        <time>2023-10-31T00:06:08Z</time>
      </trkpt>
      <trkpt lat="48.53416" lon="-3.38188">
        <ele>167</ele>
        <time>2023-10-31T00:06:54Z</time>
      </trkpt>
      <trkpt lat="48.53427" lon="-3.382">
        <ele>165</ele>
        <time>2023-10-31T00:07:13Z</time>
      </trkpt>
      <trkpt lat="48.53449" lon="-3.38203">
        <ele>161</ele>
        <time>2023-10-31T00:07:42Z</time>
      </trkpt>
      <trkpt lat="48.53475" lon="-3.38226">
        <ele>156</ele>
        <time>2023-10-31T00:08:22Z</time>
      </trkpt>
      <trkpt lat="48.53483" lon="-3.3826">
        <ele>155</ele>
        <time>2023-10-31T00:08:54Z</time>
      </trkpt>
      <trkpt lat="48.53484" lon="-3.38356">
        <ele>153</ele>
        <time>2023-10-31T00:10:19Z</time>
      </trkpt>
      <trkpt lat="48.53488" lon="-3.38381">
        <ele>152</ele>
        <time>2023-10-31T00:10:42Z</time>
      </trkpt>
      <trkpt lat="48.535" lon="-3.38398">
        <ele>150</ele>
        <time>2023-10-31T00:11:04Z</time>
      </trkpt>
      <trkpt lat="48.53516" lon="-3.38406">
        <ele>149</ele>
        <time>2023-10-31T00:11:26Z</time>
      </trkpt>
      <trkpt lat="48.53565" lon="-3.38422">
        <ele>146</ele>
        <time>2023-10-31T00:12:33Z</time>
      </trkpt>
      <trkpt lat="48.53611" lon="-3.38449">
        <ele>145</ele>
        <time>2023-10-31T00:13:39Z</time>
      </trkpt>
      <trkpt lat="48.5363" lon="-3.38456">
        <ele>145</ele>
        <time>2023-10-31T00:14:05Z</time>
      </trkpt>
      <trkpt lat="48.53661" lon="-3.38487">
        <ele>146</ele>
        <time>2023-10-31T00:14:55Z</time>
      </trkpt>
      <trkpt lat="48.53671" lon="-3.38519">
        <ele>146</ele>
        <time>2023-10-31T00:15:26Z</time>
      </trkpt>
      <trkpt lat="48.5367" lon="-3.38529">
        <ele>146</ele>
        <time>2023-10-31T00:15:35Z</time>
      </trkpt>
      <trkpt lat="48.53663" lon="-3.38519">
        <ele>146</ele>
        <time>2023-10-31T00:15:48Z</time>
      </trkpt>
      <trkpt lat="48.53651" lon="-3.38519">
        <ele>146</ele>
        <time>2023-10-31T00:16:04Z</time>
      </trkpt>
      <trkpt lat="48.53625" lon="-3.38533">
        <ele>146</ele>
        <time>2023-10-31T00:16:40Z</time>
      </trkpt>
      <trkpt lat="48.53611" lon="-3.38535">
        <ele>146</ele>
        <time>2023-10-31T00:16:59Z</time>
      </trkpt>
      <trkpt lat="48.53568" lon="-3.38549">
        <ele>147</ele>
        <time>2023-10-31T00:17:58Z</time>
      </trkpt>
      <trkpt lat="48.53533" lon="-3.38555">
        <ele>149</ele>
        <time>2023-10-31T00:18:45Z</time>
      </trkpt>
      <trkpt lat="48.5352" lon="-3.38553">
        <ele>149</ele>
        <time>2023-10-31T00:19:02Z</time>
      </trkpt>
      <trkpt lat="48.53446" lon="-3.38562">
        <ele>154</ele>
        <time>2023-10-31T00:20:41Z</time>
      </trkpt>
      <trkpt lat="48.53382" lon="-3.38581">
        <ele>159</ele>
        <time>2023-10-31T00:22:08Z</time>
      </trkpt>
      <trkpt lat="48.53369" lon="-3.38591">
        <ele>160</ele>
        <time>2023-10-31T00:22:28Z</time>
      </trkpt>
      <trkpt lat="48.53344" lon="-3.38602">
        <ele>161</ele>
        <time>2023-10-31T00:23:03Z</time>
      </trkpt>
      <trkpt lat="48.5334" lon="-3.38609">
        <ele>161</ele>
        <time>2023-10-31T00:23:11Z</time>
      </trkpt>
      <trkpt lat="48.5332" lon="-3.38672">
        <ele>157</ele>
        <time>2023-10-31T00:24:13Z</time>
      </trkpt>
      <trkpt lat="48.53323" lon="-3.38673">
        <ele>157</ele>
        <time>2023-10-31T00:24:17Z</time>
      </trkpt>
      <trkpt lat="48.53325" lon="-3.38668">
        <ele>157</ele>
        <time>2023-10-31T00:24:22Z</time>
      </trkpt>
      <trkpt lat="48.53319" lon="-3.38682">
        <ele>157</ele>
        <time>2023-10-31T00:24:37Z</time>
      </trkpt>
      <trkpt lat="48.53304" lon="-3.38684">
        <ele>158</ele>
        <time>2023-10-31T00:24:57Z</time>
      </trkpt>
      <trkpt lat="48.53292" lon="-3.38681">
        <ele>159</ele>
        <time>2023-10-31T00:25:13Z</time>
      </trkpt>
      <trkpt lat="48.53235" lon="-3.38652">
        <ele>163</ele>
        <time>2023-10-31T00:26:33Z</time>
      </trkpt>
      <trkpt lat="48.53229" lon="-3.38653">
        <ele>163</ele>
        <time>2023-10-31T00:26:41Z</time>
      </trkpt>
      <trkpt lat="48.53217" lon="-3.38661">
        <ele>163</ele>
        <time>2023-10-31T00:26:59Z</time>
      </trkpt>
      <trkpt lat="48.5319" lon="-3.38668">
        <ele>163</ele>
        <time>2023-10-31T00:27:35Z</time>
      </trkpt>
      <trkpt lat="48.53178" lon="-3.38689">
        <ele>162</ele>
        <time>2023-10-31T00:28:00Z</time>
      </trkpt>
      <trkpt lat="48.53168" lon="-3.38793">
        <ele>155</ele>
        <time>2023-10-31T00:29:33Z</time>
      </trkpt>
      <trkpt lat="48.53163" lon="-3.3882">
        <ele>154</ele>
        <time>2023-10-31T00:29:57Z</time>
      </trkpt>
      <trkpt lat="48.53163" lon="-3.38835">
        <ele>153</ele>
        <time>2023-10-31T00:30:11Z</time>
      </trkpt>
      <trkpt lat="48.53164" lon="-3.3883">
        <ele>153</ele>
        <time>2023-10-31T00:30:15Z</time>
      </trkpt>
      <trkpt lat="48.53162" lon="-3.38833">
        <ele>153</ele>
        <time>2023-10-31T00:30:19Z</time>
      </trkpt>
      <trkpt lat="48.53163" lon="-3.38836">
        <ele>153</ele>
        <time>2023-10-31T00:30:22Z</time>
      </trkpt>
      <trkpt lat="48.53164" lon="-3.38828">
        <ele>153</ele>
        <time>2023-10-31T00:30:29Z</time>
      </trkpt>
      <trkpt lat="48.53169" lon="-3.38845">
        <ele>152</ele>
        <time>2023-10-31T00:30:46Z</time>
      </trkpt>
      <trkpt lat="48.53176" lon="-3.38854">
        <ele>152</ele>
        <time>2023-10-31T00:30:58Z</time>
      </trkpt>
      <trkpt lat="48.53181" lon="-3.38883">
        <ele>150</ele>
        <time>2023-10-31T00:31:24Z</time>
      </trkpt>
      <trkpt lat="48.53166" lon="-3.38972">
        <ele>145</ele>
        <time>2023-10-31T00:32:46Z</time>
      </trkpt>
      <trkpt lat="48.53163" lon="-3.3904">
        <ele>141</ele>
        <time>2023-10-31T00:33:46Z</time>
      </trkpt>
      <trkpt lat="48.53164" lon="-3.39074">
        <ele>139</ele>
        <time>2023-10-31T00:34:16Z</time>
      </trkpt>
      <trkpt lat="48.53176" lon="-3.3914">
        <ele>135</ele>
        <time>2023-10-31T00:35:16Z</time>
      </trkpt>
      <trkpt lat="48.53196" lon="-3.39137">
        <ele>134</ele>
        <time>2023-10-31T00:35:43Z</time>
      </trkpt>
      <trkpt lat="48.53264" lon="-3.39107">
        <ele>132</ele>
        <time>2023-10-31T00:37:18Z</time>
      </trkpt>
      <trkpt lat="48.53292" lon="-3.3909">
        <ele>131</ele>
        <time>2023-10-31T00:37:58Z</time>
      </trkpt>
      <trkpt lat="48.53346" lon="-3.39074">
        <ele>128</ele>
        <time>2023-10-31T00:39:11Z</time>
      </trkpt>
      <trkpt lat="48.53376" lon="-3.3906">
        <ele>129</ele>
        <time>2023-10-31T00:39:53Z</time>
      </trkpt>
      <trkpt lat="48.53385" lon="-3.39055">
        <ele>129</ele>
        <time>2023-10-31T00:40:06Z</time>
      </trkpt>
      <trkpt lat="48.53391" lon="-3.39047">
        <ele>129</ele>
        <time>2023-10-31T00:40:17Z</time>
      </trkpt>
      <trkpt lat="48.53404" lon="-3.39021">
        <ele>130</ele>
        <time>2023-10-31T00:40:46Z</time>
      </trkpt>
      <trkpt lat="48.53434" lon="-3.3901">
        <ele>131</ele>
        <time>2023-10-31T00:41:27Z</time>
      </trkpt>
      <trkpt lat="48.53465" lon="-3.39013">
        <ele>132</ele>
        <time>2023-10-31T00:42:08Z</time>
      </trkpt>
      <trkpt lat="48.5349" lon="-3.39021">
        <ele>133</ele>
        <time>2023-10-31T00:42:42Z</time>
      </trkpt>
      <trkpt lat="48.53516" lon="-3.39026">
        <ele>134</ele>
        <time>2023-10-31T00:43:17Z</time>
      </trkpt>
      <trkpt lat="48.53548" lon="-3.3904">
        <ele>135</ele>
        <time>2023-10-31T00:44:02Z</time>
      </trkpt>
      <trkpt lat="48.53621" lon="-3.39063">
        <ele>134</ele>
        <time>2023-10-31T00:45:41Z</time>
      </trkpt>
      <trkpt lat="48.53652" lon="-3.3907">
        <ele>133</ele>
        <time>2023-10-31T00:46:23Z</time>
      </trkpt>
      <trkpt lat="48.53674" lon="-3.39078">
        <ele>132</ele>
        <time>2023-10-31T00:46:53Z</time>
      </trkpt>
      <trkpt lat="48.53778" lon="-3.39101">
        <ele>131</ele>
        <time>2023-10-31T00:49:14Z</time>
      </trkpt>
      <trkpt lat="48.53789" lon="-3.39105">
        <ele>131</ele>
        <time>2023-10-31T00:49:29Z</time>
      </trkpt>
      <trkpt lat="48.53806" lon="-3.39121">
        <ele>131</ele>
        <time>2023-10-31T00:49:55Z</time>
      </trkpt>
      <trkpt lat="48.53823" lon="-3.39132">
        <ele>131</ele>
        <time>2023-10-31T00:50:20Z</time>
      </trkpt>
      <trkpt lat="48.53838" lon="-3.39153">
        <ele>131</ele>
        <time>2023-10-31T00:50:47Z</time>
      </trkpt>
      <trkpt lat="48.53853" lon="-3.39159">
        <ele>131</ele>
        <time>2023-10-31T00:51:08Z</time>
      </trkpt>
      <trkpt lat="48.53883" lon="-3.39215">
        <ele>129</ele>
        <time>2023-10-31T00:52:12Z</time>
      </trkpt>
      <trkpt lat="48.53908" lon="-3.39251">
        <ele>129</ele>
        <time>2023-10-31T00:52:58Z</time>
      </trkpt>
      <trkpt lat="48.53921" lon="-3.39265">
        <ele>128</ele>
        <time>2023-10-31T00:53:19Z</time>
      </trkpt>
      <trkpt lat="48.53934" lon="-3.39273">
        <ele>128</ele>
        <time>2023-10-31T00:53:38Z</time>
      </trkpt>
      <trkpt lat="48.5398" lon="-3.39321">
        <ele>126</ele>
        <time>2023-10-31T00:54:53Z</time>
      </trkpt>
      <trkpt lat="48.54028" lon="-3.39388">
        <ele>123</ele>
        <time>2023-10-31T00:56:20Z</time>
      </trkpt>
      <trkpt lat="48.54037" lon="-3.39394">
        <ele>122</ele>
        <time>2023-10-31T00:56:33Z</time>
      </trkpt>
      <trkpt lat="48.54125" lon="-3.39482">
        <ele>116</ele>
        <time>2023-10-31T00:58:54Z</time>
      </trkpt>
      <trkpt lat="48.54134" lon="-3.39488">
        <ele>115</ele>
        <time>2023-10-31T00:59:07Z</time>
      </trkpt>
      <trkpt lat="48.54152" lon="-3.3949">
        <ele>114</ele>
        <time>2023-10-31T00:59:31Z</time>
      </trkpt>
      <trkpt lat="48.54182" lon="-3.39504">
        <ele>110</ele>
        <time>2023-10-31T01:00:13Z</time>
      </trkpt>
      <trkpt lat="48.54188" lon="-3.39511">
        <ele>109</ele>
        <time>2023-10-31T01:00:23Z</time>
      </trkpt>
      <trkpt lat="48.54206" lon="-3.39516">
        <ele>106</ele>
        <time>2023-10-31T01:00:47Z</time>
      </trkpt>
      <trkpt lat="48.54214" lon="-3.39525">
        <ele>105</ele>
        <time>2023-10-31T01:01:01Z</time>
      </trkpt>
      <trkpt lat="48.54228" lon="-3.39533">
        <ele>103</ele>
        <time>2023-10-31T01:01:21Z</time>
      </trkpt>
      <trkpt lat="48.54249" lon="-3.39557">
        <ele>100</ele>
        <time>2023-10-31T01:01:56Z</time>
      </trkpt>
      <trkpt lat="48.5426" lon="-3.39564">
        <ele>99</ele>
        <time>2023-10-31T01:02:12Z</time>
      </trkpt>
      <trkpt lat="48.54267" lon="-3.39558">
        <ele>99</ele>
        <time>2023-10-31T01:02:22Z</time>
      </trkpt>
      <trkpt lat="48.54266" lon="-3.39553">
        <ele>99</ele>
        <time>2023-10-31T01:02:27Z</time>
      </trkpt>
      <trkpt lat="48.54274" lon="-3.39549">
        <ele>98</ele>
        <time>2023-10-31T01:02:38Z</time>
      </trkpt>
      <trkpt lat="48.54287" lon="-3.39567">
        <ele>98</ele>
        <time>2023-10-31T01:03:02Z</time>
      </trkpt>
      <trkpt lat="48.54314" lon="-3.39577">
        <ele>97</ele>
        <time>2023-10-31T01:03:39Z</time>
      </trkpt>
      <trkpt lat="48.54332" lon="-3.39576">
        <ele>96</ele>
        <time>2023-10-31T01:04:03Z</time>
      </trkpt>
      <trkpt lat="48.54353" lon="-3.3957">
        <ele>96</ele>
        <time>2023-10-31T01:04:32Z</time>
      </trkpt>
      <trkpt lat="48.54365" lon="-3.39573">
        <ele>95</ele>
        <time>2023-10-31T01:04:48Z</time>
      </trkpt>
      <trkpt lat="48.54405" lon="-3.39606">
        <ele>94</ele>
        <time>2023-10-31T01:05:49Z</time>
      </trkpt>
      <trkpt lat="48.54418" lon="-3.39611">
        <ele>94</ele>
        <time>2023-10-31T01:06:06Z</time>
      </trkpt>
      <trkpt lat="48.5443" lon="-3.3961">
        <ele>94</ele>
        <time>2023-10-31T01:06:23Z</time>
      </trkpt>
      <trkpt lat="48.54441" lon="-3.39613">
        <ele>94</ele>
        <time>2023-10-31T01:06:37Z</time>
      </trkpt>
      <trkpt lat="48.54462" lon="-3.39597">
        <ele>94</ele>
        <time>2023-10-31T01:07:09Z</time>
      </trkpt>
      <trkpt lat="48.5449" lon="-3.39597">
        <ele>94</ele>
        <time>2023-10-31T01:07:46Z</time>
      </trkpt>
      <trkpt lat="48.54517" lon="-3.39593">
        <ele>93</ele>
        <time>2023-10-31T01:08:22Z</time>
      </trkpt>
      <trkpt lat="48.54528" lon="-3.39601">
        <ele>93</ele>
        <time>2023-10-31T01:08:39Z</time>
      </trkpt>
      <trkpt lat="48.54533" lon="-3.3961">
        <ele>93</ele>
        <time>2023-10-31T01:08:49Z</time>
      </trkpt>
      <trkpt lat="48.54558" lon="-3.3962">
        <ele>92</ele>
        <time>2023-10-31T01:09:24Z</time>
      </trkpt>
      <trkpt lat="48.54565" lon="-3.39618">
        <ele>91</ele>
        <time>2023-10-31T01:09:33Z</time>
      </trkpt>
      <trkpt lat="48.54578" lon="-3.39623">
        <ele>91</ele>
        <time>2023-10-31T01:09:51Z</time>
      </trkpt>
    </trkseg>
  </trk>
  <trk>
    <name><![CDATA[BIET_CoatAnNoz_20km-9314161]]></name>
    <extensions>
      <line xmlns="http://www.topografix.com/GPX/gpx_style/0/2">
        <color>00FFFF</color>
        <width>4</width>
      </line>
    </extensions>
    <trkseg>
      <trkpt lat="48.54426" lon="-3.39617">
        <ele>94</ele>
        <time>2023-10-30T17:43:47Z</time>
      </trkpt>
      <trkpt lat="48.54419" lon="-3.39624">
        <ele>94</ele>
        <time>2023-10-30T17:43:58Z</time>
      </trkpt>
      <trkpt lat="48.54418" lon="-3.39631">
        <ele>93</ele>
        <time>2023-10-30T17:44:05Z</time>
      </trkpt>
      <trkpt lat="48.54418" lon="-3.39684">
        <ele>92</ele>
        <time>2023-10-30T17:44:51Z</time>
      </trkpt>
      <trkpt lat="48.54413" lon="-3.39724">
        <ele>93</ele>
        <time>2023-10-30T17:45:27Z</time>
      </trkpt>
      <trkpt lat="48.54416" lon="-3.39744">
        <ele>94</ele>
        <time>2023-10-30T17:45:45Z</time>
      </trkpt>
      <trkpt lat="48.54412" lon="-3.39749">
        <ele>94</ele>
        <time>2023-10-30T17:45:52Z</time>
      </trkpt>
      <trkpt lat="48.54392" lon="-3.39754">
        <ele>95</ele>
        <time>2023-10-30T17:46:19Z</time>
      </trkpt>
      <trkpt lat="48.54371" lon="-3.39764">
        <ele>96</ele>
        <time>2023-10-30T17:46:49Z</time>
      </trkpt>
      <trkpt lat="48.54357" lon="-3.39763">
        <ele>96</ele>
        <time>2023-10-30T17:47:08Z</time>
      </trkpt>
      <trkpt lat="48.54352" lon="-3.39767">
        <ele>97</ele>
        <time>2023-10-30T17:47:15Z</time>
      </trkpt>
      <trkpt lat="48.54346" lon="-3.39768">
        <ele>97</ele>
        <time>2023-10-30T17:47:23Z</time>
      </trkpt>
      <trkpt lat="48.54321" lon="-3.39788">
        <ele>100</ele>
        <time>2023-10-30T17:48:01Z</time>
      </trkpt>
      <trkpt lat="48.54307" lon="-3.39787">
        <ele>100</ele>
        <time>2023-10-30T17:48:20Z</time>
      </trkpt>
      <trkpt lat="48.54297" lon="-3.39794">
        <ele>101</ele>
        <time>2023-10-30T17:48:34Z</time>
      </trkpt>
      <trkpt lat="48.54273" lon="-3.39802">
        <ele>101</ele>
        <time>2023-10-30T17:49:07Z</time>
      </trkpt>
      <trkpt lat="48.54259" lon="-3.39798">
        <ele>101</ele>
        <time>2023-10-30T17:49:26Z</time>
      </trkpt>
      <trkpt lat="48.54251" lon="-3.3979">
        <ele>100</ele>
        <time>2023-10-30T17:49:39Z</time>
      </trkpt>
      <trkpt lat="48.54238" lon="-3.39792">
        <ele>100</ele>
        <time>2023-10-30T17:49:56Z</time>
      </trkpt>
      <trkpt lat="48.54181" lon="-3.39812">
        <ele>104</ele>
        <time>2023-10-30T17:51:14Z</time>
      </trkpt>
      <trkpt lat="48.54127" lon="-3.39794">
        <ele>103</ele>
        <time>2023-10-30T17:52:28Z</time>
      </trkpt>
      <trkpt lat="48.54019" lon="-3.39793">
        <ele>103</ele>
        <time>2023-10-30T17:54:52Z</time>
      </trkpt>
      <trkpt lat="48.53995" lon="-3.39802">
        <ele>104</ele>
        <time>2023-10-30T17:55:25Z</time>
      </trkpt>
      <trkpt lat="48.53967" lon="-3.39808">
        <ele>103</ele>
        <time>2023-10-30T17:56:03Z</time>
      </trkpt>
      <trkpt lat="48.53953" lon="-3.39816">
        <ele>102</ele>
        <time>2023-10-30T17:56:23Z</time>
      </trkpt>
      <trkpt lat="48.53931" lon="-3.39838">
        <ele>102</ele>
        <time>2023-10-30T17:56:58Z</time>
      </trkpt>
      <trkpt lat="48.53882" lon="-3.39911">
        <ele>112</ele>
        <time>2023-10-30T17:58:30Z</time>
      </trkpt>
      <trkpt lat="48.53868" lon="-3.39925">
        <ele>114</ele>
        <time>2023-10-30T17:58:53Z</time>
      </trkpt>
      <trkpt lat="48.53864" lon="-3.39941">
        <ele>115</ele>
        <time>2023-10-30T17:59:08Z</time>
      </trkpt>
      <trkpt lat="48.53856" lon="-3.39952">
        <ele>116</ele>
        <time>2023-10-30T17:59:22Z</time>
      </trkpt>
      <trkpt lat="48.53829" lon="-3.39966">
        <ele>117</ele>
        <time>2023-10-30T18:00:00Z</time>
      </trkpt>
      <trkpt lat="48.53815" lon="-3.39968">
        <ele>119</ele>
        <time>2023-10-30T18:00:19Z</time>
      </trkpt>
      <trkpt lat="48.53792" lon="-3.39981">
        <ele>122</ele>
        <time>2023-10-30T18:00:52Z</time>
      </trkpt>
      <trkpt lat="48.53791" lon="-3.40004">
        <ele>122</ele>
        <time>2023-10-30T18:01:12Z</time>
      </trkpt>
      <trkpt lat="48.53794" lon="-3.40032">
        <ele>122</ele>
        <time>2023-10-30T18:01:37Z</time>
      </trkpt>
      <trkpt lat="48.5379" lon="-3.40061">
        <ele>123</ele>
        <time>2023-10-30T18:02:03Z</time>
      </trkpt>
      <trkpt lat="48.53772" lon="-3.40114">
        <ele>127</ele>
        <time>2023-10-30T18:02:56Z</time>
      </trkpt>
      <trkpt lat="48.53763" lon="-3.40115">
        <ele>129</ele>
        <time>2023-10-30T18:03:08Z</time>
      </trkpt>
      <trkpt lat="48.53737" lon="-3.40092">
        <ele>133</ele>
        <time>2023-10-30T18:03:48Z</time>
      </trkpt>
      <trkpt lat="48.53726" lon="-3.40088">
        <ele>134</ele>
        <time>2023-10-30T18:04:03Z</time>
      </trkpt>
      <trkpt lat="48.53694" lon="-3.40114">
        <ele>137</ele>
        <time>2023-10-30T18:04:52Z</time>
      </trkpt>
      <trkpt lat="48.53673" lon="-3.40155">
        <ele>139</ele>
        <time>2023-10-30T18:05:38Z</time>
      </trkpt>
      <trkpt lat="48.53662" lon="-3.40169">
        <ele>140</ele>
        <time>2023-10-30T18:05:57Z</time>
      </trkpt>
      <trkpt lat="48.53648" lon="-3.40162">
        <ele>141</ele>
        <time>2023-10-30T18:06:16Z</time>
      </trkpt>
      <trkpt lat="48.53631" lon="-3.40145">
        <ele>142</ele>
        <time>2023-10-30T18:06:44Z</time>
      </trkpt>
      <trkpt lat="48.53611" lon="-3.40122">
        <ele>143</ele>
        <time>2023-10-30T18:07:17Z</time>
      </trkpt>
      <trkpt lat="48.53597" lon="-3.40096">
        <ele>143</ele>
        <time>2023-10-30T18:07:47Z</time>
      </trkpt>
      <trkpt lat="48.53587" lon="-3.40092">
        <ele>144</ele>
        <time>2023-10-30T18:08:01Z</time>
      </trkpt>
      <trkpt lat="48.53514" lon="-3.4019">
        <ele>148</ele>
        <time>2023-10-30T18:10:11Z</time>
      </trkpt>
      <trkpt lat="48.53494" lon="-3.40229">
        <ele>150</ele>
        <time>2023-10-30T18:10:55Z</time>
      </trkpt>
      <trkpt lat="48.53427" lon="-3.40207">
        <ele>151</ele>
        <time>2023-10-30T18:12:26Z</time>
      </trkpt>
      <trkpt lat="48.53376" lon="-3.40137">
        <ele>152</ele>
        <time>2023-10-30T18:13:58Z</time>
      </trkpt>
      <trkpt lat="48.53319" lon="-3.40178">
        <ele>155</ele>
        <time>2023-10-30T18:15:22Z</time>
      </trkpt>
      <trkpt lat="48.53111" lon="-3.4003">
        <ele>156</ele>
        <time>2023-10-30T18:20:29Z</time>
      </trkpt>
      <trkpt lat="48.52906" lon="-3.39875">
        <ele>136</ele>
        <time>2023-10-30T18:25:35Z</time>
      </trkpt>
      <trkpt lat="48.52807" lon="-3.39838">
        <ele>126</ele>
        <time>2023-10-30T18:27:51Z</time>
      </trkpt>
      <trkpt lat="48.52784" lon="-3.39791">
        <ele>121</ele>
        <time>2023-10-30T18:28:43Z</time>
      </trkpt>
      <trkpt lat="48.52663" lon="-3.39865">
        <ele>120</ele>
        <time>2023-10-30T18:31:37Z</time>
      </trkpt>
      <trkpt lat="48.52553" lon="-3.40003">
        <ele>127</ele>
        <time>2023-10-30T18:34:48Z</time>
      </trkpt>
      <trkpt lat="48.52377" lon="-3.39996">
        <ele>110</ele>
        <time>2023-10-30T18:38:43Z</time>
      </trkpt>
      <trkpt lat="48.52245" lon="-3.40118">
        <ele>119</ele>
        <time>2023-10-30T18:42:09Z</time>
      </trkpt>
      <trkpt lat="48.52196" lon="-3.40093">
        <ele>112</ele>
        <time>2023-10-30T18:43:18Z</time>
      </trkpt>
      <trkpt lat="48.52125" lon="-3.40133">
        <ele>110</ele>
        <time>2023-10-30T18:44:59Z</time>
      </trkpt>
      <trkpt lat="48.51996" lon="-3.40227">
        <ele>110</ele>
        <time>2023-10-30T18:48:11Z</time>
      </trkpt>
      <trkpt lat="48.51892" lon="-3.40374">
        <ele>114</ele>
        <time>2023-10-30T18:51:21Z</time>
      </trkpt>
      <trkpt lat="48.51867" lon="-3.40423">
        <ele>114</ele>
        <time>2023-10-30T18:52:15Z</time>
      </trkpt>
      <trkpt lat="48.51865" lon="-3.40474">
        <ele>113</ele>
        <time>2023-10-30T18:53:01Z</time>
      </trkpt>
      <trkpt lat="48.51868" lon="-3.40494">
        <ele>112</ele>
        <time>2023-10-30T18:53:19Z</time>
      </trkpt>
      <trkpt lat="48.51883" lon="-3.40536">
        <ele>113</ele>
        <time>2023-10-30T18:54:01Z</time>
      </trkpt>
      <trkpt lat="48.5189" lon="-3.40544">
        <ele>113</ele>
        <time>2023-10-30T18:54:13Z</time>
      </trkpt>
      <trkpt lat="48.51903" lon="-3.40572">
        <ele>113</ele>
        <time>2023-10-30T18:54:43Z</time>
      </trkpt>
      <trkpt lat="48.51922" lon="-3.40588">
        <ele>115</ele>
        <time>2023-10-30T18:55:12Z</time>
      </trkpt>
      <trkpt lat="48.51945" lon="-3.40631">
        <ele>119</ele>
        <time>2023-10-30T18:56:01Z</time>
      </trkpt>
      <trkpt lat="48.51953" lon="-3.40651">
        <ele>121</ele>
        <time>2023-10-30T18:56:21Z</time>
      </trkpt>
      <trkpt lat="48.51961" lon="-3.40658">
        <ele>122</ele>
        <time>2023-10-30T18:56:34Z</time>
      </trkpt>
      <trkpt lat="48.51969" lon="-3.40686">
        <ele>122</ele>
        <time>2023-10-30T18:57:01Z</time>
      </trkpt>
      <trkpt lat="48.5198" lon="-3.40698">
        <ele>123</ele>
        <time>2023-10-30T18:57:19Z</time>
      </trkpt>
      <trkpt lat="48.51982" lon="-3.40728">
        <ele>120</ele>
        <time>2023-10-30T18:57:45Z</time>
      </trkpt>
      <trkpt lat="48.5199" lon="-3.40747">
        <ele>119</ele>
        <time>2023-10-30T18:58:05Z</time>
      </trkpt>
      <trkpt lat="48.52007" lon="-3.40763">
        <ele>122</ele>
        <time>2023-10-30T18:58:32Z</time>
      </trkpt>
      <trkpt lat="48.52017" lon="-3.40792">
        <ele>123</ele>
        <time>2023-10-30T18:59:01Z</time>
      </trkpt>
      <trkpt lat="48.52025" lon="-3.4084">
        <ele>122</ele>
        <time>2023-10-30T18:59:45Z</time>
      </trkpt>
      <trkpt lat="48.52024" lon="-3.40868">
        <ele>120</ele>
        <time>2023-10-30T19:00:09Z</time>
      </trkpt>
      <trkpt lat="48.52032" lon="-3.40907">
        <ele>119</ele>
        <time>2023-10-30T19:00:46Z</time>
      </trkpt>
      <trkpt lat="48.52036" lon="-3.41132">
        <ele>114</ele>
        <time>2023-10-30T19:04:04Z</time>
      </trkpt>
      <trkpt lat="48.52053" lon="-3.41232">
        <ele>115</ele>
        <time>2023-10-30T19:05:36Z</time>
      </trkpt>
      <trkpt lat="48.52135" lon="-3.4127">
        <ele>127</ele>
        <time>2023-10-30T19:07:30Z</time>
      </trkpt>
      <trkpt lat="48.52127" lon="-3.4129">
        <ele>127</ele>
        <time>2023-10-30T19:07:51Z</time>
      </trkpt>
      <trkpt lat="48.52112" lon="-3.41302">
        <ele>125</ele>
        <time>2023-10-30T19:08:14Z</time>
      </trkpt>
      <trkpt lat="48.52097" lon="-3.4131">
        <ele>122</ele>
        <time>2023-10-30T19:08:35Z</time>
      </trkpt>
      <trkpt lat="48.52071" lon="-3.41338">
        <ele>119</ele>
        <time>2023-10-30T19:09:17Z</time>
      </trkpt>
      <trkpt lat="48.52068" lon="-3.41352">
        <ele>119</ele>
        <time>2023-10-30T19:09:30Z</time>
      </trkpt>
      <trkpt lat="48.52069" lon="-3.41378">
        <ele>120</ele>
        <time>2023-10-30T19:09:53Z</time>
      </trkpt>
      <trkpt lat="48.52053" lon="-3.41513">
        <ele>123</ele>
        <time>2023-10-30T19:11:55Z</time>
      </trkpt>
      <trkpt lat="48.52041" lon="-3.41576">
        <ele>124</ele>
        <time>2023-10-30T19:12:53Z</time>
      </trkpt>
      <trkpt lat="48.5203" lon="-3.41614">
        <ele>124</ele>
        <time>2023-10-30T19:13:29Z</time>
      </trkpt>
      <trkpt lat="48.52028" lon="-3.41663">
        <ele>129</ele>
        <time>2023-10-30T19:14:13Z</time>
      </trkpt>
      <trkpt lat="48.52023" lon="-3.41691">
        <ele>131</ele>
        <time>2023-10-30T19:14:38Z</time>
      </trkpt>
      <trkpt lat="48.51997" lon="-3.41791">
        <ele>136</ele>
        <time>2023-10-30T19:16:13Z</time>
      </trkpt>
      <trkpt lat="48.51978" lon="-3.41822">
        <ele>136</ele>
        <time>2023-10-30T19:16:51Z</time>
      </trkpt>
      <trkpt lat="48.51942" lon="-3.41828">
        <ele>128</ele>
        <time>2023-10-30T19:17:39Z</time>
      </trkpt>
      <trkpt lat="48.5192" lon="-3.41843">
        <ele>125</ele>
        <time>2023-10-30T19:18:11Z</time>
      </trkpt>
      <trkpt lat="48.51889" lon="-3.41869">
        <ele>124</ele>
        <time>2023-10-30T19:18:58Z</time>
      </trkpt>
      <trkpt lat="48.51857" lon="-3.4189">
        <ele>123</ele>
        <time>2023-10-30T19:19:45Z</time>
      </trkpt>
      <trkpt lat="48.51842" lon="-3.41896">
        <ele>121</ele>
        <time>2023-10-30T19:20:06Z</time>
      </trkpt>
      <trkpt lat="48.51824" lon="-3.41897">
        <ele>119</ele>
        <time>2023-10-30T19:20:30Z</time>
      </trkpt>
      <trkpt lat="48.518" lon="-3.41903">
        <ele>117</ele>
        <time>2023-10-30T19:21:02Z</time>
      </trkpt>
      <trkpt lat="48.51784" lon="-3.41898">
        <ele>115</ele>
        <time>2023-10-30T19:21:24Z</time>
      </trkpt>
      <trkpt lat="48.51782" lon="-3.41895">
        <ele>114</ele>
        <time>2023-10-30T19:21:28Z</time>
      </trkpt>
      <trkpt lat="48.5177" lon="-3.41893">
        <ele>113</ele>
        <time>2023-10-30T19:21:44Z</time>
      </trkpt>
      <trkpt lat="48.51674" lon="-3.4181">
        <ele>109</ele>
        <time>2023-10-30T19:24:11Z</time>
      </trkpt>
      <trkpt lat="48.51656" lon="-3.41791">
        <ele>111</ele>
        <time>2023-10-30T19:24:41Z</time>
      </trkpt>
      <trkpt lat="48.51639" lon="-3.41766">
        <ele>115</ele>
        <time>2023-10-30T19:25:12Z</time>
      </trkpt>
      <trkpt lat="48.51626" lon="-3.41733">
        <ele>118</ele>
        <time>2023-10-30T19:25:46Z</time>
      </trkpt>
      <trkpt lat="48.51612" lon="-3.41706">
        <ele>119</ele>
        <time>2023-10-30T19:26:17Z</time>
      </trkpt>
      <trkpt lat="48.51599" lon="-3.41697">
        <ele>121</ele>
        <time>2023-10-30T19:26:36Z</time>
      </trkpt>
      <trkpt lat="48.51596" lon="-3.41692">
        <ele>121</ele>
        <time>2023-10-30T19:26:42Z</time>
      </trkpt>
      <trkpt lat="48.51576" lon="-3.41681">
        <ele>121</ele>
        <time>2023-10-30T19:27:10Z</time>
      </trkpt>
      <trkpt lat="48.51548" lon="-3.41659">
        <ele>121</ele>
        <time>2023-10-30T19:27:52Z</time>
      </trkpt>
      <trkpt lat="48.5154" lon="-3.41654">
        <ele>121</ele>
        <time>2023-10-30T19:28:04Z</time>
      </trkpt>
      <trkpt lat="48.51531" lon="-3.41652">
        <ele>121</ele>
        <time>2023-10-30T19:28:16Z</time>
      </trkpt>
      <trkpt lat="48.51522" lon="-3.41657">
        <ele>122</ele>
        <time>2023-10-30T19:28:29Z</time>
      </trkpt>
      <trkpt lat="48.51517" lon="-3.41663">
        <ele>123</ele>
        <time>2023-10-30T19:28:37Z</time>
      </trkpt>
      <trkpt lat="48.51488" lon="-3.41741">
        <ele>130</ele>
        <time>2023-10-30T19:29:56Z</time>
      </trkpt>
      <trkpt lat="48.51461" lon="-3.41781">
        <ele>129</ele>
        <time>2023-10-30T19:30:47Z</time>
      </trkpt>
      <trkpt lat="48.5143" lon="-3.41814">
        <ele>128</ele>
        <time>2023-10-30T19:31:37Z</time>
      </trkpt>
      <trkpt lat="48.51421" lon="-3.41819">
        <ele>128</ele>
        <time>2023-10-30T19:31:50Z</time>
      </trkpt>
      <trkpt lat="48.51405" lon="-3.41823">
        <ele>128</ele>
        <time>2023-10-30T19:32:12Z</time>
      </trkpt>
      <trkpt lat="48.51381" lon="-3.41825">
        <ele>127</ele>
        <time>2023-10-30T19:32:44Z</time>
      </trkpt>
      <trkpt lat="48.51358" lon="-3.41819">
        <ele>126</ele>
        <time>2023-10-30T19:33:15Z</time>
      </trkpt>
      <trkpt lat="48.51324" lon="-3.41803">
        <ele>124</ele>
        <time>2023-10-30T19:34:03Z</time>
      </trkpt>
      <trkpt lat="48.51314" lon="-3.4179">
        <ele>124</ele>
        <time>2023-10-30T19:34:20Z</time>
      </trkpt>
      <trkpt lat="48.51313" lon="-3.4177">
        <ele>123</ele>
        <time>2023-10-30T19:34:38Z</time>
      </trkpt>
      <trkpt lat="48.51316" lon="-3.4173">
        <ele>122</ele>
        <time>2023-10-30T19:35:14Z</time>
      </trkpt>
      <trkpt lat="48.51312" lon="-3.4172">
        <ele>123</ele>
        <time>2023-10-30T19:35:24Z</time>
      </trkpt>
      <trkpt lat="48.51309" lon="-3.41728">
        <ele>123</ele>
        <time>2023-10-30T19:35:32Z</time>
      </trkpt>
      <trkpt lat="48.51331" lon="-3.417">
        <ele>124</ele>
        <time>2023-10-30T19:36:10Z</time>
      </trkpt>
      <trkpt lat="48.51337" lon="-3.41679">
        <ele>126</ele>
        <time>2023-10-30T19:36:31Z</time>
      </trkpt>
      <trkpt lat="48.51347" lon="-3.41663">
        <ele>126</ele>
        <time>2023-10-30T19:36:50Z</time>
      </trkpt>
      <trkpt lat="48.51361" lon="-3.41627">
        <ele>127</ele>
        <time>2023-10-30T19:37:27Z</time>
      </trkpt>
      <trkpt lat="48.51381" lon="-3.41558">
        <ele>131</ele>
        <time>2023-10-30T19:38:34Z</time>
      </trkpt>
      <trkpt lat="48.51389" lon="-3.4154">
        <ele>131</ele>
        <time>2023-10-30T19:38:53Z</time>
      </trkpt>
      <trkpt lat="48.51399" lon="-3.41506">
        <ele>133</ele>
        <time>2023-10-30T19:39:26Z</time>
      </trkpt>
      <trkpt lat="48.51406" lon="-3.41463">
        <ele>134</ele>
        <time>2023-10-30T19:40:05Z</time>
      </trkpt>
      <trkpt lat="48.51424" lon="-3.41403">
        <ele>135</ele>
        <time>2023-10-30T19:41:03Z</time>
      </trkpt>
      <trkpt lat="48.51433" lon="-3.4135">
        <ele>137</ele>
        <time>2023-10-30T19:41:51Z</time>
      </trkpt>
      <trkpt lat="48.5144" lon="-3.41323">
        <ele>137</ele>
        <time>2023-10-30T19:42:17Z</time>
      </trkpt>
      <trkpt lat="48.51442" lon="-3.41308">
        <ele>138</ele>
        <time>2023-10-30T19:42:31Z</time>
      </trkpt>
      <trkpt lat="48.51439" lon="-3.4129">
        <ele>140</ele>
        <time>2023-10-30T19:42:47Z</time>
      </trkpt>
      <trkpt lat="48.51418" lon="-3.41261">
        <ele>142</ele>
        <time>2023-10-30T19:43:25Z</time>
      </trkpt>
      <trkpt lat="48.51417" lon="-3.41254">
        <ele>143</ele>
        <time>2023-10-30T19:43:31Z</time>
      </trkpt>
      <trkpt lat="48.51423" lon="-3.41234">
        <ele>143</ele>
        <time>2023-10-30T19:43:51Z</time>
      </trkpt>
      <trkpt lat="48.51437" lon="-3.41202">
        <ele>144</ele>
        <time>2023-10-30T19:44:25Z</time>
      </trkpt>
      <trkpt lat="48.51464" lon="-3.41152">
        <ele>145</ele>
        <time>2023-10-30T19:45:22Z</time>
      </trkpt>
      <trkpt lat="48.51481" lon="-3.4113">
        <ele>145</ele>
        <time>2023-10-30T19:45:51Z</time>
      </trkpt>
      <trkpt lat="48.51491" lon="-3.411">
        <ele>145</ele>
        <time>2023-10-30T19:46:21Z</time>
      </trkpt>
      <trkpt lat="48.5151" lon="-3.41069">
        <ele>145</ele>
        <time>2023-10-30T19:46:58Z</time>
      </trkpt>
      <trkpt lat="48.51534" lon="-3.41009">
        <ele>145</ele>
        <time>2023-10-30T19:48:00Z</time>
      </trkpt>
      <trkpt lat="48.51581" lon="-3.40932">
        <ele>145</ele>
        <time>2023-10-30T19:49:33Z</time>
      </trkpt>
      <trkpt lat="48.51598" lon="-3.40916">
        <ele>144</ele>
        <time>2023-10-30T19:50:00Z</time>
      </trkpt>
      <trkpt lat="48.5164" lon="-3.40951">
        <ele>139</ele>
        <time>2023-10-30T19:51:04Z</time>
      </trkpt>
      <trkpt lat="48.51645" lon="-3.40949">
        <ele>138</ele>
        <time>2023-10-30T19:51:11Z</time>
      </trkpt>
      <trkpt lat="48.51657" lon="-3.40924">
        <ele>138</ele>
        <time>2023-10-30T19:51:38Z</time>
      </trkpt>
      <trkpt lat="48.51661" lon="-3.40909">
        <ele>138</ele>
        <time>2023-10-30T19:51:52Z</time>
      </trkpt>
      <trkpt lat="48.51649" lon="-3.40883">
        <ele>139</ele>
        <time>2023-10-30T19:52:20Z</time>
      </trkpt>
      <trkpt lat="48.51644" lon="-3.40844">
        <ele>140</ele>
        <time>2023-10-30T19:52:55Z</time>
      </trkpt>
      <trkpt lat="48.51649" lon="-3.40825">
        <ele>140</ele>
        <time>2023-10-30T19:53:13Z</time>
      </trkpt>
      <trkpt lat="48.51659" lon="-3.40826">
        <ele>138</ele>
        <time>2023-10-30T19:53:27Z</time>
      </trkpt>
      <trkpt lat="48.51661" lon="-3.4083">
        <ele>138</ele>
        <time>2023-10-30T19:53:31Z</time>
      </trkpt>
      <trkpt lat="48.51658" lon="-3.40834">
        <ele>138</ele>
        <time>2023-10-30T19:53:37Z</time>
      </trkpt>
      <trkpt lat="48.51665" lon="-3.40846">
        <ele>137</ele>
        <time>2023-10-30T19:53:51Z</time>
      </trkpt>
      <trkpt lat="48.5166" lon="-3.40847">
        <ele>138</ele>
        <time>2023-10-30T19:53:57Z</time>
      </trkpt>
      <trkpt lat="48.5166" lon="-3.40856">
        <ele>138</ele>
        <time>2023-10-30T19:54:05Z</time>
      </trkpt>
      <trkpt lat="48.51666" lon="-3.40866">
        <ele>137</ele>
        <time>2023-10-30T19:54:17Z</time>
      </trkpt>
      <trkpt lat="48.51677" lon="-3.40863">
        <ele>135</ele>
        <time>2023-10-30T19:54:32Z</time>
      </trkpt>
      <trkpt lat="48.51668" lon="-3.40853">
        <ele>137</ele>
        <time>2023-10-30T19:54:47Z</time>
      </trkpt>
      <trkpt lat="48.51664" lon="-3.40838">
        <ele>137</ele>
        <time>2023-10-30T19:55:01Z</time>
      </trkpt>
      <trkpt lat="48.51659" lon="-3.40776">
        <ele>141</ele>
        <time>2023-10-30T19:55:57Z</time>
      </trkpt>
      <trkpt lat="48.51654" lon="-3.40764">
        <ele>142</ele>
        <time>2023-10-30T19:56:09Z</time>
      </trkpt>
      <trkpt lat="48.51645" lon="-3.40719">
        <ele>146</ele>
        <time>2023-10-30T19:56:51Z</time>
      </trkpt>
      <trkpt lat="48.51667" lon="-3.40681">
        <ele>147</ele>
        <time>2023-10-30T19:57:35Z</time>
      </trkpt>
      <trkpt lat="48.51685" lon="-3.4064">
        <ele>146</ele>
        <time>2023-10-30T19:58:19Z</time>
      </trkpt>
      <trkpt lat="48.51698" lon="-3.40626">
        <ele>145</ele>
        <time>2023-10-30T19:58:40Z</time>
      </trkpt>
      <trkpt lat="48.51719" lon="-3.40591">
        <ele>143</ele>
        <time>2023-10-30T19:59:22Z</time>
      </trkpt>
      <trkpt lat="48.51724" lon="-3.40573">
        <ele>143</ele>
        <time>2023-10-30T19:59:39Z</time>
      </trkpt>
      <trkpt lat="48.51725" lon="-3.40557">
        <ele>144</ele>
        <time>2023-10-30T19:59:53Z</time>
      </trkpt>
      <trkpt lat="48.51735" lon="-3.40525">
        <ele>144</ele>
        <time>2023-10-30T20:00:25Z</time>
      </trkpt>
      <trkpt lat="48.51748" lon="-3.40363">
        <ele>148</ele>
        <time>2023-10-30T20:02:49Z</time>
      </trkpt>
      <trkpt lat="48.51779" lon="-3.40287">
        <ele>142</ele>
        <time>2023-10-30T20:04:08Z</time>
      </trkpt>
      <trkpt lat="48.51787" lon="-3.4025">
        <ele>143</ele>
        <time>2023-10-30T20:04:42Z</time>
      </trkpt>
      <trkpt lat="48.51813" lon="-3.40172">
        <ele>143</ele>
        <time>2023-10-30T20:05:59Z</time>
      </trkpt>
      <trkpt lat="48.51817" lon="-3.40153">
        <ele>143</ele>
        <time>2023-10-30T20:06:17Z</time>
      </trkpt>
      <trkpt lat="48.51805" lon="-3.40126">
        <ele>145</ele>
        <time>2023-10-30T20:06:46Z</time>
      </trkpt>
      <trkpt lat="48.51772" lon="-3.40086">
        <ele>152</ele>
        <time>2023-10-30T20:07:42Z</time>
      </trkpt>
      <trkpt lat="48.51746" lon="-3.40034">
        <ele>153</ele>
        <time>2023-10-30T20:08:40Z</time>
      </trkpt>
      <trkpt lat="48.51742" lon="-3.40021">
        <ele>152</ele>
        <time>2023-10-30T20:08:52Z</time>
      </trkpt>
      <trkpt lat="48.51719" lon="-3.39984">
        <ele>155</ele>
        <time>2023-10-30T20:09:37Z</time>
      </trkpt>
      <trkpt lat="48.51677" lon="-3.39943">
        <ele>159</ele>
        <time>2023-10-30T20:10:44Z</time>
      </trkpt>
      <trkpt lat="48.51636" lon="-3.3993">
        <ele>162</ele>
        <time>2023-10-30T20:11:40Z</time>
      </trkpt>
      <trkpt lat="48.51607" lon="-3.39928">
        <ele>163</ele>
        <time>2023-10-30T20:12:19Z</time>
      </trkpt>
      <trkpt lat="48.51593" lon="-3.39923">
        <ele>164</ele>
        <time>2023-10-30T20:12:38Z</time>
      </trkpt>
      <trkpt lat="48.51588" lon="-3.39918">
        <ele>164</ele>
        <time>2023-10-30T20:12:46Z</time>
      </trkpt>
      <trkpt lat="48.51591" lon="-3.39855">
        <ele>164</ele>
        <time>2023-10-30T20:13:42Z</time>
      </trkpt>
      <trkpt lat="48.51603" lon="-3.39819">
        <ele>164</ele>
        <time>2023-10-30T20:14:17Z</time>
      </trkpt>
      <trkpt lat="48.51602" lon="-3.39814">
        <ele>164</ele>
        <time>2023-10-30T20:14:22Z</time>
      </trkpt>
      <trkpt lat="48.51613" lon="-3.39787">
        <ele>164</ele>
        <time>2023-10-30T20:14:50Z</time>
      </trkpt>
      <trkpt lat="48.51617" lon="-3.39766">
        <ele>165</ele>
        <time>2023-10-30T20:15:09Z</time>
      </trkpt>
      <trkpt lat="48.51591" lon="-3.39632">
        <ele>169</ele>
        <time>2023-10-30T20:17:13Z</time>
      </trkpt>
      <trkpt lat="48.51597" lon="-3.39593">
        <ele>169</ele>
        <time>2023-10-30T20:17:48Z</time>
      </trkpt>
      <trkpt lat="48.51593" lon="-3.39571">
        <ele>169</ele>
        <time>2023-10-30T20:18:08Z</time>
      </trkpt>
      <trkpt lat="48.51594" lon="-3.39549">
        <ele>170</ele>
        <time>2023-10-30T20:18:28Z</time>
      </trkpt>
      <trkpt lat="48.51604" lon="-3.39504">
        <ele>173</ele>
        <time>2023-10-30T20:19:10Z</time>
      </trkpt>
      <trkpt lat="48.51616" lon="-3.39479">
        <ele>174</ele>
        <time>2023-10-30T20:19:37Z</time>
      </trkpt>
      <trkpt lat="48.51632" lon="-3.394">
        <ele>177</ele>
        <time>2023-10-30T20:20:50Z</time>
      </trkpt>
      <trkpt lat="48.51635" lon="-3.3938">
        <ele>178</ele>
        <time>2023-10-30T20:21:08Z</time>
      </trkpt>
      <trkpt lat="48.5163" lon="-3.39359">
        <ele>179</ele>
        <time>2023-10-30T20:21:28Z</time>
      </trkpt>
      <trkpt lat="48.51631" lon="-3.39346">
        <ele>180</ele>
        <time>2023-10-30T20:21:39Z</time>
      </trkpt>
      <trkpt lat="48.51635" lon="-3.39357">
        <ele>179</ele>
        <time>2023-10-30T20:21:51Z</time>
      </trkpt>
      <trkpt lat="48.51632" lon="-3.3937">
        <ele>179</ele>
        <time>2023-10-30T20:22:03Z</time>
      </trkpt>
      <trkpt lat="48.51637" lon="-3.39354">
        <ele>179</ele>
        <time>2023-10-30T20:22:18Z</time>
      </trkpt>
      <trkpt lat="48.51664" lon="-3.39347">
        <ele>181</ele>
        <time>2023-10-30T20:22:55Z</time>
      </trkpt>
      <trkpt lat="48.5168" lon="-3.39334">
        <ele>181</ele>
        <time>2023-10-30T20:23:19Z</time>
      </trkpt>
      <trkpt lat="48.51717" lon="-3.39288">
        <ele>181</ele>
        <time>2023-10-30T20:24:23Z</time>
      </trkpt>
      <trkpt lat="48.51739" lon="-3.39243">
        <ele>183</ele>
        <time>2023-10-30T20:25:13Z</time>
      </trkpt>
      <trkpt lat="48.51731" lon="-3.3924">
        <ele>182</ele>
        <time>2023-10-30T20:25:24Z</time>
      </trkpt>
      <trkpt lat="48.51736" lon="-3.39234">
        <ele>183</ele>
        <time>2023-10-30T20:25:32Z</time>
      </trkpt>
      <trkpt lat="48.51756" lon="-3.39224">
        <ele>183</ele>
        <time>2023-10-30T20:26:00Z</time>
      </trkpt>
      <trkpt lat="48.51777" lon="-3.39224">
        <ele>183</ele>
        <time>2023-10-30T20:26:28Z</time>
      </trkpt>
      <trkpt lat="48.51788" lon="-3.39226">
        <ele>183</ele>
        <time>2023-10-30T20:26:43Z</time>
      </trkpt>
      <trkpt lat="48.51804" lon="-3.39233">
        <ele>182</ele>
        <time>2023-10-30T20:27:05Z</time>
      </trkpt>
      <trkpt lat="48.51832" lon="-3.39234">
        <ele>182</ele>
        <time>2023-10-30T20:27:43Z</time>
      </trkpt>
      <trkpt lat="48.5184" lon="-3.39243">
        <ele>181</ele>
        <time>2023-10-30T20:27:56Z</time>
      </trkpt>
      <trkpt lat="48.51853" lon="-3.39248">
        <ele>180</ele>
        <time>2023-10-30T20:28:14Z</time>
      </trkpt>
      <trkpt lat="48.51887" lon="-3.39249">
        <ele>178</ele>
        <time>2023-10-30T20:28:59Z</time>
      </trkpt>
      <trkpt lat="48.51953" lon="-3.39266">
        <ele>172</ele>
        <time>2023-10-30T20:30:29Z</time>
      </trkpt>
      <trkpt lat="48.51968" lon="-3.39273">
        <ele>170</ele>
        <time>2023-10-30T20:30:50Z</time>
      </trkpt>
      <trkpt lat="48.51987" lon="-3.39288">
        <ele>167</ele>
        <time>2023-10-30T20:31:18Z</time>
      </trkpt>
      <trkpt lat="48.52003" lon="-3.39303">
        <ele>164</ele>
        <time>2023-10-30T20:31:43Z</time>
      </trkpt>
      <trkpt lat="48.52022" lon="-3.39326">
        <ele>160</ele>
        <time>2023-10-30T20:32:16Z</time>
      </trkpt>
      <trkpt lat="48.52053" lon="-3.39374">
        <ele>155</ele>
        <time>2023-10-30T20:33:15Z</time>
      </trkpt>
      <trkpt lat="48.52075" lon="-3.39394">
        <ele>152</ele>
        <time>2023-10-30T20:33:49Z</time>
      </trkpt>
      <trkpt lat="48.5211" lon="-3.39434">
        <ele>146</ele>
        <time>2023-10-30T20:34:48Z</time>
      </trkpt>
      <trkpt lat="48.52114" lon="-3.3945">
        <ele>145</ele>
        <time>2023-10-30T20:35:03Z</time>
      </trkpt>
      <trkpt lat="48.52136" lon="-3.39483">
        <ele>142</ele>
        <time>2023-10-30T20:35:44Z</time>
      </trkpt>
      <trkpt lat="48.52137" lon="-3.39495">
        <ele>142</ele>
        <time>2023-10-30T20:35:55Z</time>
      </trkpt>
      <trkpt lat="48.52175" lon="-3.3953">
        <ele>135</ele>
        <time>2023-10-30T20:36:54Z</time>
      </trkpt>
      <trkpt lat="48.52183" lon="-3.39546">
        <ele>133</ele>
        <time>2023-10-30T20:37:12Z</time>
      </trkpt>
      <trkpt lat="48.52195" lon="-3.39555">
        <ele>130</ele>
        <time>2023-10-30T20:37:30Z</time>
      </trkpt>
      <trkpt lat="48.52198" lon="-3.39563">
        <ele>129</ele>
        <time>2023-10-30T20:37:38Z</time>
      </trkpt>
      <trkpt lat="48.52208" lon="-3.39565">
        <ele>127</ele>
        <time>2023-10-30T20:37:52Z</time>
      </trkpt>
      <trkpt lat="48.5222" lon="-3.39538">
        <ele>123</ele>
        <time>2023-10-30T20:38:20Z</time>
      </trkpt>
      <trkpt lat="48.52224" lon="-3.39522">
        <ele>122</ele>
        <time>2023-10-30T20:38:35Z</time>
      </trkpt>
      <trkpt lat="48.52227" lon="-3.39485">
        <ele>121</ele>
        <time>2023-10-30T20:39:08Z</time>
      </trkpt>
      <trkpt lat="48.52222" lon="-3.39462">
        <ele>122</ele>
        <time>2023-10-30T20:39:30Z</time>
      </trkpt>
      <trkpt lat="48.52227" lon="-3.39457">
        <ele>121</ele>
        <time>2023-10-30T20:39:38Z</time>
      </trkpt>
      <trkpt lat="48.52213" lon="-3.3943">
        <ele>124</ele>
        <time>2023-10-30T20:40:08Z</time>
      </trkpt>
      <trkpt lat="48.52178" lon="-3.39393">
        <ele>131</ele>
        <time>2023-10-30T20:41:05Z</time>
      </trkpt>
      <trkpt lat="48.52155" lon="-3.39352">
        <ele>134</ele>
        <time>2023-10-30T20:41:53Z</time>
      </trkpt>
      <trkpt lat="48.52148" lon="-3.39332">
        <ele>134</ele>
        <time>2023-10-30T20:42:13Z</time>
      </trkpt>
      <trkpt lat="48.52143" lon="-3.39306">
        <ele>134</ele>
        <time>2023-10-30T20:42:37Z</time>
      </trkpt>
      <trkpt lat="48.52133" lon="-3.39294">
        <ele>135</ele>
        <time>2023-10-30T20:42:54Z</time>
      </trkpt>
      <trkpt lat="48.52105" lon="-3.39209">
        <ele>137</ele>
        <time>2023-10-30T20:44:18Z</time>
      </trkpt>
      <trkpt lat="48.52081" lon="-3.3916">
        <ele>140</ele>
        <time>2023-10-30T20:45:11Z</time>
      </trkpt>
      <trkpt lat="48.52079" lon="-3.39121">
        <ele>138</ele>
        <time>2023-10-30T20:45:46Z</time>
      </trkpt>
      <trkpt lat="48.52074" lon="-3.39095">
        <ele>137</ele>
        <time>2023-10-30T20:46:10Z</time>
      </trkpt>
      <trkpt lat="48.52074" lon="-3.3907">
        <ele>137</ele>
        <time>2023-10-30T20:46:32Z</time>
      </trkpt>
      <trkpt lat="48.52059" lon="-3.3901">
        <ele>140</ele>
        <time>2023-10-30T20:47:29Z</time>
      </trkpt>
      <trkpt lat="48.52028" lon="-3.38946">
        <ele>148</ele>
        <time>2023-10-30T20:48:39Z</time>
      </trkpt>
      <trkpt lat="48.52013" lon="-3.38939">
        <ele>149</ele>
        <time>2023-10-30T20:49:00Z</time>
      </trkpt>
      <trkpt lat="48.51953" lon="-3.38839">
        <ele>154</ele>
        <time>2023-10-30T20:50:59Z</time>
      </trkpt>
      <trkpt lat="48.51946" lon="-3.38819">
        <ele>154</ele>
        <time>2023-10-30T20:51:19Z</time>
      </trkpt>
      <trkpt lat="48.51904" lon="-3.38798">
        <ele>156</ele>
        <time>2023-10-30T20:52:18Z</time>
      </trkpt>
      <trkpt lat="48.51885" lon="-3.38793">
        <ele>158</ele>
        <time>2023-10-30T20:52:44Z</time>
      </trkpt>
      <trkpt lat="48.51857" lon="-3.38792">
        <ele>160</ele>
        <time>2023-10-30T20:53:21Z</time>
      </trkpt>
      <trkpt lat="48.51836" lon="-3.38787">
        <ele>162</ele>
        <time>2023-10-30T20:53:49Z</time>
      </trkpt>
      <trkpt lat="48.51815" lon="-3.38791">
        <ele>164</ele>
        <time>2023-10-30T20:54:18Z</time>
      </trkpt>
      <trkpt lat="48.51806" lon="-3.3879">
        <ele>165</ele>
        <time>2023-10-30T20:54:30Z</time>
      </trkpt>
      <trkpt lat="48.51806" lon="-3.38786">
        <ele>164</ele>
        <time>2023-10-30T20:54:33Z</time>
      </trkpt>
      <trkpt lat="48.518" lon="-3.38785">
        <ele>164</ele>
        <time>2023-10-30T20:54:41Z</time>
      </trkpt>
      <trkpt lat="48.51769" lon="-3.38789">
        <ele>168</ele>
        <time>2023-10-30T20:55:23Z</time>
      </trkpt>
      <trkpt lat="48.51758" lon="-3.38785">
        <ele>168</ele>
        <time>2023-10-30T20:55:38Z</time>
      </trkpt>
      <trkpt lat="48.51756" lon="-3.38787">
        <ele>168</ele>
        <time>2023-10-30T20:55:41Z</time>
      </trkpt>
      <trkpt lat="48.5173" lon="-3.38771">
        <ele>168</ele>
        <time>2023-10-30T20:56:19Z</time>
      </trkpt>
      <trkpt lat="48.51723" lon="-3.38769">
        <ele>169</ele>
        <time>2023-10-30T20:56:28Z</time>
      </trkpt>
      <trkpt lat="48.51685" lon="-3.3873">
        <ele>170</ele>
        <time>2023-10-30T20:57:29Z</time>
      </trkpt>
      <trkpt lat="48.51668" lon="-3.38708">
        <ele>169</ele>
        <time>2023-10-30T20:57:59Z</time>
      </trkpt>
      <trkpt lat="48.51638" lon="-3.38686">
        <ele>167</ele>
        <time>2023-10-30T20:58:44Z</time>
      </trkpt>
      <trkpt lat="48.51617" lon="-3.38684">
        <ele>168</ele>
        <time>2023-10-30T20:59:12Z</time>
      </trkpt>
      <trkpt lat="48.51617" lon="-3.38669">
        <ele>166</ele>
        <time>2023-10-30T20:59:25Z</time>
      </trkpt>
      <trkpt lat="48.51605" lon="-3.38597">
        <ele>163</ele>
        <time>2023-10-30T21:00:31Z</time>
      </trkpt>
      <trkpt lat="48.51602" lon="-3.38558">
        <ele>162</ele>
        <time>2023-10-30T21:01:06Z</time>
      </trkpt>
      <trkpt lat="48.51597" lon="-3.3854">
        <ele>161</ele>
        <time>2023-10-30T21:01:23Z</time>
      </trkpt>
      <trkpt lat="48.51577" lon="-3.3841">
        <ele>160</ele>
        <time>2023-10-30T21:03:21Z</time>
      </trkpt>
      <trkpt lat="48.51565" lon="-3.38299">
        <ele>162</ele>
        <time>2023-10-30T21:05:00Z</time>
      </trkpt>
      <trkpt lat="48.51554" lon="-3.38243">
        <ele>163</ele>
        <time>2023-10-30T21:05:52Z</time>
      </trkpt>
      <trkpt lat="48.51543" lon="-3.38159">
        <ele>166</ele>
        <time>2023-10-30T21:07:08Z</time>
      </trkpt>
      <trkpt lat="48.51527" lon="-3.38094">
        <ele>169</ele>
        <time>2023-10-30T21:08:09Z</time>
      </trkpt>
      <trkpt lat="48.51521" lon="-3.38026">
        <ele>170</ele>
        <time>2023-10-30T21:09:09Z</time>
      </trkpt>
      <trkpt lat="48.51489" lon="-3.37978">
        <ele>175</ele>
        <time>2023-10-30T21:10:10Z</time>
      </trkpt>
      <trkpt lat="48.51485" lon="-3.37965">
        <ele>176</ele>
        <time>2023-10-30T21:10:22Z</time>
      </trkpt>
      <trkpt lat="48.51459" lon="-3.37924">
        <ele>179</ele>
        <time>2023-10-30T21:11:13Z</time>
      </trkpt>
      <trkpt lat="48.51454" lon="-3.37906">
        <ele>179</ele>
        <time>2023-10-30T21:11:30Z</time>
      </trkpt>
      <trkpt lat="48.51443" lon="-3.37887">
        <ele>180</ele>
        <time>2023-10-30T21:11:52Z</time>
      </trkpt>
      <trkpt lat="48.51424" lon="-3.37871">
        <ele>181</ele>
        <time>2023-10-30T21:12:21Z</time>
      </trkpt>
      <trkpt lat="48.51403" lon="-3.37845">
        <ele>183</ele>
        <time>2023-10-30T21:12:57Z</time>
      </trkpt>
      <trkpt lat="48.51393" lon="-3.37836">
        <ele>184</ele>
        <time>2023-10-30T21:13:13Z</time>
      </trkpt>
      <trkpt lat="48.51388" lon="-3.37822">
        <ele>185</ele>
        <time>2023-10-30T21:13:27Z</time>
      </trkpt>
      <trkpt lat="48.51385" lon="-3.37788">
        <ele>186</ele>
        <time>2023-10-30T21:13:57Z</time>
      </trkpt>
      <trkpt lat="48.5138" lon="-3.37768">
        <ele>187</ele>
        <time>2023-10-30T21:14:16Z</time>
      </trkpt>
      <trkpt lat="48.51328" lon="-3.37743">
        <ele>190</ele>
        <time>2023-10-30T21:15:29Z</time>
      </trkpt>
      <trkpt lat="48.51283" lon="-3.37735">
        <ele>192</ele>
        <time>2023-10-30T21:16:29Z</time>
      </trkpt>
      <trkpt lat="48.51263" lon="-3.37726">
        <ele>193</ele>
        <time>2023-10-30T21:16:57Z</time>
      </trkpt>
      <trkpt lat="48.5121" lon="-3.37721">
        <ele>195</ele>
        <time>2023-10-30T21:18:08Z</time>
      </trkpt>
      <trkpt lat="48.51178" lon="-3.37712">
        <ele>196</ele>
        <time>2023-10-30T21:18:52Z</time>
      </trkpt>
      <trkpt lat="48.51168" lon="-3.37717">
        <ele>196</ele>
        <time>2023-10-30T21:19:06Z</time>
      </trkpt>
      <trkpt lat="48.51161" lon="-3.37713">
        <ele>196</ele>
        <time>2023-10-30T21:19:16Z</time>
      </trkpt>
      <trkpt lat="48.51103" lon="-3.37708">
        <ele>197</ele>
        <time>2023-10-30T21:20:33Z</time>
      </trkpt>
      <trkpt lat="48.51083" lon="-3.37703">
        <ele>197</ele>
        <time>2023-10-30T21:21:00Z</time>
      </trkpt>
      <trkpt lat="48.51063" lon="-3.37694">
        <ele>198</ele>
        <time>2023-10-30T21:21:28Z</time>
      </trkpt>
      <trkpt lat="48.51054" lon="-3.37685">
        <ele>199</ele>
        <time>2023-10-30T21:21:42Z</time>
      </trkpt>
      <trkpt lat="48.51051" lon="-3.37677">
        <ele>199</ele>
        <time>2023-10-30T21:21:51Z</time>
      </trkpt>
      <trkpt lat="48.51058" lon="-3.37669">
        <ele>199</ele>
        <time>2023-10-30T21:22:02Z</time>
      </trkpt>
      <trkpt lat="48.51049" lon="-3.377">
        <ele>199</ele>
        <time>2023-10-30T21:22:32Z</time>
      </trkpt>
      <trkpt lat="48.51057" lon="-3.37678">
        <ele>199</ele>
        <time>2023-10-30T21:22:54Z</time>
      </trkpt>
      <trkpt lat="48.51053" lon="-3.37682">
        <ele>199</ele>
        <time>2023-10-30T21:23:01Z</time>
      </trkpt>
      <trkpt lat="48.51048" lon="-3.3768">
        <ele>199</ele>
        <time>2023-10-30T21:23:08Z</time>
      </trkpt>
      <trkpt lat="48.51069" lon="-3.3769">
        <ele>198</ele>
        <time>2023-10-30T21:23:37Z</time>
      </trkpt>
      <trkpt lat="48.51101" lon="-3.377">
        <ele>197</ele>
        <time>2023-10-30T21:24:21Z</time>
      </trkpt>
      <trkpt lat="48.51115" lon="-3.37702">
        <ele>197</ele>
        <time>2023-10-30T21:24:39Z</time>
      </trkpt>
      <trkpt lat="48.51127" lon="-3.37654">
        <ele>200</ele>
        <time>2023-10-30T21:25:25Z</time>
      </trkpt>
      <trkpt lat="48.51141" lon="-3.37615">
        <ele>205</ele>
        <time>2023-10-30T21:26:04Z</time>
      </trkpt>
      <trkpt lat="48.51149" lon="-3.37575">
        <ele>210</ele>
        <time>2023-10-30T21:26:41Z</time>
      </trkpt>
      <trkpt lat="48.51138" lon="-3.37551">
        <ele>211</ele>
        <time>2023-10-30T21:27:07Z</time>
      </trkpt>
      <trkpt lat="48.5112" lon="-3.37541">
        <ele>212</ele>
        <time>2023-10-30T21:27:32Z</time>
      </trkpt>
      <trkpt lat="48.51102" lon="-3.37537">
        <ele>212</ele>
        <time>2023-10-30T21:27:57Z</time>
      </trkpt>
      <trkpt lat="48.51085" lon="-3.3753">
        <ele>213</ele>
        <time>2023-10-30T21:28:20Z</time>
      </trkpt>
      <trkpt lat="48.51071" lon="-3.3746">
        <ele>217</ele>
        <time>2023-10-30T21:29:25Z</time>
      </trkpt>
      <trkpt lat="48.51066" lon="-3.37404">
        <ele>220</ele>
        <time>2023-10-30T21:30:15Z</time>
      </trkpt>
      <trkpt lat="48.51063" lon="-3.37314">
        <ele>223</ele>
        <time>2023-10-30T21:31:34Z</time>
      </trkpt>
      <trkpt lat="48.51057" lon="-3.37275">
        <ele>224</ele>
        <time>2023-10-30T21:32:10Z</time>
      </trkpt>
      <trkpt lat="48.51054" lon="-3.37207">
        <ele>230</ele>
        <time>2023-10-30T21:33:10Z</time>
      </trkpt>
      <trkpt lat="48.51065" lon="-3.37152">
        <ele>236</ele>
        <time>2023-10-30T21:34:01Z</time>
      </trkpt>
      <trkpt lat="48.51122" lon="-3.36948">
        <ele>248</ele>
        <time>2023-10-30T21:37:17Z</time>
      </trkpt>
      <trkpt lat="48.51131" lon="-3.36897">
        <ele>250</ele>
        <time>2023-10-30T21:38:03Z</time>
      </trkpt>
      <trkpt lat="48.51147" lon="-3.36852">
        <ele>252</ele>
        <time>2023-10-30T21:38:48Z</time>
      </trkpt>
      <trkpt lat="48.51185" lon="-3.36711">
        <ele>261</ele>
        <time>2023-10-30T21:41:03Z</time>
      </trkpt>
      <trkpt lat="48.51194" lon="-3.36658">
        <ele>264</ele>
        <time>2023-10-30T21:41:51Z</time>
      </trkpt>
      <trkpt lat="48.51212" lon="-3.36598">
        <ele>265</ele>
        <time>2023-10-30T21:42:50Z</time>
      </trkpt>
      <trkpt lat="48.51215" lon="-3.36575">
        <ele>265</ele>
        <time>2023-10-30T21:43:10Z</time>
      </trkpt>
      <trkpt lat="48.51212" lon="-3.36391">
        <ele>254</ele>
        <time>2023-10-30T21:45:53Z</time>
      </trkpt>
      <trkpt lat="48.51217" lon="-3.36358">
        <ele>251</ele>
        <time>2023-10-30T21:46:23Z</time>
      </trkpt>
      <trkpt lat="48.51212" lon="-3.36292">
        <ele>245</ele>
        <time>2023-10-30T21:47:22Z</time>
      </trkpt>
      <trkpt lat="48.51214" lon="-3.36114">
        <ele>228</ele>
        <time>2023-10-30T21:49:59Z</time>
      </trkpt>
      <trkpt lat="48.51211" lon="-3.36069">
        <ele>222</ele>
        <time>2023-10-30T21:50:39Z</time>
      </trkpt>
      <trkpt lat="48.51213" lon="-3.36041">
        <ele>219</ele>
        <time>2023-10-30T21:51:04Z</time>
      </trkpt>
      <trkpt lat="48.51211" lon="-3.36004">
        <ele>215</ele>
        <time>2023-10-30T21:51:37Z</time>
      </trkpt>
      <trkpt lat="48.5122" lon="-3.35951">
        <ele>207</ele>
        <time>2023-10-30T21:52:25Z</time>
      </trkpt>
      <trkpt lat="48.5123" lon="-3.35925">
        <ele>203</ele>
        <time>2023-10-30T21:52:52Z</time>
      </trkpt>
      <trkpt lat="48.51231" lon="-3.35904">
        <ele>200</ele>
        <time>2023-10-30T21:53:10Z</time>
      </trkpt>
      <trkpt lat="48.51228" lon="-3.3588">
        <ele>198</ele>
        <time>2023-10-30T21:53:32Z</time>
      </trkpt>
      <trkpt lat="48.51242" lon="-3.35858">
        <ele>194</ele>
        <time>2023-10-30T21:53:59Z</time>
      </trkpt>
      <trkpt lat="48.51249" lon="-3.35825">
        <ele>190</ele>
        <time>2023-10-30T21:54:30Z</time>
      </trkpt>
      <trkpt lat="48.51248" lon="-3.35777">
        <ele>186</ele>
        <time>2023-10-30T21:55:12Z</time>
      </trkpt>
      <trkpt lat="48.5125" lon="-3.35759">
        <ele>185</ele>
        <time>2023-10-30T21:55:28Z</time>
      </trkpt>
      <trkpt lat="48.51247" lon="-3.35714">
        <ele>182</ele>
        <time>2023-10-30T21:56:08Z</time>
      </trkpt>
      <trkpt lat="48.51264" lon="-3.35646">
        <ele>177</ele>
        <time>2023-10-30T21:57:12Z</time>
      </trkpt>
      <trkpt lat="48.51263" lon="-3.35615">
        <ele>176</ele>
        <time>2023-10-30T21:57:40Z</time>
      </trkpt>
      <trkpt lat="48.51258" lon="-3.35597">
        <ele>176</ele>
        <time>2023-10-30T21:57:57Z</time>
      </trkpt>
      <trkpt lat="48.51237" lon="-3.35544">
        <ele>171</ele>
        <time>2023-10-30T21:58:52Z</time>
      </trkpt>
      <trkpt lat="48.51231" lon="-3.35518">
        <ele>169</ele>
        <time>2023-10-30T21:59:16Z</time>
      </trkpt>
      <trkpt lat="48.51222" lon="-3.35493">
        <ele>166</ele>
        <time>2023-10-30T21:59:41Z</time>
      </trkpt>
      <trkpt lat="48.51215" lon="-3.35486">
        <ele>165</ele>
        <time>2023-10-30T21:59:52Z</time>
      </trkpt>
      <trkpt lat="48.51207" lon="-3.3547">
        <ele>163</ele>
        <time>2023-10-30T22:00:10Z</time>
      </trkpt>
      <trkpt lat="48.51208" lon="-3.35445">
        <ele>160</ele>
        <time>2023-10-30T22:00:32Z</time>
      </trkpt>
      <trkpt lat="48.51212" lon="-3.35432">
        <ele>159</ele>
        <time>2023-10-30T22:00:45Z</time>
      </trkpt>
      <trkpt lat="48.5123" lon="-3.35429">
        <ele>158</ele>
        <time>2023-10-30T22:01:09Z</time>
      </trkpt>
      <trkpt lat="48.51232" lon="-3.35419">
        <ele>157</ele>
        <time>2023-10-30T22:01:18Z</time>
      </trkpt>
      <trkpt lat="48.51234" lon="-3.35366">
        <ele>152</ele>
        <time>2023-10-30T22:02:05Z</time>
      </trkpt>
      <trkpt lat="48.51226" lon="-3.35348">
        <ele>151</ele>
        <time>2023-10-30T22:02:24Z</time>
      </trkpt>
      <trkpt lat="48.51225" lon="-3.35306">
        <ele>149</ele>
        <time>2023-10-30T22:03:01Z</time>
      </trkpt>
      <trkpt lat="48.5123" lon="-3.35289">
        <ele>149</ele>
        <time>2023-10-30T22:03:18Z</time>
      </trkpt>
      <trkpt lat="48.51237" lon="-3.35279">
        <ele>149</ele>
        <time>2023-10-30T22:03:31Z</time>
      </trkpt>
      <trkpt lat="48.51249" lon="-3.35276">
        <ele>148</ele>
        <time>2023-10-30T22:03:47Z</time>
      </trkpt>
      <trkpt lat="48.51302" lon="-3.35283">
        <ele>147</ele>
        <time>2023-10-30T22:04:58Z</time>
      </trkpt>
      <trkpt lat="48.51423" lon="-3.35309">
        <ele>145</ele>
        <time>2023-10-30T22:07:41Z</time>
      </trkpt>
      <trkpt lat="48.51481" lon="-3.35325">
        <ele>143</ele>
        <time>2023-10-30T22:09:00Z</time>
      </trkpt>
      <trkpt lat="48.51573" lon="-3.35361">
        <ele>142</ele>
        <time>2023-10-30T22:11:07Z</time>
      </trkpt>
      <trkpt lat="48.51702" lon="-3.35397">
        <ele>142</ele>
        <time>2023-10-30T22:14:02Z</time>
      </trkpt>
      <trkpt lat="48.5175" lon="-3.35415">
        <ele>141</ele>
        <time>2023-10-30T22:15:08Z</time>
      </trkpt>
      <trkpt lat="48.51788" lon="-3.35423">
        <ele>139</ele>
        <time>2023-10-30T22:15:59Z</time>
      </trkpt>
      <trkpt lat="48.51826" lon="-3.35437">
        <ele>138</ele>
        <time>2023-10-30T22:16:51Z</time>
      </trkpt>
      <trkpt lat="48.51883" lon="-3.3545">
        <ele>138</ele>
        <time>2023-10-30T22:18:08Z</time>
      </trkpt>
      <trkpt lat="48.51905" lon="-3.35462">
        <ele>138</ele>
        <time>2023-10-30T22:18:39Z</time>
      </trkpt>
      <trkpt lat="48.51914" lon="-3.3548">
        <ele>138</ele>
        <time>2023-10-30T22:18:59Z</time>
      </trkpt>
      <trkpt lat="48.51915" lon="-3.35515">
        <ele>138</ele>
        <time>2023-10-30T22:19:30Z</time>
      </trkpt>
      <trkpt lat="48.51914" lon="-3.35541">
        <ele>139</ele>
        <time>2023-10-30T22:19:53Z</time>
      </trkpt>
      <trkpt lat="48.51907" lon="-3.35575">
        <ele>140</ele>
        <time>2023-10-30T22:20:25Z</time>
      </trkpt>
      <trkpt lat="48.51903" lon="-3.35622">
        <ele>143</ele>
        <time>2023-10-30T22:21:07Z</time>
      </trkpt>
      <trkpt lat="48.51912" lon="-3.3564">
        <ele>144</ele>
        <time>2023-10-30T22:21:26Z</time>
      </trkpt>
      <trkpt lat="48.51912" lon="-3.35658">
        <ele>145</ele>
        <time>2023-10-30T22:21:42Z</time>
      </trkpt>
      <trkpt lat="48.51926" lon="-3.35727">
        <ele>146</ele>
        <time>2023-10-30T22:22:46Z</time>
      </trkpt>
      <trkpt lat="48.5196" lon="-3.35786">
        <ele>146</ele>
        <time>2023-10-30T22:23:55Z</time>
      </trkpt>
      <trkpt lat="48.5197" lon="-3.35817">
        <ele>147</ele>
        <time>2023-10-30T22:24:26Z</time>
      </trkpt>
      <trkpt lat="48.51976" lon="-3.35845">
        <ele>148</ele>
        <time>2023-10-30T22:24:52Z</time>
      </trkpt>
      <trkpt lat="48.51977" lon="-3.35863">
        <ele>149</ele>
        <time>2023-10-30T22:25:08Z</time>
      </trkpt>
      <trkpt lat="48.51973" lon="-3.35884">
        <ele>150</ele>
        <time>2023-10-30T22:25:27Z</time>
      </trkpt>
      <trkpt lat="48.51977" lon="-3.35898">
        <ele>150</ele>
        <time>2023-10-30T22:25:41Z</time>
      </trkpt>
      <trkpt lat="48.5199" lon="-3.3592">
        <ele>151</ele>
        <time>2023-10-30T22:26:07Z</time>
      </trkpt>
      <trkpt lat="48.52074" lon="-3.35964">
        <ele>145</ele>
        <time>2023-10-30T22:28:05Z</time>
      </trkpt>
      <trkpt lat="48.52081" lon="-3.35967">
        <ele>145</ele>
        <time>2023-10-30T22:28:15Z</time>
      </trkpt>
      <trkpt lat="48.52088" lon="-3.35966">
        <ele>144</ele>
        <time>2023-10-30T22:28:24Z</time>
      </trkpt>
      <trkpt lat="48.52094" lon="-3.3596">
        <ele>144</ele>
        <time>2023-10-30T22:28:34Z</time>
      </trkpt>
      <trkpt lat="48.52087" lon="-3.3595">
        <ele>144</ele>
        <time>2023-10-30T22:28:47Z</time>
      </trkpt>
      <trkpt lat="48.52079" lon="-3.35873">
        <ele>143</ele>
        <time>2023-10-30T22:29:56Z</time>
      </trkpt>
      <trkpt lat="48.5208" lon="-3.35832">
        <ele>142</ele>
        <time>2023-10-30T22:30:32Z</time>
      </trkpt>
      <trkpt lat="48.52075" lon="-3.35782">
        <ele>141</ele>
        <time>2023-10-30T22:31:17Z</time>
      </trkpt>
      <trkpt lat="48.5208" lon="-3.35723">
        <ele>139</ele>
        <time>2023-10-30T22:32:09Z</time>
      </trkpt>
      <trkpt lat="48.52088" lon="-3.35692">
        <ele>138</ele>
        <time>2023-10-30T22:32:39Z</time>
      </trkpt>
      <trkpt lat="48.52095" lon="-3.35684">
        <ele>138</ele>
        <time>2023-10-30T22:32:50Z</time>
      </trkpt>
      <trkpt lat="48.52117" lon="-3.35677">
        <ele>137</ele>
        <time>2023-10-30T22:33:20Z</time>
      </trkpt>
      <trkpt lat="48.5213" lon="-3.35677">
        <ele>137</ele>
        <time>2023-10-30T22:33:38Z</time>
      </trkpt>
      <trkpt lat="48.52199" lon="-3.35748">
        <ele>135</ele>
        <time>2023-10-30T22:35:29Z</time>
      </trkpt>
      <trkpt lat="48.52204" lon="-3.35766">
        <ele>135</ele>
        <time>2023-10-30T22:35:46Z</time>
      </trkpt>
      <trkpt lat="48.52202" lon="-3.35795">
        <ele>135</ele>
        <time>2023-10-30T22:36:12Z</time>
      </trkpt>
      <trkpt lat="48.52196" lon="-3.35817">
        <ele>136</ele>
        <time>2023-10-30T22:36:33Z</time>
      </trkpt>
      <trkpt lat="48.5219" lon="-3.35873">
        <ele>137</ele>
        <time>2023-10-30T22:37:23Z</time>
      </trkpt>
      <trkpt lat="48.52196" lon="-3.359">
        <ele>138</ele>
        <time>2023-10-30T22:37:48Z</time>
      </trkpt>
      <trkpt lat="48.52245" lon="-3.35966">
        <ele>139</ele>
        <time>2023-10-30T22:39:16Z</time>
      </trkpt>
      <trkpt lat="48.52267" lon="-3.3599">
        <ele>139</ele>
        <time>2023-10-30T22:39:52Z</time>
      </trkpt>
      <trkpt lat="48.52316" lon="-3.35989">
        <ele>140</ele>
        <time>2023-10-30T22:40:58Z</time>
      </trkpt>
      <trkpt lat="48.52375" lon="-3.35967">
        <ele>140</ele>
        <time>2023-10-30T22:42:19Z</time>
      </trkpt>
      <trkpt lat="48.52398" lon="-3.35954">
        <ele>138</ele>
        <time>2023-10-30T22:42:52Z</time>
      </trkpt>
      <trkpt lat="48.52421" lon="-3.35948">
        <ele>138</ele>
        <time>2023-10-30T22:43:23Z</time>
      </trkpt>
      <trkpt lat="48.52431" lon="-3.35942">
        <ele>137</ele>
        <time>2023-10-30T22:43:37Z</time>
      </trkpt>
      <trkpt lat="48.5244" lon="-3.35942">
        <ele>138</ele>
        <time>2023-10-30T22:43:49Z</time>
      </trkpt>
      <trkpt lat="48.52452" lon="-3.35946">
        <ele>139</ele>
        <time>2023-10-30T22:44:06Z</time>
      </trkpt>
      <trkpt lat="48.52465" lon="-3.35939">
        <ele>138</ele>
        <time>2023-10-30T22:44:24Z</time>
      </trkpt>
      <trkpt lat="48.52496" lon="-3.35935">
        <ele>139</ele>
        <time>2023-10-30T22:45:05Z</time>
      </trkpt>
      <trkpt lat="48.52536" lon="-3.35925">
        <ele>136</ele>
        <time>2023-10-30T22:46:00Z</time>
      </trkpt>
      <trkpt lat="48.52567" lon="-3.3593">
        <ele>136</ele>
        <time>2023-10-30T22:46:41Z</time>
      </trkpt>
      <trkpt lat="48.52596" lon="-3.35963">
        <ele>137</ele>
        <time>2023-10-30T22:47:30Z</time>
      </trkpt>
      <trkpt lat="48.52601" lon="-3.35981">
        <ele>138</ele>
        <time>2023-10-30T22:47:47Z</time>
      </trkpt>
      <trkpt lat="48.52595" lon="-3.36059">
        <ele>138</ele>
        <time>2023-10-30T22:48:56Z</time>
      </trkpt>
      <trkpt lat="48.52596" lon="-3.36094">
        <ele>138</ele>
        <time>2023-10-30T22:49:27Z</time>
      </trkpt>
      <trkpt lat="48.52592" lon="-3.36113">
        <ele>138</ele>
        <time>2023-10-30T22:49:45Z</time>
      </trkpt>
      <trkpt lat="48.52584" lon="-3.36129">
        <ele>139</ele>
        <time>2023-10-30T22:50:03Z</time>
      </trkpt>
      <trkpt lat="48.52569" lon="-3.36187">
        <ele>143</ele>
        <time>2023-10-30T22:50:58Z</time>
      </trkpt>
      <trkpt lat="48.52566" lon="-3.36213">
        <ele>144</ele>
        <time>2023-10-30T22:51:21Z</time>
      </trkpt>
      <trkpt lat="48.52568" lon="-3.36252">
        <ele>144</ele>
        <time>2023-10-30T22:51:55Z</time>
      </trkpt>
      <trkpt lat="48.52575" lon="-3.36277">
        <ele>142</ele>
        <time>2023-10-30T22:52:19Z</time>
      </trkpt>
      <trkpt lat="48.52585" lon="-3.36293">
        <ele>139</ele>
        <time>2023-10-30T22:52:39Z</time>
      </trkpt>
      <trkpt lat="48.52611" lon="-3.36325">
        <ele>135</ele>
        <time>2023-10-30T22:53:24Z</time>
      </trkpt>
      <trkpt lat="48.52622" lon="-3.36349">
        <ele>134</ele>
        <time>2023-10-30T22:53:49Z</time>
      </trkpt>
      <trkpt lat="48.52642" lon="-3.36413">
        <ele>133</ele>
        <time>2023-10-30T22:54:52Z</time>
      </trkpt>
      <trkpt lat="48.52642" lon="-3.36444">
        <ele>133</ele>
        <time>2023-10-30T22:55:19Z</time>
      </trkpt>
      <trkpt lat="48.52628" lon="-3.36469">
        <ele>133</ele>
        <time>2023-10-30T22:55:48Z</time>
      </trkpt>
      <trkpt lat="48.52605" lon="-3.365">
        <ele>135</ele>
        <time>2023-10-30T22:56:29Z</time>
      </trkpt>
      <trkpt lat="48.52585" lon="-3.36521">
        <ele>137</ele>
        <time>2023-10-30T22:57:02Z</time>
      </trkpt>
      <trkpt lat="48.52579" lon="-3.36532">
        <ele>138</ele>
        <time>2023-10-30T22:57:15Z</time>
      </trkpt>
      <trkpt lat="48.52551" lon="-3.36611">
        <ele>144</ele>
        <time>2023-10-30T22:58:34Z</time>
      </trkpt>
      <trkpt lat="48.52549" lon="-3.36682">
        <ele>147</ele>
        <time>2023-10-30T22:59:37Z</time>
      </trkpt>
      <trkpt lat="48.52561" lon="-3.36736">
        <ele>150</ele>
        <time>2023-10-30T23:00:27Z</time>
      </trkpt>
      <trkpt lat="48.52566" lon="-3.36797">
        <ele>154</ele>
        <time>2023-10-30T23:01:21Z</time>
      </trkpt>
      <trkpt lat="48.52566" lon="-3.36836">
        <ele>157</ele>
        <time>2023-10-30T23:01:56Z</time>
      </trkpt>
      <trkpt lat="48.52556" lon="-3.36871">
        <ele>160</ele>
        <time>2023-10-30T23:02:29Z</time>
      </trkpt>
      <trkpt lat="48.52541" lon="-3.36911">
        <ele>165</ele>
        <time>2023-10-30T23:03:10Z</time>
      </trkpt>
      <trkpt lat="48.52515" lon="-3.36966">
        <ele>172</ele>
        <time>2023-10-30T23:04:10Z</time>
      </trkpt>
      <trkpt lat="48.52511" lon="-3.37008">
        <ele>176</ele>
        <time>2023-10-30T23:04:47Z</time>
      </trkpt>
      <trkpt lat="48.52518" lon="-3.37052">
        <ele>179</ele>
        <time>2023-10-30T23:05:27Z</time>
      </trkpt>
      <trkpt lat="48.52496" lon="-3.3714">
        <ele>186</ele>
        <time>2023-10-30T23:06:50Z</time>
      </trkpt>
      <trkpt lat="48.52492" lon="-3.37165">
        <ele>188</ele>
        <time>2023-10-30T23:07:13Z</time>
      </trkpt>
      <trkpt lat="48.52505" lon="-3.37194">
        <ele>189</ele>
        <time>2023-10-30T23:07:44Z</time>
      </trkpt>
      <trkpt lat="48.52527" lon="-3.37233">
        <ele>188</ele>
        <time>2023-10-30T23:08:29Z</time>
      </trkpt>
      <trkpt lat="48.52549" lon="-3.37289">
        <ele>188</ele>
        <time>2023-10-30T23:09:27Z</time>
      </trkpt>
      <trkpt lat="48.52569" lon="-3.3741">
        <ele>191</ele>
        <time>2023-10-30T23:11:17Z</time>
      </trkpt>
      <trkpt lat="48.52585" lon="-3.37436">
        <ele>190</ele>
        <time>2023-10-30T23:11:48Z</time>
      </trkpt>
      <trkpt lat="48.52591" lon="-3.37441">
        <ele>190</ele>
        <time>2023-10-30T23:11:58Z</time>
      </trkpt>
      <trkpt lat="48.52609" lon="-3.37449">
        <ele>188</ele>
        <time>2023-10-30T23:12:23Z</time>
      </trkpt>
      <trkpt lat="48.52651" lon="-3.37462">
        <ele>182</ele>
        <time>2023-10-30T23:13:20Z</time>
      </trkpt>
      <trkpt lat="48.5269" lon="-3.37491">
        <ele>178</ele>
        <time>2023-10-30T23:14:18Z</time>
      </trkpt>
      <trkpt lat="48.527" lon="-3.37514">
        <ele>178</ele>
        <time>2023-10-30T23:14:42Z</time>
      </trkpt>
      <trkpt lat="48.52694" lon="-3.37635">
        <ele>184</ele>
        <time>2023-10-30T23:16:29Z</time>
      </trkpt>
      <trkpt lat="48.52705" lon="-3.37683">
        <ele>185</ele>
        <time>2023-10-30T23:17:14Z</time>
      </trkpt>
      <trkpt lat="48.52772" lon="-3.37768">
        <ele>183</ele>
        <time>2023-10-30T23:19:11Z</time>
      </trkpt>
      <trkpt lat="48.52789" lon="-3.37794">
        <ele>182</ele>
        <time>2023-10-30T23:19:43Z</time>
      </trkpt>
      <trkpt lat="48.52838" lon="-3.37851">
        <ele>180</ele>
        <time>2023-10-30T23:21:06Z</time>
      </trkpt>
      <trkpt lat="48.52857" lon="-3.37887">
        <ele>179</ele>
        <time>2023-10-30T23:21:47Z</time>
      </trkpt>
      <trkpt lat="48.52873" lon="-3.37907">
        <ele>178</ele>
        <time>2023-10-30T23:22:14Z</time>
      </trkpt>
      <trkpt lat="48.52884" lon="-3.37917">
        <ele>178</ele>
        <time>2023-10-30T23:22:31Z</time>
      </trkpt>
      <trkpt lat="48.52898" lon="-3.37918">
        <ele>178</ele>
        <time>2023-10-30T23:22:50Z</time>
      </trkpt>
      <trkpt lat="48.52952" lon="-3.37949">
        <ele>176</ele>
        <time>2023-10-30T23:24:07Z</time>
      </trkpt>
      <trkpt lat="48.52961" lon="-3.37955">
        <ele>176</ele>
        <time>2023-10-30T23:24:20Z</time>
      </trkpt>
      <trkpt lat="48.52973" lon="-3.37967">
        <ele>176</ele>
        <time>2023-10-30T23:24:40Z</time>
      </trkpt>
      <trkpt lat="48.52978" lon="-3.37976">
        <ele>176</ele>
        <time>2023-10-30T23:24:50Z</time>
      </trkpt>
      <trkpt lat="48.52984" lon="-3.3798">
        <ele>176</ele>
        <time>2023-10-30T23:24:59Z</time>
      </trkpt>
      <trkpt lat="48.52992" lon="-3.37976">
        <ele>175</ele>
        <time>2023-10-30T23:25:10Z</time>
      </trkpt>
      <trkpt lat="48.52991" lon="-3.37982">
        <ele>176</ele>
        <time>2023-10-30T23:25:15Z</time>
      </trkpt>
      <trkpt lat="48.52996" lon="-3.37992">
        <ele>176</ele>
        <time>2023-10-30T23:25:27Z</time>
      </trkpt>
      <trkpt lat="48.53008" lon="-3.38003">
        <ele>176</ele>
        <time>2023-10-30T23:25:45Z</time>
      </trkpt>
      <trkpt lat="48.53028" lon="-3.38033">
        <ele>176</ele>
        <time>2023-10-30T23:26:23Z</time>
      </trkpt>
      <trkpt lat="48.53045" lon="-3.38045">
        <ele>176</ele>
        <time>2023-10-30T23:26:48Z</time>
      </trkpt>
      <trkpt lat="48.53068" lon="-3.38069">
        <ele>176</ele>
        <time>2023-10-30T23:27:25Z</time>
      </trkpt>
      <trkpt lat="48.53088" lon="-3.3808">
        <ele>176</ele>
        <time>2023-10-30T23:27:54Z</time>
      </trkpt>
      <trkpt lat="48.53104" lon="-3.38086">
        <ele>176</ele>
        <time>2023-10-30T23:28:16Z</time>
      </trkpt>
      <trkpt lat="48.53118" lon="-3.38088">
        <ele>176</ele>
        <time>2023-10-30T23:28:34Z</time>
      </trkpt>
      <trkpt lat="48.5316" lon="-3.38114">
        <ele>177</ele>
        <time>2023-10-30T23:29:35Z</time>
      </trkpt>
      <trkpt lat="48.53188" lon="-3.38134">
        <ele>179</ele>
        <time>2023-10-30T23:30:16Z</time>
      </trkpt>
      <trkpt lat="48.53215" lon="-3.38166">
        <ele>181</ele>
        <time>2023-10-30T23:31:02Z</time>
      </trkpt>
      <trkpt lat="48.53217" lon="-3.38174">
        <ele>181</ele>
        <time>2023-10-30T23:31:10Z</time>
      </trkpt>
      <trkpt lat="48.53223" lon="-3.38172">
        <ele>182</ele>
        <time>2023-10-30T23:31:18Z</time>
      </trkpt>
      <trkpt lat="48.53226" lon="-3.38162">
        <ele>181</ele>
        <time>2023-10-30T23:31:28Z</time>
      </trkpt>
      <trkpt lat="48.53236" lon="-3.38159">
        <ele>181</ele>
        <time>2023-10-30T23:31:41Z</time>
      </trkpt>
      <trkpt lat="48.53236" lon="-3.38162">
        <ele>181</ele>
        <time>2023-10-30T23:31:44Z</time>
      </trkpt>
      <trkpt lat="48.53292" lon="-3.38075">
        <ele>174</ele>
        <time>2023-10-30T23:33:31Z</time>
      </trkpt>
      <trkpt lat="48.53304" lon="-3.38062">
        <ele>173</ele>
        <time>2023-10-30T23:33:51Z</time>
      </trkpt>
      <trkpt lat="48.53309" lon="-3.38062">
        <ele>173</ele>
        <time>2023-10-30T23:33:57Z</time>
      </trkpt>
      <trkpt lat="48.53332" lon="-3.38073">
        <ele>174</ele>
        <time>2023-10-30T23:34:30Z</time>
      </trkpt>
      <trkpt lat="48.53351" lon="-3.38087">
        <ele>172</ele>
        <time>2023-10-30T23:34:58Z</time>
      </trkpt>
      <trkpt lat="48.53361" lon="-3.38099">
        <ele>172</ele>
        <time>2023-10-30T23:35:15Z</time>
      </trkpt>
      <trkpt lat="48.53398" lon="-3.38122">
        <ele>168</ele>
        <time>2023-10-30T23:36:08Z</time>
      </trkpt>
      <trkpt lat="48.53409" lon="-3.38137">
        <ele>167</ele>
        <time>2023-10-30T23:36:28Z</time>
      </trkpt>
      <trkpt lat="48.53416" lon="-3.38188">
        <ele>167</ele>
        <time>2023-10-30T23:37:14Z</time>
      </trkpt>
      <trkpt lat="48.53427" lon="-3.382">
        <ele>165</ele>
        <time>2023-10-30T23:37:32Z</time>
      </trkpt>
      <trkpt lat="48.53449" lon="-3.38203">
        <ele>161</ele>
        <time>2023-10-30T23:38:02Z</time>
      </trkpt>
      <trkpt lat="48.53475" lon="-3.38226">
        <ele>156</ele>
        <time>2023-10-30T23:38:42Z</time>
      </trkpt>
      <trkpt lat="48.53483" lon="-3.3826">
        <ele>155</ele>
        <time>2023-10-30T23:39:14Z</time>
      </trkpt>
      <trkpt lat="48.53484" lon="-3.38356">
        <ele>153</ele>
        <time>2023-10-30T23:40:39Z</time>
      </trkpt>
      <trkpt lat="48.53488" lon="-3.38381">
        <ele>152</ele>
        <time>2023-10-30T23:41:01Z</time>
      </trkpt>
      <trkpt lat="48.535" lon="-3.38398">
        <ele>150</ele>
        <time>2023-10-30T23:41:23Z</time>
      </trkpt>
      <trkpt lat="48.53516" lon="-3.38406">
        <ele>149</ele>
        <time>2023-10-30T23:41:46Z</time>
      </trkpt>
      <trkpt lat="48.53565" lon="-3.38422">
        <ele>146</ele>
        <time>2023-10-30T23:42:53Z</time>
      </trkpt>
      <trkpt lat="48.53611" lon="-3.38449">
        <ele>145</ele>
        <time>2023-10-30T23:43:59Z</time>
      </trkpt>
      <trkpt lat="48.5363" lon="-3.38456">
        <ele>145</ele>
        <time>2023-10-30T23:44:25Z</time>
      </trkpt>
      <trkpt lat="48.53661" lon="-3.38487">
        <ele>146</ele>
        <time>2023-10-30T23:45:14Z</time>
      </trkpt>
      <trkpt lat="48.53671" lon="-3.38519">
        <ele>146</ele>
        <time>2023-10-30T23:45:45Z</time>
      </trkpt>
      <trkpt lat="48.53784" lon="-3.3853">
        <ele>139</ele>
        <time>2023-10-30T23:48:17Z</time>
      </trkpt>
      <trkpt lat="48.53977" lon="-3.38305">
        <ele>128</ele>
        <time>2023-10-30T23:53:42Z</time>
      </trkpt>
      <trkpt lat="48.54084" lon="-3.38363">
        <ele>112</ele>
        <time>2023-10-30T23:56:14Z</time>
      </trkpt>
      <trkpt lat="48.54132" lon="-3.38247">
        <ele>106</ele>
        <time>2023-10-30T23:58:15Z</time>
      </trkpt>
      <trkpt lat="48.54065" lon="-3.3866">
        <ele>104</ele>
        <time>2023-10-31T00:04:30Z</time>
      </trkpt>
      <trkpt lat="48.5408" lon="-3.38885">
        <ele>112</ele>
        <time>2023-10-31T00:07:50Z</time>
      </trkpt>
      <trkpt lat="48.54142" lon="-3.39052">
        <ele>109</ele>
        <time>2023-10-31T00:10:39Z</time>
      </trkpt>
      <trkpt lat="48.5418" lon="-3.39392">
        <ele>109</ele>
        <time>2023-10-31T00:15:44Z</time>
      </trkpt>
      <trkpt lat="48.54258" lon="-3.39568">
        <ele>99</ele>
        <time>2023-10-31T00:18:51Z</time>
      </trkpt>
      <trkpt lat="48.54274" lon="-3.39564">
        <ele>99</ele>
        <time>2023-10-31T00:19:13Z</time>
      </trkpt>
      <trkpt lat="48.54314" lon="-3.39577">
        <ele>97</ele>
        <time>2023-10-31T00:20:07Z</time>
      </trkpt>
      <trkpt lat="48.54332" lon="-3.39576">
        <ele>96</ele>
        <time>2023-10-31T00:20:31Z</time>
      </trkpt>
      <trkpt lat="48.54353" lon="-3.3957">
        <ele>96</ele>
        <time>2023-10-31T00:21:00Z</time>
      </trkpt>
      <trkpt lat="48.54365" lon="-3.39573">
        <ele>95</ele>
        <time>2023-10-31T00:21:16Z</time>
      </trkpt>
      <trkpt lat="48.54405" lon="-3.39606">
        <ele>94</ele>
        <time>2023-10-31T00:22:17Z</time>
      </trkpt>
      <trkpt lat="48.54418" lon="-3.39611">
        <ele>94</ele>
        <time>2023-10-31T00:22:35Z</time>
      </trkpt>
      <trkpt lat="48.54425" lon="-3.39607">
        <ele>94</ele>
        <time>2023-10-31T00:22:45Z</time>
      </trkpt>
    </trkseg>
  </trk>
</gpx>